<?xml version="1.0" encoding="UTF-8" standalone="no" ?>
<gpx xmlns="http://www.topografix.com/GPX/1/1" xmlns:xsi="http://www.w3.org/2001/XMLSchema-instance" xsi:schemaLocation="http://www.topografix.com/GPX/1/1 http://www.topografix.com/GPX/1/1/gpx.xsd" version="1.1" creator="VisuGPX - https://www.visugpx.com">
  <metadata>
    <name>GTJ :  Lajoux-Lélex</name>
    <desc><![CDATA[GTJ du 18 au 20 Mai 2012 : Prémanon - Bellegarde sur Valserine.
Deuxième étape : Lajoux-Lélex
]]></desc>
  </metadata>
  <trk>
    <name><![CDATA[gtj II]]></name>
    <desc><![CDATA[7h:54m:10s | 44.3km

Longueur - 44.3km
Points - 1704
Altitude Min - 754m
Altitude Max - 1595m
]]></desc>
    <trkseg>
      <trkpt lat="46.37703" lon="5.97156">
        <ele>1179</ele>
        <time>2012-05-19T07:18:52Z</time>
      </trkpt>
      <trkpt lat="46.37687" lon="5.97131">
        <ele>1179</ele>
        <time>2012-05-19T07:31:03Z</time>
      </trkpt>
      <trkpt lat="46.37669" lon="5.97109">
        <ele>1178</ele>
        <time>2012-05-19T07:31:15Z</time>
      </trkpt>
      <trkpt lat="46.37647" lon="5.97094">
        <ele>1177</ele>
        <time>2012-05-19T07:31:28Z</time>
      </trkpt>
      <trkpt lat="46.3763" lon="5.97071">
        <ele>1177</ele>
        <time>2012-05-19T07:31:38Z</time>
      </trkpt>
      <trkpt lat="46.37616" lon="5.97045">
        <ele>1177</ele>
        <time>2012-05-19T07:31:46Z</time>
      </trkpt>
      <trkpt lat="46.37607" lon="5.97013">
        <ele>1176</ele>
        <time>2012-05-19T07:31:56Z</time>
      </trkpt>
      <trkpt lat="46.37602" lon="5.96978">
        <ele>1177</ele>
        <time>2012-05-19T07:32:07Z</time>
      </trkpt>
      <trkpt lat="46.37587" lon="5.96952">
        <ele>1177</ele>
        <time>2012-05-19T07:32:20Z</time>
      </trkpt>
      <trkpt lat="46.37572" lon="5.96978">
        <ele>1175</ele>
        <time>2012-05-19T07:32:31Z</time>
      </trkpt>
      <trkpt lat="46.37563" lon="5.9701">
        <ele>1175</ele>
        <time>2012-05-19T07:32:41Z</time>
      </trkpt>
      <trkpt lat="46.37558" lon="5.97043">
        <ele>1175</ele>
        <time>2012-05-19T07:32:51Z</time>
      </trkpt>
      <trkpt lat="46.37549" lon="5.97075">
        <ele>1175</ele>
        <time>2012-05-19T07:33:01Z</time>
      </trkpt>
      <trkpt lat="46.37545" lon="5.97107">
        <ele>1176</ele>
        <time>2012-05-19T07:33:10Z</time>
      </trkpt>
      <trkpt lat="46.37535" lon="5.97139">
        <ele>1175</ele>
        <time>2012-05-19T07:33:20Z</time>
      </trkpt>
      <trkpt lat="46.37523" lon="5.97169">
        <ele>1175</ele>
        <time>2012-05-19T07:33:31Z</time>
      </trkpt>
      <trkpt lat="46.37513" lon="5.97199">
        <ele>1174</ele>
        <time>2012-05-19T07:33:41Z</time>
      </trkpt>
      <trkpt lat="46.37499" lon="5.97227">
        <ele>1172</ele>
        <time>2012-05-19T07:33:51Z</time>
      </trkpt>
      <trkpt lat="46.37485" lon="5.97255">
        <ele>1172</ele>
        <time>2012-05-19T07:34:01Z</time>
      </trkpt>
      <trkpt lat="46.37474" lon="5.97287">
        <ele>1173</ele>
        <time>2012-05-19T07:34:12Z</time>
      </trkpt>
      <trkpt lat="46.37466" lon="5.97322">
        <ele>1173</ele>
        <time>2012-05-19T07:34:23Z</time>
      </trkpt>
      <trkpt lat="46.37462" lon="5.97356">
        <ele>1174</ele>
        <time>2012-05-19T07:34:34Z</time>
      </trkpt>
      <trkpt lat="46.3746" lon="5.9739">
        <ele>1174</ele>
        <time>2012-05-19T07:34:45Z</time>
      </trkpt>
      <trkpt lat="46.37458" lon="5.97425">
        <ele>1175</ele>
        <time>2012-05-19T07:34:56Z</time>
      </trkpt>
      <trkpt lat="46.37456" lon="5.97459">
        <ele>1174</ele>
        <time>2012-05-19T07:35:06Z</time>
      </trkpt>
      <trkpt lat="46.37453" lon="5.97491">
        <ele>1174</ele>
        <time>2012-05-19T07:35:17Z</time>
      </trkpt>
      <trkpt lat="46.37449" lon="5.97525">
        <ele>1173</ele>
        <time>2012-05-19T07:35:27Z</time>
      </trkpt>
      <trkpt lat="46.37428" lon="5.97543">
        <ele>1173</ele>
        <time>2012-05-19T07:35:44Z</time>
      </trkpt>
      <trkpt lat="46.37406" lon="5.97528">
        <ele>1174</ele>
        <time>2012-05-19T07:35:55Z</time>
      </trkpt>
      <trkpt lat="46.37388" lon="5.97502">
        <ele>1174</ele>
        <time>2012-05-19T07:36:05Z</time>
      </trkpt>
      <trkpt lat="46.37371" lon="5.9748">
        <ele>1173</ele>
        <time>2012-05-19T07:36:13Z</time>
      </trkpt>
      <trkpt lat="46.37354" lon="5.97455">
        <ele>1172</ele>
        <time>2012-05-19T07:36:22Z</time>
      </trkpt>
      <trkpt lat="46.37341" lon="5.97427">
        <ele>1171</ele>
        <time>2012-05-19T07:36:31Z</time>
      </trkpt>
      <trkpt lat="46.37333" lon="5.97395">
        <ele>1171</ele>
        <time>2012-05-19T07:36:41Z</time>
      </trkpt>
      <trkpt lat="46.37326" lon="5.97362">
        <ele>1168</ele>
        <time>2012-05-19T07:36:50Z</time>
      </trkpt>
      <trkpt lat="46.37315" lon="5.97332">
        <ele>1168</ele>
        <time>2012-05-19T07:37:00Z</time>
      </trkpt>
      <trkpt lat="46.37299" lon="5.97309">
        <ele>1168</ele>
        <time>2012-05-19T07:37:10Z</time>
      </trkpt>
      <trkpt lat="46.37282" lon="5.97287">
        <ele>1168</ele>
        <time>2012-05-19T07:37:20Z</time>
      </trkpt>
      <trkpt lat="46.37266" lon="5.97264">
        <ele>1168</ele>
        <time>2012-05-19T07:37:30Z</time>
      </trkpt>
      <trkpt lat="46.37249" lon="5.97242">
        <ele>1169</ele>
        <time>2012-05-19T07:37:40Z</time>
      </trkpt>
      <trkpt lat="46.3723" lon="5.97219">
        <ele>1169</ele>
        <time>2012-05-19T07:37:50Z</time>
      </trkpt>
      <trkpt lat="46.37212" lon="5.97195">
        <ele>1170</ele>
        <time>2012-05-19T07:38:00Z</time>
      </trkpt>
      <trkpt lat="46.37195" lon="5.97174">
        <ele>1170</ele>
        <time>2012-05-19T07:38:10Z</time>
      </trkpt>
      <trkpt lat="46.37178" lon="5.97152">
        <ele>1170</ele>
        <time>2012-05-19T07:38:20Z</time>
      </trkpt>
      <trkpt lat="46.3716" lon="5.97131">
        <ele>1172</ele>
        <time>2012-05-19T07:38:30Z</time>
      </trkpt>
      <trkpt lat="46.37141" lon="5.97109">
        <ele>1172</ele>
        <time>2012-05-19T07:38:40Z</time>
      </trkpt>
      <trkpt lat="46.37125" lon="5.97086">
        <ele>1173</ele>
        <time>2012-05-19T07:38:50Z</time>
      </trkpt>
      <trkpt lat="46.37109" lon="5.9706">
        <ele>1171</ele>
        <time>2012-05-19T07:39:01Z</time>
      </trkpt>
      <trkpt lat="46.37094" lon="5.97034">
        <ele>1171</ele>
        <time>2012-05-19T07:39:11Z</time>
      </trkpt>
      <trkpt lat="46.37079" lon="5.97006">
        <ele>1172</ele>
        <time>2012-05-19T07:39:22Z</time>
      </trkpt>
      <trkpt lat="46.37063" lon="5.9698">
        <ele>1170</ele>
        <time>2012-05-19T07:39:32Z</time>
      </trkpt>
      <trkpt lat="46.37049" lon="5.96955">
        <ele>1170</ele>
        <time>2012-05-19T07:39:41Z</time>
      </trkpt>
      <trkpt lat="46.37032" lon="5.96929">
        <ele>1169</ele>
        <time>2012-05-19T07:39:51Z</time>
      </trkpt>
      <trkpt lat="46.37014" lon="5.96905">
        <ele>1168</ele>
        <time>2012-05-19T07:40:01Z</time>
      </trkpt>
      <trkpt lat="46.36995" lon="5.96884">
        <ele>1167</ele>
        <time>2012-05-19T07:40:11Z</time>
      </trkpt>
      <trkpt lat="46.36976" lon="5.96865">
        <ele>1167</ele>
        <time>2012-05-19T07:40:21Z</time>
      </trkpt>
      <trkpt lat="46.36956" lon="5.96845">
        <ele>1167</ele>
        <time>2012-05-19T07:40:30Z</time>
      </trkpt>
      <trkpt lat="46.36936" lon="5.96826">
        <ele>1165</ele>
        <time>2012-05-19T07:40:39Z</time>
      </trkpt>
      <trkpt lat="46.36917" lon="5.96804">
        <ele>1165</ele>
        <time>2012-05-19T07:40:48Z</time>
      </trkpt>
      <trkpt lat="46.36898" lon="5.96785">
        <ele>1164</ele>
        <time>2012-05-19T07:40:57Z</time>
      </trkpt>
      <trkpt lat="46.3688" lon="5.96764">
        <ele>1164</ele>
        <time>2012-05-19T07:41:06Z</time>
      </trkpt>
      <trkpt lat="46.36868" lon="5.96736">
        <ele>1163</ele>
        <time>2012-05-19T07:41:15Z</time>
      </trkpt>
      <trkpt lat="46.3686" lon="5.96704">
        <ele>1163</ele>
        <time>2012-05-19T07:41:25Z</time>
      </trkpt>
      <trkpt lat="46.36855" lon="5.96669">
        <ele>1163</ele>
        <time>2012-05-19T07:41:35Z</time>
      </trkpt>
      <trkpt lat="46.3685" lon="5.96635">
        <ele>1163</ele>
        <time>2012-05-19T07:41:45Z</time>
      </trkpt>
      <trkpt lat="46.36843" lon="5.96601">
        <ele>1163</ele>
        <time>2012-05-19T07:41:55Z</time>
      </trkpt>
      <trkpt lat="46.36836" lon="5.96568">
        <ele>1163</ele>
        <time>2012-05-19T07:42:04Z</time>
      </trkpt>
      <trkpt lat="46.36828" lon="5.96536">
        <ele>1165</ele>
        <time>2012-05-19T07:42:15Z</time>
      </trkpt>
      <trkpt lat="46.36822" lon="5.96504">
        <ele>1165</ele>
        <time>2012-05-19T07:42:26Z</time>
      </trkpt>
      <trkpt lat="46.36814" lon="5.96472">
        <ele>1166</ele>
        <time>2012-05-19T07:42:37Z</time>
      </trkpt>
      <trkpt lat="46.36806" lon="5.96442">
        <ele>1166</ele>
        <time>2012-05-19T07:42:47Z</time>
      </trkpt>
      <trkpt lat="46.36798" lon="5.9641">
        <ele>1165</ele>
        <time>2012-05-19T07:42:57Z</time>
      </trkpt>
      <trkpt lat="46.36793" lon="5.96375">
        <ele>1165</ele>
        <time>2012-05-19T07:43:08Z</time>
      </trkpt>
      <trkpt lat="46.36785" lon="5.96343">
        <ele>1165</ele>
        <time>2012-05-19T07:43:24Z</time>
      </trkpt>
      <trkpt lat="46.36776" lon="5.96313">
        <ele>1165</ele>
        <time>2012-05-19T07:43:40Z</time>
      </trkpt>
      <trkpt lat="46.36762" lon="5.96287">
        <ele>1165</ele>
        <time>2012-05-19T07:43:56Z</time>
      </trkpt>
      <trkpt lat="46.3675" lon="5.96259">
        <ele>1168</ele>
        <time>2012-05-19T07:44:15Z</time>
      </trkpt>
      <trkpt lat="46.36735" lon="5.96234">
        <ele>1171</ele>
        <time>2012-05-19T07:44:29Z</time>
      </trkpt>
      <trkpt lat="46.36719" lon="5.96208">
        <ele>1172</ele>
        <time>2012-05-19T07:44:45Z</time>
      </trkpt>
      <trkpt lat="46.367" lon="5.96186">
        <ele>1173</ele>
        <time>2012-05-19T07:45:01Z</time>
      </trkpt>
      <trkpt lat="46.36682" lon="5.96167">
        <ele>1174</ele>
        <time>2012-05-19T07:45:17Z</time>
      </trkpt>
      <trkpt lat="46.36663" lon="5.96148">
        <ele>1177</ele>
        <time>2012-05-19T07:45:33Z</time>
      </trkpt>
      <trkpt lat="46.36645" lon="5.96129">
        <ele>1179</ele>
        <time>2012-05-19T07:45:49Z</time>
      </trkpt>
      <trkpt lat="46.36627" lon="5.96105">
        <ele>1180</ele>
        <time>2012-05-19T07:46:04Z</time>
      </trkpt>
      <trkpt lat="46.36609" lon="5.96083">
        <ele>1180</ele>
        <time>2012-05-19T07:46:19Z</time>
      </trkpt>
      <trkpt lat="46.3659" lon="5.96066">
        <ele>1184</ele>
        <time>2012-05-19T07:46:35Z</time>
      </trkpt>
      <trkpt lat="46.3657" lon="5.96051">
        <ele>1185</ele>
        <time>2012-05-19T07:46:52Z</time>
      </trkpt>
      <trkpt lat="46.3655" lon="5.96032">
        <ele>1187</ele>
        <time>2012-05-19T07:47:09Z</time>
      </trkpt>
      <trkpt lat="46.36531" lon="5.96015">
        <ele>1188</ele>
        <time>2012-05-19T07:47:25Z</time>
      </trkpt>
      <trkpt lat="46.36507" lon="5.96004">
        <ele>1190</ele>
        <time>2012-05-19T07:47:44Z</time>
      </trkpt>
      <trkpt lat="46.3649" lon="5.95983">
        <ele>1193</ele>
        <time>2012-05-19T07:48:01Z</time>
      </trkpt>
      <trkpt lat="46.36479" lon="5.95953">
        <ele>1196</ele>
        <time>2012-05-19T07:48:19Z</time>
      </trkpt>
      <trkpt lat="46.36463" lon="5.95929">
        <ele>1197</ele>
        <time>2012-05-19T07:48:39Z</time>
      </trkpt>
      <trkpt lat="46.36444" lon="5.95912">
        <ele>1204</ele>
        <time>2012-05-19T07:48:57Z</time>
      </trkpt>
      <trkpt lat="46.36427" lon="5.9589">
        <ele>1205</ele>
        <time>2012-05-19T07:49:15Z</time>
      </trkpt>
      <trkpt lat="46.36408" lon="5.95871">
        <ele>1204</ele>
        <time>2012-05-19T07:49:31Z</time>
      </trkpt>
      <trkpt lat="46.36388" lon="5.95852">
        <ele>1206</ele>
        <time>2012-05-19T07:49:49Z</time>
      </trkpt>
      <trkpt lat="46.36378" lon="5.95822">
        <ele>1214</ele>
        <time>2012-05-19T07:50:06Z</time>
      </trkpt>
      <trkpt lat="46.3638" lon="5.95787">
        <ele>1215</ele>
        <time>2012-05-19T07:50:20Z</time>
      </trkpt>
      <trkpt lat="46.36384" lon="5.95755">
        <ele>1216</ele>
        <time>2012-05-19T07:50:36Z</time>
      </trkpt>
      <trkpt lat="46.36394" lon="5.95725">
        <ele>1217</ele>
        <time>2012-05-19T07:50:50Z</time>
      </trkpt>
      <trkpt lat="46.36404" lon="5.95693">
        <ele>1216</ele>
        <time>2012-05-19T07:51:00Z</time>
      </trkpt>
      <trkpt lat="46.36418" lon="5.95667">
        <ele>1212</ele>
        <time>2012-05-19T07:51:10Z</time>
      </trkpt>
      <trkpt lat="46.36441" lon="5.95659">
        <ele>1213</ele>
        <time>2012-05-19T07:51:20Z</time>
      </trkpt>
      <trkpt lat="46.36461" lon="5.95644">
        <ele>1212</ele>
        <time>2012-05-19T07:51:36Z</time>
      </trkpt>
      <trkpt lat="46.36443" lon="5.9562">
        <ele>1214</ele>
        <time>2012-05-19T07:51:57Z</time>
      </trkpt>
      <trkpt lat="46.36421" lon="5.95609">
        <ele>1216</ele>
        <time>2012-05-19T07:52:14Z</time>
      </trkpt>
      <trkpt lat="46.36399" lon="5.95603">
        <ele>1220</ele>
        <time>2012-05-19T07:52:33Z</time>
      </trkpt>
      <trkpt lat="46.36378" lon="5.95592">
        <ele>1221</ele>
        <time>2012-05-19T07:52:52Z</time>
      </trkpt>
      <trkpt lat="46.36355" lon="5.95583">
        <ele>1222</ele>
        <time>2012-05-19T07:53:11Z</time>
      </trkpt>
      <trkpt lat="46.36332" lon="5.95577">
        <ele>1226</ele>
        <time>2012-05-19T07:53:30Z</time>
      </trkpt>
      <trkpt lat="46.3631" lon="5.95566">
        <ele>1229</ele>
        <time>2012-05-19T07:53:42Z</time>
      </trkpt>
      <trkpt lat="46.36287" lon="5.95558">
        <ele>1230</ele>
        <time>2012-05-19T07:53:52Z</time>
      </trkpt>
      <trkpt lat="46.36265" lon="5.95553">
        <ele>1230</ele>
        <time>2012-05-19T07:54:04Z</time>
      </trkpt>
      <trkpt lat="46.36242" lon="5.95547">
        <ele>1230</ele>
        <time>2012-05-19T07:54:16Z</time>
      </trkpt>
      <trkpt lat="46.36218" lon="5.95541">
        <ele>1231</ele>
        <time>2012-05-19T07:54:25Z</time>
      </trkpt>
      <trkpt lat="46.36193" lon="5.95534">
        <ele>1232</ele>
        <time>2012-05-19T07:54:34Z</time>
      </trkpt>
      <trkpt lat="46.3617" lon="5.95528">
        <ele>1232</ele>
        <time>2012-05-19T07:54:45Z</time>
      </trkpt>
      <trkpt lat="46.36148" lon="5.95517">
        <ele>1235</ele>
        <time>2012-05-19T07:54:56Z</time>
      </trkpt>
      <trkpt lat="46.36126" lon="5.95506">
        <ele>1235</ele>
        <time>2012-05-19T07:55:10Z</time>
      </trkpt>
      <trkpt lat="46.36106" lon="5.95489">
        <ele>1239</ele>
        <time>2012-05-19T07:55:26Z</time>
      </trkpt>
      <trkpt lat="46.36088" lon="5.95468">
        <ele>1240</ele>
        <time>2012-05-19T07:55:42Z</time>
      </trkpt>
      <trkpt lat="46.36072" lon="5.95444">
        <ele>1242</ele>
        <time>2012-05-19T07:55:58Z</time>
      </trkpt>
      <trkpt lat="46.36055" lon="5.95423">
        <ele>1242</ele>
        <time>2012-05-19T07:56:14Z</time>
      </trkpt>
      <trkpt lat="46.36032" lon="5.9541">
        <ele>1247</ele>
        <time>2012-05-19T07:56:31Z</time>
      </trkpt>
      <trkpt lat="46.3601" lon="5.95408">
        <ele>1245</ele>
        <time>2012-05-19T07:57:27Z</time>
      </trkpt>
      <trkpt lat="46.35992" lon="5.95386">
        <ele>1245</ele>
        <time>2012-05-19T07:57:42Z</time>
      </trkpt>
      <trkpt lat="46.35988" lon="5.95354">
        <ele>1248</ele>
        <time>2012-05-19T07:57:58Z</time>
      </trkpt>
      <trkpt lat="46.35979" lon="5.95322">
        <ele>1256</ele>
        <time>2012-05-19T07:58:11Z</time>
      </trkpt>
      <trkpt lat="46.35966" lon="5.95294">
        <ele>1258</ele>
        <time>2012-05-19T07:58:24Z</time>
      </trkpt>
      <trkpt lat="46.35948" lon="5.95272">
        <ele>1260</ele>
        <time>2012-05-19T07:58:36Z</time>
      </trkpt>
      <trkpt lat="46.35926" lon="5.95264">
        <ele>1261</ele>
        <time>2012-05-19T07:58:47Z</time>
      </trkpt>
      <trkpt lat="46.35903" lon="5.95251">
        <ele>1258</ele>
        <time>2012-05-19T07:58:58Z</time>
      </trkpt>
      <trkpt lat="46.35882" lon="5.95236">
        <ele>1266</ele>
        <time>2012-05-19T07:59:13Z</time>
      </trkpt>
      <trkpt lat="46.3586" lon="5.95223">
        <ele>1265</ele>
        <time>2012-05-19T07:59:25Z</time>
      </trkpt>
      <trkpt lat="46.35838" lon="5.9521">
        <ele>1266</ele>
        <time>2012-05-19T07:59:37Z</time>
      </trkpt>
      <trkpt lat="46.35815" lon="5.95199">
        <ele>1260</ele>
        <time>2012-05-19T07:59:48Z</time>
      </trkpt>
      <trkpt lat="46.35793" lon="5.95189">
        <ele>1259</ele>
        <time>2012-05-19T07:59:58Z</time>
      </trkpt>
      <trkpt lat="46.35775" lon="5.95169">
        <ele>1258</ele>
        <time>2012-05-19T08:00:10Z</time>
      </trkpt>
      <trkpt lat="46.35755" lon="5.9515">
        <ele>1264</ele>
        <time>2012-05-19T08:00:21Z</time>
      </trkpt>
      <trkpt lat="46.35736" lon="5.95131">
        <ele>1262</ele>
        <time>2012-05-19T08:00:32Z</time>
      </trkpt>
      <trkpt lat="46.35718" lon="5.95111">
        <ele>1263</ele>
        <time>2012-05-19T08:00:45Z</time>
      </trkpt>
      <trkpt lat="46.35704" lon="5.95084">
        <ele>1263</ele>
        <time>2012-05-19T08:01:07Z</time>
      </trkpt>
      <trkpt lat="46.35691" lon="5.95056">
        <ele>1274</ele>
        <time>2012-05-19T08:01:36Z</time>
      </trkpt>
      <trkpt lat="46.35689" lon="5.95021">
        <ele>1279</ele>
        <time>2012-05-19T08:02:08Z</time>
      </trkpt>
      <trkpt lat="46.35674" lon="5.94996">
        <ele>1286</ele>
        <time>2012-05-19T08:02:36Z</time>
      </trkpt>
      <trkpt lat="46.35657" lon="5.94974">
        <ele>1284</ele>
        <time>2012-05-19T08:03:01Z</time>
      </trkpt>
      <trkpt lat="46.3564" lon="5.94948">
        <ele>1286</ele>
        <time>2012-05-19T08:03:21Z</time>
      </trkpt>
      <trkpt lat="46.35624" lon="5.94925">
        <ele>1287</ele>
        <time>2012-05-19T08:03:37Z</time>
      </trkpt>
      <trkpt lat="46.35609" lon="5.94899">
        <ele>1296</ele>
        <time>2012-05-19T08:03:58Z</time>
      </trkpt>
      <trkpt lat="46.35591" lon="5.9488">
        <ele>1297</ele>
        <time>2012-05-19T08:04:16Z</time>
      </trkpt>
      <trkpt lat="46.35567" lon="5.94871">
        <ele>1289</ele>
        <time>2012-05-19T08:04:25Z</time>
      </trkpt>
      <trkpt lat="46.3555" lon="5.9485">
        <ele>1290</ele>
        <time>2012-05-19T08:04:41Z</time>
      </trkpt>
      <trkpt lat="46.35532" lon="5.94828">
        <ele>1296</ele>
        <time>2012-05-19T08:04:59Z</time>
      </trkpt>
      <trkpt lat="46.35515" lon="5.94807">
        <ele>1296</ele>
        <time>2012-05-19T08:05:13Z</time>
      </trkpt>
      <trkpt lat="46.35496" lon="5.9479">
        <ele>1291</ele>
        <time>2012-05-19T08:05:26Z</time>
      </trkpt>
      <trkpt lat="46.35477" lon="5.94768">
        <ele>1293</ele>
        <time>2012-05-19T08:05:39Z</time>
      </trkpt>
      <trkpt lat="46.35462" lon="5.94742">
        <ele>1302</ele>
        <time>2012-05-19T08:05:54Z</time>
      </trkpt>
      <trkpt lat="46.35445" lon="5.94721">
        <ele>1301</ele>
        <time>2012-05-19T08:06:10Z</time>
      </trkpt>
      <trkpt lat="46.35438" lon="5.94689">
        <ele>1304</ele>
        <time>2012-05-19T08:06:25Z</time>
      </trkpt>
      <trkpt lat="46.35447" lon="5.94659">
        <ele>1310</ele>
        <time>2012-05-19T08:06:45Z</time>
      </trkpt>
      <trkpt lat="46.35453" lon="5.94626">
        <ele>1311</ele>
        <time>2012-05-19T08:07:03Z</time>
      </trkpt>
      <trkpt lat="46.35461" lon="5.94596">
        <ele>1312</ele>
        <time>2012-05-19T08:07:16Z</time>
      </trkpt>
      <trkpt lat="46.35474" lon="5.94569">
        <ele>1313</ele>
        <time>2012-05-19T08:07:32Z</time>
      </trkpt>
      <trkpt lat="46.35482" lon="5.94536">
        <ele>1312</ele>
        <time>2012-05-19T08:07:42Z</time>
      </trkpt>
      <trkpt lat="46.35476" lon="5.94504">
        <ele>1312</ele>
        <time>2012-05-19T08:07:54Z</time>
      </trkpt>
      <trkpt lat="46.35462" lon="5.94474">
        <ele>1309</ele>
        <time>2012-05-19T08:08:06Z</time>
      </trkpt>
      <trkpt lat="46.35444" lon="5.94455">
        <ele>1309</ele>
        <time>2012-05-19T08:08:18Z</time>
      </trkpt>
      <trkpt lat="46.35422" lon="5.94442">
        <ele>1308</ele>
        <time>2012-05-19T08:08:29Z</time>
      </trkpt>
      <trkpt lat="46.35399" lon="5.94433">
        <ele>1308</ele>
        <time>2012-05-19T08:08:39Z</time>
      </trkpt>
      <trkpt lat="46.35377" lon="5.94431">
        <ele>1307</ele>
        <time>2012-05-19T08:08:49Z</time>
      </trkpt>
      <trkpt lat="46.35355" lon="5.94416">
        <ele>1307</ele>
        <time>2012-05-19T08:09:03Z</time>
      </trkpt>
      <trkpt lat="46.35334" lon="5.94401">
        <ele>1306</ele>
        <time>2012-05-19T08:09:15Z</time>
      </trkpt>
      <trkpt lat="46.35313" lon="5.94384">
        <ele>1306</ele>
        <time>2012-05-19T08:09:25Z</time>
      </trkpt>
      <trkpt lat="46.35293" lon="5.94363">
        <ele>1306</ele>
        <time>2012-05-19T08:09:35Z</time>
      </trkpt>
      <trkpt lat="46.35281" lon="5.94335">
        <ele>1306</ele>
        <time>2012-05-19T08:09:46Z</time>
      </trkpt>
      <trkpt lat="46.35269" lon="5.94307">
        <ele>1309</ele>
        <time>2012-05-19T08:09:56Z</time>
      </trkpt>
      <trkpt lat="46.3525" lon="5.94287">
        <ele>1308</ele>
        <time>2012-05-19T08:10:07Z</time>
      </trkpt>
      <trkpt lat="46.35227" lon="5.94285">
        <ele>1307</ele>
        <time>2012-05-19T08:10:24Z</time>
      </trkpt>
      <trkpt lat="46.35209" lon="5.94264">
        <ele>1307</ele>
        <time>2012-05-19T08:10:39Z</time>
      </trkpt>
      <trkpt lat="46.35197" lon="5.94236">
        <ele>1309</ele>
        <time>2012-05-19T08:10:47Z</time>
      </trkpt>
      <trkpt lat="46.35181" lon="5.9421">
        <ele>1309</ele>
        <time>2012-05-19T08:10:58Z</time>
      </trkpt>
      <trkpt lat="46.35167" lon="5.94184">
        <ele>1308</ele>
        <time>2012-05-19T08:11:07Z</time>
      </trkpt>
      <trkpt lat="46.35162" lon="5.94152">
        <ele>1305</ele>
        <time>2012-05-19T08:11:18Z</time>
      </trkpt>
      <trkpt lat="46.35158" lon="5.9412">
        <ele>1304</ele>
        <time>2012-05-19T08:11:28Z</time>
      </trkpt>
      <trkpt lat="46.35157" lon="5.94086">
        <ele>1304</ele>
        <time>2012-05-19T08:11:38Z</time>
      </trkpt>
      <trkpt lat="46.35158" lon="5.94051">
        <ele>1301</ele>
        <time>2012-05-19T08:11:48Z</time>
      </trkpt>
      <trkpt lat="46.35162" lon="5.94017">
        <ele>1300</ele>
        <time>2012-05-19T08:11:58Z</time>
      </trkpt>
      <trkpt lat="46.35159" lon="5.93985">
        <ele>1300</ele>
        <time>2012-05-19T08:12:07Z</time>
      </trkpt>
      <trkpt lat="46.35148" lon="5.93955">
        <ele>1300</ele>
        <time>2012-05-19T08:12:16Z</time>
      </trkpt>
      <trkpt lat="46.35134" lon="5.93929">
        <ele>1300</ele>
        <time>2012-05-19T08:12:26Z</time>
      </trkpt>
      <trkpt lat="46.35133" lon="5.93893">
        <ele>1303</ele>
        <time>2012-05-19T08:12:38Z</time>
      </trkpt>
      <trkpt lat="46.35139" lon="5.9386">
        <ele>1303</ele>
        <time>2012-05-19T08:12:49Z</time>
      </trkpt>
      <trkpt lat="46.35139" lon="5.93824">
        <ele>1306</ele>
        <time>2012-05-19T08:13:11Z</time>
      </trkpt>
      <trkpt lat="46.35117" lon="5.93811">
        <ele>1306</ele>
        <time>2012-05-19T08:13:23Z</time>
      </trkpt>
      <trkpt lat="46.351" lon="5.9379">
        <ele>1306</ele>
        <time>2012-05-19T08:13:38Z</time>
      </trkpt>
      <trkpt lat="46.35088" lon="5.93762">
        <ele>1308</ele>
        <time>2012-05-19T08:13:58Z</time>
      </trkpt>
      <trkpt lat="46.35072" lon="5.93736">
        <ele>1312</ele>
        <time>2012-05-19T08:14:18Z</time>
      </trkpt>
      <trkpt lat="46.35064" lon="5.93704">
        <ele>1313</ele>
        <time>2012-05-19T08:14:36Z</time>
      </trkpt>
      <trkpt lat="46.3506" lon="5.93672">
        <ele>1314</ele>
        <time>2012-05-19T08:14:54Z</time>
      </trkpt>
      <trkpt lat="46.35056" lon="5.93639">
        <ele>1317</ele>
        <time>2012-05-19T08:15:06Z</time>
      </trkpt>
      <trkpt lat="46.3505" lon="5.93607">
        <ele>1317</ele>
        <time>2012-05-19T08:15:18Z</time>
      </trkpt>
      <trkpt lat="46.35035" lon="5.93579">
        <ele>1320</ele>
        <time>2012-05-19T08:15:29Z</time>
      </trkpt>
      <trkpt lat="46.35015" lon="5.93562">
        <ele>1320</ele>
        <time>2012-05-19T08:15:41Z</time>
      </trkpt>
      <trkpt lat="46.34996" lon="5.93541">
        <ele>1320</ele>
        <time>2012-05-19T08:15:51Z</time>
      </trkpt>
      <trkpt lat="46.34976" lon="5.93524">
        <ele>1320</ele>
        <time>2012-05-19T08:16:00Z</time>
      </trkpt>
      <trkpt lat="46.34961" lon="5.93498">
        <ele>1319</ele>
        <time>2012-05-19T08:16:10Z</time>
      </trkpt>
      <trkpt lat="46.34943" lon="5.93478">
        <ele>1318</ele>
        <time>2012-05-19T08:16:20Z</time>
      </trkpt>
      <trkpt lat="46.34922" lon="5.93461">
        <ele>1318</ele>
        <time>2012-05-19T08:16:30Z</time>
      </trkpt>
      <trkpt lat="46.34901" lon="5.93446">
        <ele>1315</ele>
        <time>2012-05-19T08:16:38Z</time>
      </trkpt>
      <trkpt lat="46.3488" lon="5.93429">
        <ele>1314</ele>
        <time>2012-05-19T08:16:48Z</time>
      </trkpt>
      <trkpt lat="46.34859" lon="5.93414">
        <ele>1312</ele>
        <time>2012-05-19T08:16:58Z</time>
      </trkpt>
      <trkpt lat="46.34839" lon="5.93399">
        <ele>1312</ele>
        <time>2012-05-19T08:17:07Z</time>
      </trkpt>
      <trkpt lat="46.3482" lon="5.93382">
        <ele>1308</ele>
        <time>2012-05-19T08:17:15Z</time>
      </trkpt>
      <trkpt lat="46.34798" lon="5.93365">
        <ele>1308</ele>
        <time>2012-05-19T08:17:25Z</time>
      </trkpt>
      <trkpt lat="46.34779" lon="5.93348">
        <ele>1306</ele>
        <time>2012-05-19T08:17:33Z</time>
      </trkpt>
      <trkpt lat="46.34757" lon="5.9333">
        <ele>1303</ele>
        <time>2012-05-19T08:17:42Z</time>
      </trkpt>
      <trkpt lat="46.34736" lon="5.93318">
        <ele>1301</ele>
        <time>2012-05-19T08:17:53Z</time>
      </trkpt>
      <trkpt lat="46.34713" lon="5.93309">
        <ele>1300</ele>
        <time>2012-05-19T08:18:04Z</time>
      </trkpt>
      <trkpt lat="46.34692" lon="5.93298">
        <ele>1299</ele>
        <time>2012-05-19T08:18:14Z</time>
      </trkpt>
      <trkpt lat="46.34671" lon="5.93285">
        <ele>1298</ele>
        <time>2012-05-19T08:18:24Z</time>
      </trkpt>
      <trkpt lat="46.34652" lon="5.93266">
        <ele>1296</ele>
        <time>2012-05-19T08:18:32Z</time>
      </trkpt>
      <trkpt lat="46.34633" lon="5.93249">
        <ele>1296</ele>
        <time>2012-05-19T08:18:41Z</time>
      </trkpt>
      <trkpt lat="46.34619" lon="5.93223">
        <ele>1295</ele>
        <time>2012-05-19T08:18:52Z</time>
      </trkpt>
      <trkpt lat="46.34603" lon="5.932">
        <ele>1295</ele>
        <time>2012-05-19T08:19:01Z</time>
      </trkpt>
      <trkpt lat="46.34584" lon="5.93178">
        <ele>1293</ele>
        <time>2012-05-19T08:19:10Z</time>
      </trkpt>
      <trkpt lat="46.34563" lon="5.93159">
        <ele>1291</ele>
        <time>2012-05-19T08:19:18Z</time>
      </trkpt>
      <trkpt lat="46.34542" lon="5.93146">
        <ele>1290</ele>
        <time>2012-05-19T08:19:28Z</time>
      </trkpt>
      <trkpt lat="46.34521" lon="5.93127">
        <ele>1289</ele>
        <time>2012-05-19T08:19:38Z</time>
      </trkpt>
      <trkpt lat="46.34498" lon="5.93114">
        <ele>1283</ele>
        <time>2012-05-19T08:19:47Z</time>
      </trkpt>
      <trkpt lat="46.34474" lon="5.93103">
        <ele>1283</ele>
        <time>2012-05-19T08:19:56Z</time>
      </trkpt>
      <trkpt lat="46.34453" lon="5.9309">
        <ele>1281</ele>
        <time>2012-05-19T08:20:05Z</time>
      </trkpt>
      <trkpt lat="46.34442" lon="5.9306">
        <ele>1282</ele>
        <time>2012-05-19T08:20:16Z</time>
      </trkpt>
      <trkpt lat="46.34438" lon="5.93028">
        <ele>1282</ele>
        <time>2012-05-19T08:20:30Z</time>
      </trkpt>
      <trkpt lat="46.34416" lon="5.93017">
        <ele>1278</ele>
        <time>2012-05-19T08:20:50Z</time>
      </trkpt>
      <trkpt lat="46.34432" lon="5.92994">
        <ele>1284</ele>
        <time>2012-05-19T08:21:52Z</time>
      </trkpt>
      <trkpt lat="46.34431" lon="5.92959">
        <ele>1286</ele>
        <time>2012-05-19T08:22:05Z</time>
      </trkpt>
      <trkpt lat="46.34429" lon="5.92925">
        <ele>1287</ele>
        <time>2012-05-19T08:22:22Z</time>
      </trkpt>
      <trkpt lat="46.34426" lon="5.92893">
        <ele>1285</ele>
        <time>2012-05-19T08:22:43Z</time>
      </trkpt>
      <trkpt lat="46.34425" lon="5.92858">
        <ele>1283</ele>
        <time>2012-05-19T08:22:59Z</time>
      </trkpt>
      <trkpt lat="46.34418" lon="5.92824">
        <ele>1280</ele>
        <time>2012-05-19T08:23:10Z</time>
      </trkpt>
      <trkpt lat="46.344" lon="5.928">
        <ele>1277</ele>
        <time>2012-05-19T08:23:19Z</time>
      </trkpt>
      <trkpt lat="46.34387" lon="5.9277">
        <ele>1275</ele>
        <time>2012-05-19T08:23:27Z</time>
      </trkpt>
      <trkpt lat="46.34374" lon="5.92742">
        <ele>1270</ele>
        <time>2012-05-19T08:23:35Z</time>
      </trkpt>
      <trkpt lat="46.34356" lon="5.92723">
        <ele>1269</ele>
        <time>2012-05-19T08:23:43Z</time>
      </trkpt>
      <trkpt lat="46.34359" lon="5.92689">
        <ele>1267</ele>
        <time>2012-05-19T08:23:56Z</time>
      </trkpt>
      <trkpt lat="46.34383" lon="5.92689">
        <ele>1268</ele>
        <time>2012-05-19T08:24:04Z</time>
      </trkpt>
      <trkpt lat="46.34406" lon="5.9268">
        <ele>1268</ele>
        <time>2012-05-19T08:24:13Z</time>
      </trkpt>
      <trkpt lat="46.34394" lon="5.9265">
        <ele>1265</ele>
        <time>2012-05-19T08:24:23Z</time>
      </trkpt>
      <trkpt lat="46.34396" lon="5.92614">
        <ele>1264</ele>
        <time>2012-05-19T08:24:42Z</time>
      </trkpt>
      <trkpt lat="46.344" lon="5.92579">
        <ele>1264</ele>
        <time>2012-05-19T08:24:52Z</time>
      </trkpt>
      <trkpt lat="46.34399" lon="5.92545">
        <ele>1262</ele>
        <time>2012-05-19T08:25:03Z</time>
      </trkpt>
      <trkpt lat="46.34407" lon="5.92513">
        <ele>1262</ele>
        <time>2012-05-19T08:25:12Z</time>
      </trkpt>
      <trkpt lat="46.34418" lon="5.92483">
        <ele>1266</ele>
        <time>2012-05-19T08:25:20Z</time>
      </trkpt>
      <trkpt lat="46.3443" lon="5.92455">
        <ele>1266</ele>
        <time>2012-05-19T08:25:28Z</time>
      </trkpt>
      <trkpt lat="46.34443" lon="5.92427">
        <ele>1266</ele>
        <time>2012-05-19T08:25:37Z</time>
      </trkpt>
      <trkpt lat="46.34455" lon="5.92399">
        <ele>1266</ele>
        <time>2012-05-19T08:25:45Z</time>
      </trkpt>
      <trkpt lat="46.34468" lon="5.92371">
        <ele>1266</ele>
        <time>2012-05-19T08:25:54Z</time>
      </trkpt>
      <trkpt lat="46.3448" lon="5.92343">
        <ele>1266</ele>
        <time>2012-05-19T08:26:06Z</time>
      </trkpt>
      <trkpt lat="46.34494" lon="5.92318">
        <ele>1266</ele>
        <time>2012-05-19T08:26:27Z</time>
      </trkpt>
      <trkpt lat="46.34501" lon="5.92285">
        <ele>1268</ele>
        <time>2012-05-19T08:26:51Z</time>
      </trkpt>
      <trkpt lat="46.3451" lon="5.92255">
        <ele>1267</ele>
        <time>2012-05-19T08:27:08Z</time>
      </trkpt>
      <trkpt lat="46.3453" lon="5.92238">
        <ele>1265</ele>
        <time>2012-05-19T08:27:30Z</time>
      </trkpt>
      <trkpt lat="46.34554" lon="5.9224">
        <ele>1264</ele>
        <time>2012-05-19T08:27:42Z</time>
      </trkpt>
      <trkpt lat="46.34576" lon="5.9224">
        <ele>1265</ele>
        <time>2012-05-19T08:27:53Z</time>
      </trkpt>
      <trkpt lat="46.34595" lon="5.92223">
        <ele>1263</ele>
        <time>2012-05-19T08:28:05Z</time>
      </trkpt>
      <trkpt lat="46.34602" lon="5.92191">
        <ele>1260</ele>
        <time>2012-05-19T08:28:21Z</time>
      </trkpt>
      <trkpt lat="46.34609" lon="5.92159">
        <ele>1252</ele>
        <time>2012-05-19T08:28:33Z</time>
      </trkpt>
      <trkpt lat="46.34624" lon="5.92133">
        <ele>1250</ele>
        <time>2012-05-19T08:28:41Z</time>
      </trkpt>
      <trkpt lat="46.34647" lon="5.9212">
        <ele>1248</ele>
        <time>2012-05-19T08:28:52Z</time>
      </trkpt>
      <trkpt lat="46.34669" lon="5.92125">
        <ele>1243</ele>
        <time>2012-05-19T08:29:02Z</time>
      </trkpt>
      <trkpt lat="46.34691" lon="5.92135">
        <ele>1244</ele>
        <time>2012-05-19T08:29:15Z</time>
      </trkpt>
      <trkpt lat="46.34713" lon="5.92131">
        <ele>1241</ele>
        <time>2012-05-19T08:29:29Z</time>
      </trkpt>
      <trkpt lat="46.34735" lon="5.92116">
        <ele>1238</ele>
        <time>2012-05-19T08:29:41Z</time>
      </trkpt>
      <trkpt lat="46.34759" lon="5.92109">
        <ele>1232</ele>
        <time>2012-05-19T08:29:53Z</time>
      </trkpt>
      <trkpt lat="46.3478" lon="5.92097">
        <ele>1231</ele>
        <time>2012-05-19T08:30:05Z</time>
      </trkpt>
      <trkpt lat="46.34803" lon="5.92086">
        <ele>1231</ele>
        <time>2012-05-19T08:30:16Z</time>
      </trkpt>
      <trkpt lat="46.34826" lon="5.92086">
        <ele>1227</ele>
        <time>2012-05-19T08:30:25Z</time>
      </trkpt>
      <trkpt lat="46.34851" lon="5.92092">
        <ele>1227</ele>
        <time>2012-05-19T08:30:33Z</time>
      </trkpt>
      <trkpt lat="46.34875" lon="5.92094">
        <ele>1226</ele>
        <time>2012-05-19T08:30:41Z</time>
      </trkpt>
      <trkpt lat="46.34899" lon="5.92086">
        <ele>1224</ele>
        <time>2012-05-19T08:30:50Z</time>
      </trkpt>
      <trkpt lat="46.34922" lon="5.92082">
        <ele>1218</ele>
        <time>2012-05-19T08:30:58Z</time>
      </trkpt>
      <trkpt lat="46.34945" lon="5.92077">
        <ele>1214</ele>
        <time>2012-05-19T08:31:12Z</time>
      </trkpt>
      <trkpt lat="46.34969" lon="5.92075">
        <ele>1212</ele>
        <time>2012-05-19T08:31:30Z</time>
      </trkpt>
      <trkpt lat="46.34991" lon="5.92079">
        <ele>1211</ele>
        <time>2012-05-19T08:31:48Z</time>
      </trkpt>
      <trkpt lat="46.35011" lon="5.92097">
        <ele>1212</ele>
        <time>2012-05-19T08:32:02Z</time>
      </trkpt>
      <trkpt lat="46.35032" lon="5.92114">
        <ele>1212</ele>
        <time>2012-05-19T08:32:16Z</time>
      </trkpt>
      <trkpt lat="46.35054" lon="5.92129">
        <ele>1213</ele>
        <time>2012-05-19T08:32:30Z</time>
      </trkpt>
      <trkpt lat="46.35078" lon="5.92131">
        <ele>1212</ele>
        <time>2012-05-19T08:32:44Z</time>
      </trkpt>
      <trkpt lat="46.35101" lon="5.92131">
        <ele>1205</ele>
        <time>2012-05-19T08:32:52Z</time>
      </trkpt>
      <trkpt lat="46.35124" lon="5.92129">
        <ele>1203</ele>
        <time>2012-05-19T08:33:00Z</time>
      </trkpt>
      <trkpt lat="46.35148" lon="5.92118">
        <ele>1201</ele>
        <time>2012-05-19T08:33:09Z</time>
      </trkpt>
      <trkpt lat="46.35169" lon="5.92105">
        <ele>1196</ele>
        <time>2012-05-19T08:33:17Z</time>
      </trkpt>
      <trkpt lat="46.35192" lon="5.92092">
        <ele>1196</ele>
        <time>2012-05-19T08:33:26Z</time>
      </trkpt>
      <trkpt lat="46.35214" lon="5.92075">
        <ele>1195</ele>
        <time>2012-05-19T08:33:35Z</time>
      </trkpt>
      <trkpt lat="46.35233" lon="5.92056">
        <ele>1195</ele>
        <time>2012-05-19T08:33:49Z</time>
      </trkpt>
      <trkpt lat="46.35255" lon="5.92049">
        <ele>1198</ele>
        <time>2012-05-19T08:34:08Z</time>
      </trkpt>
      <trkpt lat="46.35277" lon="5.92037">
        <ele>1198</ele>
        <time>2012-05-19T08:34:24Z</time>
      </trkpt>
      <trkpt lat="46.35282" lon="5.92004">
        <ele>1198</ele>
        <time>2012-05-19T08:34:40Z</time>
      </trkpt>
      <trkpt lat="46.35275" lon="5.91972">
        <ele>1198</ele>
        <time>2012-05-19T08:34:57Z</time>
      </trkpt>
      <trkpt lat="46.35267" lon="5.91938">
        <ele>1198</ele>
        <time>2012-05-19T08:35:12Z</time>
      </trkpt>
      <trkpt lat="46.35265" lon="5.91903">
        <ele>1198</ele>
        <time>2012-05-19T08:35:22Z</time>
      </trkpt>
      <trkpt lat="46.35262" lon="5.91871">
        <ele>1198</ele>
        <time>2012-05-19T08:35:32Z</time>
      </trkpt>
      <trkpt lat="46.35239" lon="5.91861">
        <ele>1197</ele>
        <time>2012-05-19T08:35:46Z</time>
      </trkpt>
      <trkpt lat="46.35218" lon="5.91848">
        <ele>1197</ele>
        <time>2012-05-19T08:35:56Z</time>
      </trkpt>
      <trkpt lat="46.35196" lon="5.91835">
        <ele>1197</ele>
        <time>2012-05-19T08:36:06Z</time>
      </trkpt>
      <trkpt lat="46.35176" lon="5.9182">
        <ele>1198</ele>
        <time>2012-05-19T08:36:15Z</time>
      </trkpt>
      <trkpt lat="46.35158" lon="5.91798">
        <ele>1195</ele>
        <time>2012-05-19T08:36:24Z</time>
      </trkpt>
      <trkpt lat="46.35145" lon="5.9177">
        <ele>1196</ele>
        <time>2012-05-19T08:36:34Z</time>
      </trkpt>
      <trkpt lat="46.35132" lon="5.9174">
        <ele>1197</ele>
        <time>2012-05-19T08:36:44Z</time>
      </trkpt>
      <trkpt lat="46.35115" lon="5.91719">
        <ele>1197</ele>
        <time>2012-05-19T08:36:56Z</time>
      </trkpt>
      <trkpt lat="46.35095" lon="5.91702">
        <ele>1197</ele>
        <time>2012-05-19T08:37:07Z</time>
      </trkpt>
      <trkpt lat="46.35076" lon="5.91685">
        <ele>1196</ele>
        <time>2012-05-19T08:37:18Z</time>
      </trkpt>
      <trkpt lat="46.35058" lon="5.91665">
        <ele>1197</ele>
        <time>2012-05-19T08:37:28Z</time>
      </trkpt>
      <trkpt lat="46.35035" lon="5.91648">
        <ele>1196</ele>
        <time>2012-05-19T08:37:36Z</time>
      </trkpt>
      <trkpt lat="46.35016" lon="5.91631">
        <ele>1196</ele>
        <time>2012-05-19T08:37:44Z</time>
      </trkpt>
      <trkpt lat="46.34997" lon="5.91612">
        <ele>1193</ele>
        <time>2012-05-19T08:37:53Z</time>
      </trkpt>
      <trkpt lat="46.34978" lon="5.9159">
        <ele>1194</ele>
        <time>2012-05-19T08:38:02Z</time>
      </trkpt>
      <trkpt lat="46.34959" lon="5.91571">
        <ele>1194</ele>
        <time>2012-05-19T08:38:11Z</time>
      </trkpt>
      <trkpt lat="46.3494" lon="5.91554">
        <ele>1193</ele>
        <time>2012-05-19T08:38:21Z</time>
      </trkpt>
      <trkpt lat="46.34924" lon="5.91528">
        <ele>1193</ele>
        <time>2012-05-19T08:38:35Z</time>
      </trkpt>
      <trkpt lat="46.34913" lon="5.91498">
        <ele>1194</ele>
        <time>2012-05-19T08:38:44Z</time>
      </trkpt>
      <trkpt lat="46.34898" lon="5.9147">
        <ele>1195</ele>
        <time>2012-05-19T08:38:54Z</time>
      </trkpt>
      <trkpt lat="46.34887" lon="5.9144">
        <ele>1194</ele>
        <time>2012-05-19T08:39:05Z</time>
      </trkpt>
      <trkpt lat="46.34881" lon="5.91408">
        <ele>1191</ele>
        <time>2012-05-19T08:39:15Z</time>
      </trkpt>
      <trkpt lat="46.34878" lon="5.91373">
        <ele>1190</ele>
        <time>2012-05-19T08:39:26Z</time>
      </trkpt>
      <trkpt lat="46.34866" lon="5.91343">
        <ele>1190</ele>
        <time>2012-05-19T08:39:35Z</time>
      </trkpt>
      <trkpt lat="46.34851" lon="5.91318">
        <ele>1188</ele>
        <time>2012-05-19T08:39:45Z</time>
      </trkpt>
      <trkpt lat="46.34834" lon="5.91292">
        <ele>1187</ele>
        <time>2012-05-19T08:39:57Z</time>
      </trkpt>
      <trkpt lat="46.34827" lon="5.91258">
        <ele>1195</ele>
        <time>2012-05-19T08:40:08Z</time>
      </trkpt>
      <trkpt lat="46.3482" lon="5.91223">
        <ele>1198</ele>
        <time>2012-05-19T08:40:18Z</time>
      </trkpt>
      <trkpt lat="46.34807" lon="5.91193">
        <ele>1200</ele>
        <time>2012-05-19T08:40:29Z</time>
      </trkpt>
      <trkpt lat="46.34793" lon="5.91167">
        <ele>1201</ele>
        <time>2012-05-19T08:40:41Z</time>
      </trkpt>
      <trkpt lat="46.3478" lon="5.9114">
        <ele>1202</ele>
        <time>2012-05-19T08:40:58Z</time>
      </trkpt>
      <trkpt lat="46.34775" lon="5.91107">
        <ele>1203</ele>
        <time>2012-05-19T08:41:14Z</time>
      </trkpt>
      <trkpt lat="46.34776" lon="5.91073">
        <ele>1204</ele>
        <time>2012-05-19T08:41:35Z</time>
      </trkpt>
      <trkpt lat="46.34779" lon="5.91041">
        <ele>1203</ele>
        <time>2012-05-19T08:41:58Z</time>
      </trkpt>
      <trkpt lat="46.34785" lon="5.91009">
        <ele>1204</ele>
        <time>2012-05-19T08:42:20Z</time>
      </trkpt>
      <trkpt lat="46.34784" lon="5.90974">
        <ele>1206</ele>
        <time>2012-05-19T08:42:38Z</time>
      </trkpt>
      <trkpt lat="46.34768" lon="5.90949">
        <ele>1207</ele>
        <time>2012-05-19T08:42:52Z</time>
      </trkpt>
      <trkpt lat="46.34754" lon="5.90921">
        <ele>1209</ele>
        <time>2012-05-19T08:43:03Z</time>
      </trkpt>
      <trkpt lat="46.34737" lon="5.90899">
        <ele>1213</ele>
        <time>2012-05-19T08:43:18Z</time>
      </trkpt>
      <trkpt lat="46.34721" lon="5.90876">
        <ele>1214</ele>
        <time>2012-05-19T08:43:35Z</time>
      </trkpt>
      <trkpt lat="46.34702" lon="5.90856">
        <ele>1215</ele>
        <time>2012-05-19T08:43:53Z</time>
      </trkpt>
      <trkpt lat="46.3468" lon="5.90846">
        <ele>1218</ele>
        <time>2012-05-19T08:44:07Z</time>
      </trkpt>
      <trkpt lat="46.34661" lon="5.90826">
        <ele>1222</ele>
        <time>2012-05-19T08:44:25Z</time>
      </trkpt>
      <trkpt lat="46.34643" lon="5.90807">
        <ele>1223</ele>
        <time>2012-05-19T08:44:50Z</time>
      </trkpt>
      <trkpt lat="46.34631" lon="5.90779">
        <ele>1223</ele>
        <time>2012-05-19T08:45:03Z</time>
      </trkpt>
      <trkpt lat="46.34627" lon="5.90747">
        <ele>1217</ele>
        <time>2012-05-19T08:45:15Z</time>
      </trkpt>
      <trkpt lat="46.34613" lon="5.90721">
        <ele>1216</ele>
        <time>2012-05-19T08:45:29Z</time>
      </trkpt>
      <trkpt lat="46.34595" lon="5.90698">
        <ele>1214</ele>
        <time>2012-05-19T08:45:40Z</time>
      </trkpt>
      <trkpt lat="46.34575" lon="5.9068">
        <ele>1215</ele>
        <time>2012-05-19T08:45:48Z</time>
      </trkpt>
      <trkpt lat="46.34553" lon="5.90668">
        <ele>1216</ele>
        <time>2012-05-19T08:46:02Z</time>
      </trkpt>
      <trkpt lat="46.34529" lon="5.90655">
        <ele>1208</ele>
        <time>2012-05-19T08:46:13Z</time>
      </trkpt>
      <trkpt lat="46.3451" lon="5.90637">
        <ele>1207</ele>
        <time>2012-05-19T08:46:26Z</time>
      </trkpt>
      <trkpt lat="46.34487" lon="5.90622">
        <ele>1207</ele>
        <time>2012-05-19T08:46:35Z</time>
      </trkpt>
      <trkpt lat="46.34465" lon="5.90607">
        <ele>1206</ele>
        <time>2012-05-19T08:46:45Z</time>
      </trkpt>
      <trkpt lat="46.34442" lon="5.90592">
        <ele>1205</ele>
        <time>2012-05-19T08:46:54Z</time>
      </trkpt>
      <trkpt lat="46.34425" lon="5.90569">
        <ele>1197</ele>
        <time>2012-05-19T08:47:03Z</time>
      </trkpt>
      <trkpt lat="46.34414" lon="5.90539">
        <ele>1193</ele>
        <time>2012-05-19T08:47:11Z</time>
      </trkpt>
      <trkpt lat="46.34414" lon="5.90502">
        <ele>1188</ele>
        <time>2012-05-19T08:47:19Z</time>
      </trkpt>
      <trkpt lat="46.34423" lon="5.9047">
        <ele>1185</ele>
        <time>2012-05-19T08:47:29Z</time>
      </trkpt>
      <trkpt lat="46.34419" lon="5.90438">
        <ele>1183</ele>
        <time>2012-05-19T08:47:47Z</time>
      </trkpt>
      <trkpt lat="46.34426" lon="5.90406">
        <ele>1180</ele>
        <time>2012-05-19T08:48:00Z</time>
      </trkpt>
      <trkpt lat="46.34422" lon="5.90374">
        <ele>1178</ele>
        <time>2012-05-19T08:48:07Z</time>
      </trkpt>
      <trkpt lat="46.34415" lon="5.90341">
        <ele>1175</ele>
        <time>2012-05-19T08:48:16Z</time>
      </trkpt>
      <trkpt lat="46.34407" lon="5.90311">
        <ele>1172</ele>
        <time>2012-05-19T08:48:24Z</time>
      </trkpt>
      <trkpt lat="46.34393" lon="5.90283">
        <ele>1171</ele>
        <time>2012-05-19T08:48:33Z</time>
      </trkpt>
      <trkpt lat="46.34381" lon="5.90256">
        <ele>1170</ele>
        <time>2012-05-19T08:48:44Z</time>
      </trkpt>
      <trkpt lat="46.34381" lon="5.90221">
        <ele>1168</ele>
        <time>2012-05-19T08:50:26Z</time>
      </trkpt>
      <trkpt lat="46.34382" lon="5.90185">
        <ele>1168</ele>
        <time>2012-05-19T08:50:37Z</time>
      </trkpt>
      <trkpt lat="46.34381" lon="5.90148">
        <ele>1168</ele>
        <time>2012-05-19T08:50:47Z</time>
      </trkpt>
      <trkpt lat="46.3437" lon="5.90118">
        <ele>1167</ele>
        <time>2012-05-19T08:50:56Z</time>
      </trkpt>
      <trkpt lat="46.34357" lon="5.90088">
        <ele>1164</ele>
        <time>2012-05-19T08:51:05Z</time>
      </trkpt>
      <trkpt lat="46.34353" lon="5.90054">
        <ele>1165</ele>
        <time>2012-05-19T08:51:15Z</time>
      </trkpt>
      <trkpt lat="46.3435" lon="5.90022">
        <ele>1165</ele>
        <time>2012-05-19T08:51:24Z</time>
      </trkpt>
      <trkpt lat="46.34334" lon="5.89994">
        <ele>1162</ele>
        <time>2012-05-19T08:51:35Z</time>
      </trkpt>
      <trkpt lat="46.34313" lon="5.89979">
        <ele>1158</ele>
        <time>2012-05-19T08:51:45Z</time>
      </trkpt>
      <trkpt lat="46.34291" lon="5.89972">
        <ele>1156</ele>
        <time>2012-05-19T08:51:54Z</time>
      </trkpt>
      <trkpt lat="46.34268" lon="5.89966">
        <ele>1155</ele>
        <time>2012-05-19T08:52:03Z</time>
      </trkpt>
      <trkpt lat="46.34265" lon="5.9">
        <ele>1153</ele>
        <time>2012-05-19T08:52:12Z</time>
      </trkpt>
      <trkpt lat="46.3426" lon="5.90032">
        <ele>1153</ele>
        <time>2012-05-19T08:52:22Z</time>
      </trkpt>
      <trkpt lat="46.34237" lon="5.90039">
        <ele>1148</ele>
        <time>2012-05-19T08:52:31Z</time>
      </trkpt>
      <trkpt lat="46.34215" lon="5.90037">
        <ele>1147</ele>
        <time>2012-05-19T08:52:39Z</time>
      </trkpt>
      <trkpt lat="46.34192" lon="5.90041">
        <ele>1147</ele>
        <time>2012-05-19T08:52:48Z</time>
      </trkpt>
      <trkpt lat="46.3417" lon="5.90054">
        <ele>1146</ele>
        <time>2012-05-19T08:52:58Z</time>
      </trkpt>
      <trkpt lat="46.34147" lon="5.90065">
        <ele>1143</ele>
        <time>2012-05-19T08:53:08Z</time>
      </trkpt>
      <trkpt lat="46.34124" lon="5.90065">
        <ele>1142</ele>
        <time>2012-05-19T08:53:17Z</time>
      </trkpt>
      <trkpt lat="46.34101" lon="5.90073">
        <ele>1142</ele>
        <time>2012-05-19T08:53:27Z</time>
      </trkpt>
      <trkpt lat="46.34079" lon="5.90088">
        <ele>1141</ele>
        <time>2012-05-19T08:53:40Z</time>
      </trkpt>
      <trkpt lat="46.3406" lon="5.90105">
        <ele>1143</ele>
        <time>2012-05-19T08:53:50Z</time>
      </trkpt>
      <trkpt lat="46.3404" lon="5.90123">
        <ele>1143</ele>
        <time>2012-05-19T08:54:00Z</time>
      </trkpt>
      <trkpt lat="46.3402" lon="5.90142">
        <ele>1143</ele>
        <time>2012-05-19T08:54:09Z</time>
      </trkpt>
      <trkpt lat="46.33999" lon="5.90159">
        <ele>1142</ele>
        <time>2012-05-19T08:54:18Z</time>
      </trkpt>
      <trkpt lat="46.33977" lon="5.9017">
        <ele>1143</ele>
        <time>2012-05-19T08:54:27Z</time>
      </trkpt>
      <trkpt lat="46.33954" lon="5.90172">
        <ele>1143</ele>
        <time>2012-05-19T08:54:36Z</time>
      </trkpt>
      <trkpt lat="46.3394" lon="5.90144">
        <ele>1140</ele>
        <time>2012-05-19T08:54:47Z</time>
      </trkpt>
      <trkpt lat="46.33943" lon="5.90112">
        <ele>1139</ele>
        <time>2012-05-19T08:54:57Z</time>
      </trkpt>
      <trkpt lat="46.3395" lon="5.9008">
        <ele>1137</ele>
        <time>2012-05-19T08:55:07Z</time>
      </trkpt>
      <trkpt lat="46.33953" lon="5.90045">
        <ele>1137</ele>
        <time>2012-05-19T08:55:17Z</time>
      </trkpt>
      <trkpt lat="46.33956" lon="5.90011">
        <ele>1137</ele>
        <time>2012-05-19T08:55:27Z</time>
      </trkpt>
      <trkpt lat="46.3396" lon="5.89979">
        <ele>1135</ele>
        <time>2012-05-19T08:55:36Z</time>
      </trkpt>
      <trkpt lat="46.33965" lon="5.89947">
        <ele>1135</ele>
        <time>2012-05-19T08:55:45Z</time>
      </trkpt>
      <trkpt lat="46.33967" lon="5.89912">
        <ele>1134</ele>
        <time>2012-05-19T08:55:58Z</time>
      </trkpt>
      <trkpt lat="46.33974" lon="5.8988">
        <ele>1134</ele>
        <time>2012-05-19T08:56:10Z</time>
      </trkpt>
      <trkpt lat="46.33982" lon="5.89848">
        <ele>1133</ele>
        <time>2012-05-19T08:56:20Z</time>
      </trkpt>
      <trkpt lat="46.33987" lon="5.89814">
        <ele>1132</ele>
        <time>2012-05-19T08:56:30Z</time>
      </trkpt>
      <trkpt lat="46.33988" lon="5.89779">
        <ele>1131</ele>
        <time>2012-05-19T08:56:40Z</time>
      </trkpt>
      <trkpt lat="46.33982" lon="5.89745">
        <ele>1131</ele>
        <time>2012-05-19T08:56:50Z</time>
      </trkpt>
      <trkpt lat="46.33975" lon="5.89713">
        <ele>1132</ele>
        <time>2012-05-19T08:57:07Z</time>
      </trkpt>
      <trkpt lat="46.33964" lon="5.89683">
        <ele>1132</ele>
        <time>2012-05-19T08:57:23Z</time>
      </trkpt>
      <trkpt lat="46.33952" lon="5.89653">
        <ele>1134</ele>
        <time>2012-05-19T08:57:31Z</time>
      </trkpt>
      <trkpt lat="46.33944" lon="5.8962">
        <ele>1134</ele>
        <time>2012-05-19T08:57:41Z</time>
      </trkpt>
      <trkpt lat="46.33939" lon="5.89586">
        <ele>1135</ele>
        <time>2012-05-19T08:57:50Z</time>
      </trkpt>
      <trkpt lat="46.33917" lon="5.89575">
        <ele>1136</ele>
        <time>2012-05-19T08:58:27Z</time>
      </trkpt>
      <trkpt lat="46.33897" lon="5.8959">
        <ele>1142</ele>
        <time>2012-05-19T08:58:53Z</time>
      </trkpt>
      <trkpt lat="46.33874" lon="5.89597">
        <ele>1144</ele>
        <time>2012-05-19T08:59:07Z</time>
      </trkpt>
      <trkpt lat="46.33852" lon="5.89599">
        <ele>1147</ele>
        <time>2012-05-19T08:59:25Z</time>
      </trkpt>
      <trkpt lat="46.33829" lon="5.89593">
        <ele>1151</ele>
        <time>2012-05-19T08:59:40Z</time>
      </trkpt>
      <trkpt lat="46.33807" lon="5.89586">
        <ele>1151</ele>
        <time>2012-05-19T08:59:55Z</time>
      </trkpt>
      <trkpt lat="46.33786" lon="5.89571">
        <ele>1152</ele>
        <time>2012-05-19T09:00:19Z</time>
      </trkpt>
      <trkpt lat="46.33776" lon="5.89541">
        <ele>1151</ele>
        <time>2012-05-19T09:00:34Z</time>
      </trkpt>
      <trkpt lat="46.33754" lon="5.89524">
        <ele>1152</ele>
        <time>2012-05-19T09:00:51Z</time>
      </trkpt>
      <trkpt lat="46.33735" lon="5.89507">
        <ele>1157</ele>
        <time>2012-05-19T09:01:05Z</time>
      </trkpt>
      <trkpt lat="46.33716" lon="5.89487">
        <ele>1154</ele>
        <time>2012-05-19T09:01:20Z</time>
      </trkpt>
      <trkpt lat="46.33696" lon="5.8947">
        <ele>1155</ele>
        <time>2012-05-19T09:01:35Z</time>
      </trkpt>
      <trkpt lat="46.33674" lon="5.89462">
        <ele>1155</ele>
        <time>2012-05-19T09:01:52Z</time>
      </trkpt>
      <trkpt lat="46.33652" lon="5.89449">
        <ele>1160</ele>
        <time>2012-05-19T09:02:06Z</time>
      </trkpt>
      <trkpt lat="46.3363" lon="5.89436">
        <ele>1160</ele>
        <time>2012-05-19T09:02:18Z</time>
      </trkpt>
      <trkpt lat="46.33607" lon="5.89425">
        <ele>1161</ele>
        <time>2012-05-19T09:02:31Z</time>
      </trkpt>
      <trkpt lat="46.33586" lon="5.8941">
        <ele>1157</ele>
        <time>2012-05-19T09:02:42Z</time>
      </trkpt>
      <trkpt lat="46.33568" lon="5.89391">
        <ele>1156</ele>
        <time>2012-05-19T09:02:53Z</time>
      </trkpt>
      <trkpt lat="46.33548" lon="5.89374">
        <ele>1155</ele>
        <time>2012-05-19T09:03:03Z</time>
      </trkpt>
      <trkpt lat="46.33529" lon="5.89356">
        <ele>1155</ele>
        <time>2012-05-19T09:03:14Z</time>
      </trkpt>
      <trkpt lat="46.33512" lon="5.89333">
        <ele>1150</ele>
        <time>2012-05-19T09:03:28Z</time>
      </trkpt>
      <trkpt lat="46.33489" lon="5.89316">
        <ele>1149</ele>
        <time>2012-05-19T09:03:38Z</time>
      </trkpt>
      <trkpt lat="46.33468" lon="5.89305">
        <ele>1146</ele>
        <time>2012-05-19T09:03:48Z</time>
      </trkpt>
      <trkpt lat="46.33444" lon="5.89303">
        <ele>1146</ele>
        <time>2012-05-19T09:04:00Z</time>
      </trkpt>
      <trkpt lat="46.33421" lon="5.89303">
        <ele>1146</ele>
        <time>2012-05-19T09:04:12Z</time>
      </trkpt>
      <trkpt lat="46.33398" lon="5.89318">
        <ele>1141</ele>
        <time>2012-05-19T09:04:24Z</time>
      </trkpt>
      <trkpt lat="46.33378" lon="5.89337">
        <ele>1143</ele>
        <time>2012-05-19T09:04:34Z</time>
      </trkpt>
      <trkpt lat="46.33358" lon="5.89354">
        <ele>1140</ele>
        <time>2012-05-19T09:04:47Z</time>
      </trkpt>
      <trkpt lat="46.33341" lon="5.89376">
        <ele>1139</ele>
        <time>2012-05-19T09:04:59Z</time>
      </trkpt>
      <trkpt lat="46.33347" lon="5.89408">
        <ele>1136</ele>
        <time>2012-05-19T09:05:15Z</time>
      </trkpt>
      <trkpt lat="46.33356" lon="5.89438">
        <ele>1134</ele>
        <time>2012-05-19T09:05:26Z</time>
      </trkpt>
      <trkpt lat="46.33365" lon="5.8947">
        <ele>1132</ele>
        <time>2012-05-19T09:05:37Z</time>
      </trkpt>
      <trkpt lat="46.33377" lon="5.895">
        <ele>1124</ele>
        <time>2012-05-19T09:05:52Z</time>
      </trkpt>
      <trkpt lat="46.33392" lon="5.89526">
        <ele>1125</ele>
        <time>2012-05-19T09:06:07Z</time>
      </trkpt>
      <trkpt lat="46.33382" lon="5.89556">
        <ele>1121</ele>
        <time>2012-05-19T09:06:21Z</time>
      </trkpt>
      <trkpt lat="46.33368" lon="5.89584">
        <ele>1114</ele>
        <time>2012-05-19T09:06:41Z</time>
      </trkpt>
      <trkpt lat="46.33347" lon="5.89595">
        <ele>1113</ele>
        <time>2012-05-19T09:07:06Z</time>
      </trkpt>
      <trkpt lat="46.33323" lon="5.89603">
        <ele>1116</ele>
        <time>2012-05-19T09:07:22Z</time>
      </trkpt>
      <trkpt lat="46.33299" lon="5.89601">
        <ele>1119</ele>
        <time>2012-05-19T09:07:39Z</time>
      </trkpt>
      <trkpt lat="46.33278" lon="5.8959">
        <ele>1122</ele>
        <time>2012-05-19T09:07:55Z</time>
      </trkpt>
      <trkpt lat="46.3326" lon="5.89571">
        <ele>1126</ele>
        <time>2012-05-19T09:08:15Z</time>
      </trkpt>
      <trkpt lat="46.33237" lon="5.89556">
        <ele>1132</ele>
        <time>2012-05-19T09:08:35Z</time>
      </trkpt>
      <trkpt lat="46.33215" lon="5.89545">
        <ele>1134</ele>
        <time>2012-05-19T09:08:51Z</time>
      </trkpt>
      <trkpt lat="46.33193" lon="5.89535">
        <ele>1135</ele>
        <time>2012-05-19T09:09:11Z</time>
      </trkpt>
      <trkpt lat="46.33171" lon="5.89535">
        <ele>1137</ele>
        <time>2012-05-19T09:09:36Z</time>
      </trkpt>
      <trkpt lat="46.33147" lon="5.89526">
        <ele>1142</ele>
        <time>2012-05-19T09:09:49Z</time>
      </trkpt>
      <trkpt lat="46.33123" lon="5.89515">
        <ele>1143</ele>
        <time>2012-05-19T09:10:00Z</time>
      </trkpt>
      <trkpt lat="46.33104" lon="5.89494">
        <ele>1144</ele>
        <time>2012-05-19T09:10:14Z</time>
      </trkpt>
      <trkpt lat="46.33087" lon="5.89472">
        <ele>1144</ele>
        <time>2012-05-19T09:10:28Z</time>
      </trkpt>
      <trkpt lat="46.33069" lon="5.89451">
        <ele>1150</ele>
        <time>2012-05-19T09:10:45Z</time>
      </trkpt>
      <trkpt lat="46.33049" lon="5.89434">
        <ele>1151</ele>
        <time>2012-05-19T09:11:03Z</time>
      </trkpt>
      <trkpt lat="46.33032" lon="5.89412">
        <ele>1155</ele>
        <time>2012-05-19T09:11:22Z</time>
      </trkpt>
      <trkpt lat="46.33018" lon="5.89387">
        <ele>1155</ele>
        <time>2012-05-19T09:11:42Z</time>
      </trkpt>
      <trkpt lat="46.33009" lon="5.89356">
        <ele>1156</ele>
        <time>2012-05-19T09:12:02Z</time>
      </trkpt>
      <trkpt lat="46.32996" lon="5.89329">
        <ele>1161</ele>
        <time>2012-05-19T09:12:18Z</time>
      </trkpt>
      <trkpt lat="46.32988" lon="5.89296">
        <ele>1163</ele>
        <time>2012-05-19T09:12:33Z</time>
      </trkpt>
      <trkpt lat="46.3298" lon="5.89266">
        <ele>1163</ele>
        <time>2012-05-19T09:12:51Z</time>
      </trkpt>
      <trkpt lat="46.32963" lon="5.89241">
        <ele>1164</ele>
        <time>2012-05-19T09:13:10Z</time>
      </trkpt>
      <trkpt lat="46.32945" lon="5.89219">
        <ele>1165</ele>
        <time>2012-05-19T09:13:20Z</time>
      </trkpt>
      <trkpt lat="46.32931" lon="5.89191">
        <ele>1165</ele>
        <time>2012-05-19T09:13:31Z</time>
      </trkpt>
      <trkpt lat="46.32917" lon="5.89163">
        <ele>1165</ele>
        <time>2012-05-19T09:13:45Z</time>
      </trkpt>
      <trkpt lat="46.32897" lon="5.89148">
        <ele>1165</ele>
        <time>2012-05-19T09:14:03Z</time>
      </trkpt>
      <trkpt lat="46.32881" lon="5.89125">
        <ele>1164</ele>
        <time>2012-05-19T09:14:13Z</time>
      </trkpt>
      <trkpt lat="46.32858" lon="5.8912">
        <ele>1164</ele>
        <time>2012-05-19T09:14:24Z</time>
      </trkpt>
      <trkpt lat="46.32835" lon="5.89116">
        <ele>1165</ele>
        <time>2012-05-19T09:14:35Z</time>
      </trkpt>
      <trkpt lat="46.32811" lon="5.89108">
        <ele>1163</ele>
        <time>2012-05-19T09:14:46Z</time>
      </trkpt>
      <trkpt lat="46.32789" lon="5.8912">
        <ele>1162</ele>
        <time>2012-05-19T09:15:00Z</time>
      </trkpt>
      <trkpt lat="46.32766" lon="5.89127">
        <ele>1161</ele>
        <time>2012-05-19T09:15:12Z</time>
      </trkpt>
      <trkpt lat="46.32743" lon="5.89138">
        <ele>1156</ele>
        <time>2012-05-19T09:15:23Z</time>
      </trkpt>
      <trkpt lat="46.32719" lon="5.89146">
        <ele>1156</ele>
        <time>2012-05-19T09:15:34Z</time>
      </trkpt>
      <trkpt lat="46.32696" lon="5.89148">
        <ele>1155</ele>
        <time>2012-05-19T09:15:43Z</time>
      </trkpt>
      <trkpt lat="46.32675" lon="5.89131">
        <ele>1154</ele>
        <time>2012-05-19T09:15:53Z</time>
      </trkpt>
      <trkpt lat="46.32652" lon="5.89116">
        <ele>1150</ele>
        <time>2012-05-19T09:16:02Z</time>
      </trkpt>
      <trkpt lat="46.3263" lon="5.89108">
        <ele>1149</ele>
        <time>2012-05-19T09:16:11Z</time>
      </trkpt>
      <trkpt lat="46.32607" lon="5.8911">
        <ele>1148</ele>
        <time>2012-05-19T09:16:21Z</time>
      </trkpt>
      <trkpt lat="46.32585" lon="5.89125">
        <ele>1147</ele>
        <time>2012-05-19T09:16:31Z</time>
      </trkpt>
      <trkpt lat="46.32562" lon="5.89133">
        <ele>1145</ele>
        <time>2012-05-19T09:16:39Z</time>
      </trkpt>
      <trkpt lat="46.3254" lon="5.89133">
        <ele>1145</ele>
        <time>2012-05-19T09:16:49Z</time>
      </trkpt>
      <trkpt lat="46.32517" lon="5.89135">
        <ele>1145</ele>
        <time>2012-05-19T09:17:00Z</time>
      </trkpt>
      <trkpt lat="46.32514" lon="5.89103">
        <ele>1144</ele>
        <time>2012-05-19T09:17:33Z</time>
      </trkpt>
      <trkpt lat="46.32525" lon="5.89073">
        <ele>1146</ele>
        <time>2012-05-19T09:17:49Z</time>
      </trkpt>
      <trkpt lat="46.32541" lon="5.8905">
        <ele>1147</ele>
        <time>2012-05-19T09:18:01Z</time>
      </trkpt>
      <trkpt lat="46.32558" lon="5.89028">
        <ele>1149</ele>
        <time>2012-05-19T09:18:18Z</time>
      </trkpt>
      <trkpt lat="46.32576" lon="5.89009">
        <ele>1150</ele>
        <time>2012-05-19T09:18:34Z</time>
      </trkpt>
      <trkpt lat="46.32593" lon="5.88985">
        <ele>1155</ele>
        <time>2012-05-19T09:18:48Z</time>
      </trkpt>
      <trkpt lat="46.32603" lon="5.88955">
        <ele>1157</ele>
        <time>2012-05-19T09:18:57Z</time>
      </trkpt>
      <trkpt lat="46.32613" lon="5.88925">
        <ele>1157</ele>
        <time>2012-05-19T09:19:06Z</time>
      </trkpt>
      <trkpt lat="46.32627" lon="5.88895">
        <ele>1156</ele>
        <time>2012-05-19T09:19:16Z</time>
      </trkpt>
      <trkpt lat="46.3264" lon="5.88865">
        <ele>1154</ele>
        <time>2012-05-19T09:19:26Z</time>
      </trkpt>
      <trkpt lat="46.32655" lon="5.88839">
        <ele>1148</ele>
        <time>2012-05-19T09:19:35Z</time>
      </trkpt>
      <trkpt lat="46.32669" lon="5.88814">
        <ele>1138</ele>
        <time>2012-05-19T09:19:43Z</time>
      </trkpt>
      <trkpt lat="46.32682" lon="5.88786">
        <ele>1136</ele>
        <time>2012-05-19T09:19:51Z</time>
      </trkpt>
      <trkpt lat="46.32699" lon="5.8876">
        <ele>1135</ele>
        <time>2012-05-19T09:20:00Z</time>
      </trkpt>
      <trkpt lat="46.32717" lon="5.88736">
        <ele>1132</ele>
        <time>2012-05-19T09:20:08Z</time>
      </trkpt>
      <trkpt lat="46.32735" lon="5.88713">
        <ele>1132</ele>
        <time>2012-05-19T09:20:16Z</time>
      </trkpt>
      <trkpt lat="46.32753" lon="5.88691">
        <ele>1131</ele>
        <time>2012-05-19T09:20:25Z</time>
      </trkpt>
      <trkpt lat="46.32769" lon="5.88668">
        <ele>1131</ele>
        <time>2012-05-19T09:20:42Z</time>
      </trkpt>
      <trkpt lat="46.32787" lon="5.88644">
        <ele>1135</ele>
        <time>2012-05-19T09:20:58Z</time>
      </trkpt>
      <trkpt lat="46.32804" lon="5.8862">
        <ele>1136</ele>
        <time>2012-05-19T09:21:16Z</time>
      </trkpt>
      <trkpt lat="46.3281" lon="5.88588">
        <ele>1138</ele>
        <time>2012-05-19T09:21:32Z</time>
      </trkpt>
      <trkpt lat="46.32813" lon="5.88556">
        <ele>1143</ele>
        <time>2012-05-19T09:21:49Z</time>
      </trkpt>
      <trkpt lat="46.32817" lon="5.88524">
        <ele>1145</ele>
        <time>2012-05-19T09:22:06Z</time>
      </trkpt>
      <trkpt lat="46.32827" lon="5.88494">
        <ele>1150</ele>
        <time>2012-05-19T09:22:20Z</time>
      </trkpt>
      <trkpt lat="46.32841" lon="5.88466">
        <ele>1150</ele>
        <time>2012-05-19T09:22:33Z</time>
      </trkpt>
      <trkpt lat="46.3285" lon="5.88434">
        <ele>1152</ele>
        <time>2012-05-19T09:22:49Z</time>
      </trkpt>
      <trkpt lat="46.32839" lon="5.88404">
        <ele>1157</ele>
        <time>2012-05-19T09:23:05Z</time>
      </trkpt>
      <trkpt lat="46.32825" lon="5.88378">
        <ele>1160</ele>
        <time>2012-05-19T09:23:21Z</time>
      </trkpt>
      <trkpt lat="46.3282" lon="5.88346">
        <ele>1164</ele>
        <time>2012-05-19T09:23:37Z</time>
      </trkpt>
      <trkpt lat="46.32839" lon="5.88329">
        <ele>1168</ele>
        <time>2012-05-19T09:23:57Z</time>
      </trkpt>
      <trkpt lat="46.32862" lon="5.88335">
        <ele>1163</ele>
        <time>2012-05-19T09:24:14Z</time>
      </trkpt>
      <trkpt lat="46.32885" lon="5.88335">
        <ele>1162</ele>
        <time>2012-05-19T09:24:30Z</time>
      </trkpt>
      <trkpt lat="46.32908" lon="5.88339">
        <ele>1163</ele>
        <time>2012-05-19T09:24:45Z</time>
      </trkpt>
      <trkpt lat="46.32931" lon="5.88344">
        <ele>1163</ele>
        <time>2012-05-19T09:24:59Z</time>
      </trkpt>
      <trkpt lat="46.32954" lon="5.88344">
        <ele>1163</ele>
        <time>2012-05-19T09:25:14Z</time>
      </trkpt>
      <trkpt lat="46.32975" lon="5.88333">
        <ele>1173</ele>
        <time>2012-05-19T09:25:29Z</time>
      </trkpt>
      <trkpt lat="46.32999" lon="5.88333">
        <ele>1171</ele>
        <time>2012-05-19T09:25:44Z</time>
      </trkpt>
      <trkpt lat="46.33022" lon="5.88337">
        <ele>1169</ele>
        <time>2012-05-19T09:26:00Z</time>
      </trkpt>
      <trkpt lat="46.33044" lon="5.88335">
        <ele>1170</ele>
        <time>2012-05-19T09:26:16Z</time>
      </trkpt>
      <trkpt lat="46.33067" lon="5.88335">
        <ele>1172</ele>
        <time>2012-05-19T09:26:32Z</time>
      </trkpt>
      <trkpt lat="46.33089" lon="5.88324">
        <ele>1180</ele>
        <time>2012-05-19T09:26:48Z</time>
      </trkpt>
      <trkpt lat="46.33111" lon="5.88311">
        <ele>1183</ele>
        <time>2012-05-19T09:27:04Z</time>
      </trkpt>
      <trkpt lat="46.33131" lon="5.88296">
        <ele>1184</ele>
        <time>2012-05-19T09:27:18Z</time>
      </trkpt>
      <trkpt lat="46.33117" lon="5.88271">
        <ele>1186</ele>
        <time>2012-05-19T09:28:15Z</time>
      </trkpt>
      <trkpt lat="46.33094" lon="5.88262">
        <ele>1188</ele>
        <time>2012-05-19T09:28:31Z</time>
      </trkpt>
      <trkpt lat="46.33073" lon="5.88249">
        <ele>1193</ele>
        <time>2012-05-19T09:28:46Z</time>
      </trkpt>
      <trkpt lat="46.3305" lon="5.88236">
        <ele>1194</ele>
        <time>2012-05-19T09:29:02Z</time>
      </trkpt>
      <trkpt lat="46.33029" lon="5.88226">
        <ele>1195</ele>
        <time>2012-05-19T09:29:19Z</time>
      </trkpt>
      <trkpt lat="46.33012" lon="5.88202">
        <ele>1197</ele>
        <time>2012-05-19T09:29:33Z</time>
      </trkpt>
      <trkpt lat="46.32993" lon="5.88185">
        <ele>1196</ele>
        <time>2012-05-19T09:29:49Z</time>
      </trkpt>
      <trkpt lat="46.32974" lon="5.88166">
        <ele>1200</ele>
        <time>2012-05-19T09:30:08Z</time>
      </trkpt>
      <trkpt lat="46.32958" lon="5.8814">
        <ele>1200</ele>
        <time>2012-05-19T09:30:25Z</time>
      </trkpt>
      <trkpt lat="46.32944" lon="5.88114">
        <ele>1200</ele>
        <time>2012-05-19T09:30:35Z</time>
      </trkpt>
      <trkpt lat="46.32937" lon="5.88082">
        <ele>1203</ele>
        <time>2012-05-19T09:30:46Z</time>
      </trkpt>
      <trkpt lat="46.32934" lon="5.8805">
        <ele>1203</ele>
        <time>2012-05-19T09:30:57Z</time>
      </trkpt>
      <trkpt lat="46.32931" lon="5.88015">
        <ele>1204</ele>
        <time>2012-05-19T09:31:08Z</time>
      </trkpt>
      <trkpt lat="46.32919" lon="5.87987">
        <ele>1204</ele>
        <time>2012-05-19T09:31:19Z</time>
      </trkpt>
      <trkpt lat="46.32906" lon="5.8796">
        <ele>1205</ele>
        <time>2012-05-19T09:31:36Z</time>
      </trkpt>
      <trkpt lat="46.32885" lon="5.87945">
        <ele>1205</ele>
        <time>2012-05-19T09:31:56Z</time>
      </trkpt>
      <trkpt lat="46.32865" lon="5.87927">
        <ele>1206</ele>
        <time>2012-05-19T09:32:11Z</time>
      </trkpt>
      <trkpt lat="46.32842" lon="5.87923">
        <ele>1206</ele>
        <time>2012-05-19T09:32:26Z</time>
      </trkpt>
      <trkpt lat="46.3282" lon="5.87919">
        <ele>1208</ele>
        <time>2012-05-19T09:32:44Z</time>
      </trkpt>
      <trkpt lat="46.32797" lon="5.87915">
        <ele>1206</ele>
        <time>2012-05-19T09:33:01Z</time>
      </trkpt>
      <trkpt lat="46.32775" lon="5.87908">
        <ele>1207</ele>
        <time>2012-05-19T09:33:19Z</time>
      </trkpt>
      <trkpt lat="46.32752" lon="5.87897">
        <ele>1207</ele>
        <time>2012-05-19T09:33:30Z</time>
      </trkpt>
      <trkpt lat="46.32728" lon="5.87889">
        <ele>1208</ele>
        <time>2012-05-19T09:33:37Z</time>
      </trkpt>
      <trkpt lat="46.32706" lon="5.87878">
        <ele>1208</ele>
        <time>2012-05-19T09:33:44Z</time>
      </trkpt>
      <trkpt lat="46.32686" lon="5.87859">
        <ele>1207</ele>
        <time>2012-05-19T09:33:54Z</time>
      </trkpt>
      <trkpt lat="46.32665" lon="5.87842">
        <ele>1208</ele>
        <time>2012-05-19T09:34:04Z</time>
      </trkpt>
      <trkpt lat="46.32642" lon="5.87846">
        <ele>1209</ele>
        <time>2012-05-19T09:34:14Z</time>
      </trkpt>
      <trkpt lat="46.32619" lon="5.87846">
        <ele>1210</ele>
        <time>2012-05-19T09:34:26Z</time>
      </trkpt>
      <trkpt lat="46.32595" lon="5.87837">
        <ele>1211</ele>
        <time>2012-05-19T09:34:37Z</time>
      </trkpt>
      <trkpt lat="46.32573" lon="5.87824">
        <ele>1211</ele>
        <time>2012-05-19T09:34:47Z</time>
      </trkpt>
      <trkpt lat="46.32551" lon="5.87822">
        <ele>1211</ele>
        <time>2012-05-19T09:34:58Z</time>
      </trkpt>
      <trkpt lat="46.32528" lon="5.87827">
        <ele>1212</ele>
        <time>2012-05-19T09:35:07Z</time>
      </trkpt>
      <trkpt lat="46.32511" lon="5.87848">
        <ele>1211</ele>
        <time>2012-05-19T09:35:19Z</time>
      </trkpt>
      <trkpt lat="46.3249" lon="5.87867">
        <ele>1212</ele>
        <time>2012-05-19T09:35:29Z</time>
      </trkpt>
      <trkpt lat="46.32468" lon="5.87882">
        <ele>1211</ele>
        <time>2012-05-19T09:35:39Z</time>
      </trkpt>
      <trkpt lat="46.32448" lon="5.87897">
        <ele>1211</ele>
        <time>2012-05-19T09:35:48Z</time>
      </trkpt>
      <trkpt lat="46.32425" lon="5.87908">
        <ele>1210</ele>
        <time>2012-05-19T09:35:58Z</time>
      </trkpt>
      <trkpt lat="46.32402" lon="5.87917">
        <ele>1212</ele>
        <time>2012-05-19T09:36:07Z</time>
      </trkpt>
      <trkpt lat="46.3238" lon="5.87919">
        <ele>1206</ele>
        <time>2012-05-19T09:36:15Z</time>
      </trkpt>
      <trkpt lat="46.32357" lon="5.87915">
        <ele>1214</ele>
        <time>2012-05-19T09:36:25Z</time>
      </trkpt>
      <trkpt lat="46.32335" lon="5.87906">
        <ele>1213</ele>
        <time>2012-05-19T09:36:35Z</time>
      </trkpt>
      <trkpt lat="46.32312" lon="5.87899">
        <ele>1214</ele>
        <time>2012-05-19T09:36:45Z</time>
      </trkpt>
      <trkpt lat="46.3229" lon="5.87893">
        <ele>1214</ele>
        <time>2012-05-19T09:36:56Z</time>
      </trkpt>
      <trkpt lat="46.32269" lon="5.87876">
        <ele>1214</ele>
        <time>2012-05-19T09:37:07Z</time>
      </trkpt>
      <trkpt lat="46.32252" lon="5.87854">
        <ele>1216</ele>
        <time>2012-05-19T09:37:18Z</time>
      </trkpt>
      <trkpt lat="46.32235" lon="5.87833">
        <ele>1217</ele>
        <time>2012-05-19T09:37:29Z</time>
      </trkpt>
      <trkpt lat="46.32216" lon="5.87812">
        <ele>1215</ele>
        <time>2012-05-19T09:37:39Z</time>
      </trkpt>
      <trkpt lat="46.32198" lon="5.8779">
        <ele>1215</ele>
        <time>2012-05-19T09:37:50Z</time>
      </trkpt>
      <trkpt lat="46.32177" lon="5.87769">
        <ele>1214</ele>
        <time>2012-05-19T09:38:00Z</time>
      </trkpt>
      <trkpt lat="46.32158" lon="5.87749">
        <ele>1212</ele>
        <time>2012-05-19T09:38:07Z</time>
      </trkpt>
      <trkpt lat="46.32141" lon="5.87728">
        <ele>1211</ele>
        <time>2012-05-19T09:38:18Z</time>
      </trkpt>
      <trkpt lat="46.32124" lon="5.87706">
        <ele>1212</ele>
        <time>2012-05-19T09:38:28Z</time>
      </trkpt>
      <trkpt lat="46.32105" lon="5.87687">
        <ele>1212</ele>
        <time>2012-05-19T09:38:42Z</time>
      </trkpt>
      <trkpt lat="46.32091" lon="5.87661">
        <ele>1214</ele>
        <time>2012-05-19T09:38:59Z</time>
      </trkpt>
      <trkpt lat="46.32071" lon="5.87642">
        <ele>1213</ele>
        <time>2012-05-19T09:39:13Z</time>
      </trkpt>
      <trkpt lat="46.32052" lon="5.87625">
        <ele>1214</ele>
        <time>2012-05-19T09:39:29Z</time>
      </trkpt>
      <trkpt lat="46.32034" lon="5.87603">
        <ele>1214</ele>
        <time>2012-05-19T09:39:47Z</time>
      </trkpt>
      <trkpt lat="46.32018" lon="5.87578">
        <ele>1216</ele>
        <time>2012-05-19T09:40:05Z</time>
      </trkpt>
      <trkpt lat="46.32" lon="5.87556">
        <ele>1217</ele>
        <time>2012-05-19T09:40:20Z</time>
      </trkpt>
      <trkpt lat="46.31982" lon="5.87535">
        <ele>1218</ele>
        <time>2012-05-19T09:40:38Z</time>
      </trkpt>
      <trkpt lat="46.31966" lon="5.87509">
        <ele>1218</ele>
        <time>2012-05-19T09:40:56Z</time>
      </trkpt>
      <trkpt lat="46.31946" lon="5.8749">
        <ele>1222</ele>
        <time>2012-05-19T09:41:09Z</time>
      </trkpt>
      <trkpt lat="46.31925" lon="5.87479">
        <ele>1222</ele>
        <time>2012-05-19T09:41:19Z</time>
      </trkpt>
      <trkpt lat="46.31907" lon="5.8746">
        <ele>1223</ele>
        <time>2012-05-19T09:41:30Z</time>
      </trkpt>
      <trkpt lat="46.31887" lon="5.87442">
        <ele>1223</ele>
        <time>2012-05-19T09:41:39Z</time>
      </trkpt>
      <trkpt lat="46.31869" lon="5.87423">
        <ele>1223</ele>
        <time>2012-05-19T09:41:49Z</time>
      </trkpt>
      <trkpt lat="46.31851" lon="5.87404">
        <ele>1224</ele>
        <time>2012-05-19T09:42:00Z</time>
      </trkpt>
      <trkpt lat="46.31835" lon="5.8738">
        <ele>1225</ele>
        <time>2012-05-19T09:42:14Z</time>
      </trkpt>
      <trkpt lat="46.31816" lon="5.87357">
        <ele>1222</ele>
        <time>2012-05-19T09:42:23Z</time>
      </trkpt>
      <trkpt lat="46.31798" lon="5.87333">
        <ele>1221</ele>
        <time>2012-05-19T09:42:29Z</time>
      </trkpt>
      <trkpt lat="46.31777" lon="5.87318">
        <ele>1220</ele>
        <time>2012-05-19T09:42:37Z</time>
      </trkpt>
      <trkpt lat="46.31754" lon="5.87303">
        <ele>1220</ele>
        <time>2012-05-19T09:42:46Z</time>
      </trkpt>
      <trkpt lat="46.31734" lon="5.87288">
        <ele>1217</ele>
        <time>2012-05-19T09:42:53Z</time>
      </trkpt>
      <trkpt lat="46.31713" lon="5.87277">
        <ele>1217</ele>
        <time>2012-05-19T09:43:04Z</time>
      </trkpt>
      <trkpt lat="46.3169" lon="5.87264">
        <ele>1216</ele>
        <time>2012-05-19T09:43:16Z</time>
      </trkpt>
      <trkpt lat="46.31669" lon="5.87249">
        <ele>1214</ele>
        <time>2012-05-19T09:43:28Z</time>
      </trkpt>
      <trkpt lat="46.31647" lon="5.87236">
        <ele>1213</ele>
        <time>2012-05-19T09:43:38Z</time>
      </trkpt>
      <trkpt lat="46.31626" lon="5.87219">
        <ele>1212</ele>
        <time>2012-05-19T09:43:48Z</time>
      </trkpt>
      <trkpt lat="46.31602" lon="5.87219">
        <ele>1212</ele>
        <time>2012-05-19T09:43:57Z</time>
      </trkpt>
      <trkpt lat="46.31583" lon="5.87236">
        <ele>1209</ele>
        <time>2012-05-19T09:44:08Z</time>
      </trkpt>
      <trkpt lat="46.31571" lon="5.87264">
        <ele>1209</ele>
        <time>2012-05-19T09:45:19Z</time>
      </trkpt>
      <trkpt lat="46.31555" lon="5.8729">
        <ele>1207</ele>
        <time>2012-05-19T09:45:29Z</time>
      </trkpt>
      <trkpt lat="46.31541" lon="5.87316">
        <ele>1207</ele>
        <time>2012-05-19T09:45:38Z</time>
      </trkpt>
      <trkpt lat="46.31526" lon="5.87346">
        <ele>1205</ele>
        <time>2012-05-19T09:45:48Z</time>
      </trkpt>
      <trkpt lat="46.31511" lon="5.87374">
        <ele>1205</ele>
        <time>2012-05-19T09:45:58Z</time>
      </trkpt>
      <trkpt lat="46.31495" lon="5.87402">
        <ele>1207</ele>
        <time>2012-05-19T09:46:08Z</time>
      </trkpt>
      <trkpt lat="46.31481" lon="5.87427">
        <ele>1208</ele>
        <time>2012-05-19T09:46:17Z</time>
      </trkpt>
      <trkpt lat="46.31465" lon="5.87451">
        <ele>1209</ele>
        <time>2012-05-19T09:46:25Z</time>
      </trkpt>
      <trkpt lat="46.3145" lon="5.87477">
        <ele>1210</ele>
        <time>2012-05-19T09:46:34Z</time>
      </trkpt>
      <trkpt lat="46.31436" lon="5.87503">
        <ele>1211</ele>
        <time>2012-05-19T09:46:48Z</time>
      </trkpt>
      <trkpt lat="46.31424" lon="5.87535">
        <ele>1210</ele>
        <time>2012-05-19T09:47:02Z</time>
      </trkpt>
      <trkpt lat="46.31412" lon="5.87565">
        <ele>1213</ele>
        <time>2012-05-19T09:47:13Z</time>
      </trkpt>
      <trkpt lat="46.314" lon="5.87593">
        <ele>1212</ele>
        <time>2012-05-19T09:47:23Z</time>
      </trkpt>
      <trkpt lat="46.31388" lon="5.87623">
        <ele>1212</ele>
        <time>2012-05-19T09:47:35Z</time>
      </trkpt>
      <trkpt lat="46.31377" lon="5.87653">
        <ele>1212</ele>
        <time>2012-05-19T09:47:46Z</time>
      </trkpt>
      <trkpt lat="46.31365" lon="5.87685">
        <ele>1211</ele>
        <time>2012-05-19T09:47:57Z</time>
      </trkpt>
      <trkpt lat="46.31346" lon="5.87704">
        <ele>1210</ele>
        <time>2012-05-19T09:48:08Z</time>
      </trkpt>
      <trkpt lat="46.31324" lon="5.87717">
        <ele>1209</ele>
        <time>2012-05-19T09:48:18Z</time>
      </trkpt>
      <trkpt lat="46.31301" lon="5.87717">
        <ele>1209</ele>
        <time>2012-05-19T09:48:28Z</time>
      </trkpt>
      <trkpt lat="46.31277" lon="5.87711">
        <ele>1209</ele>
        <time>2012-05-19T09:48:38Z</time>
      </trkpt>
      <trkpt lat="46.31253" lon="5.87704">
        <ele>1209</ele>
        <time>2012-05-19T09:48:48Z</time>
      </trkpt>
      <trkpt lat="46.31231" lon="5.877">
        <ele>1208</ele>
        <time>2012-05-19T09:48:57Z</time>
      </trkpt>
      <trkpt lat="46.31207" lon="5.87698">
        <ele>1209</ele>
        <time>2012-05-19T09:49:06Z</time>
      </trkpt>
      <trkpt lat="46.31184" lon="5.87694">
        <ele>1208</ele>
        <time>2012-05-19T09:49:16Z</time>
      </trkpt>
      <trkpt lat="46.31162" lon="5.87704">
        <ele>1210</ele>
        <time>2012-05-19T09:49:30Z</time>
      </trkpt>
      <trkpt lat="46.3114" lon="5.87706">
        <ele>1211</ele>
        <time>2012-05-19T09:49:51Z</time>
      </trkpt>
      <trkpt lat="46.31118" lon="5.87696">
        <ele>1211</ele>
        <time>2012-05-19T09:50:07Z</time>
      </trkpt>
      <trkpt lat="46.31096" lon="5.87691">
        <ele>1212</ele>
        <time>2012-05-19T09:50:19Z</time>
      </trkpt>
      <trkpt lat="46.31073" lon="5.87694">
        <ele>1211</ele>
        <time>2012-05-19T09:50:34Z</time>
      </trkpt>
      <trkpt lat="46.31052" lon="5.87683">
        <ele>1211</ele>
        <time>2012-05-19T09:50:45Z</time>
      </trkpt>
      <trkpt lat="46.31029" lon="5.87681">
        <ele>1209</ele>
        <time>2012-05-19T09:50:54Z</time>
      </trkpt>
      <trkpt lat="46.31005" lon="5.87676">
        <ele>1207</ele>
        <time>2012-05-19T09:51:04Z</time>
      </trkpt>
      <trkpt lat="46.30981" lon="5.87672">
        <ele>1205</ele>
        <time>2012-05-19T09:51:13Z</time>
      </trkpt>
      <trkpt lat="46.30958" lon="5.87661">
        <ele>1206</ele>
        <time>2012-05-19T09:51:22Z</time>
      </trkpt>
      <trkpt lat="46.30936" lon="5.87646">
        <ele>1205</ele>
        <time>2012-05-19T09:51:31Z</time>
      </trkpt>
      <trkpt lat="46.30914" lon="5.87631">
        <ele>1199</ele>
        <time>2012-05-19T09:52:01Z</time>
      </trkpt>
      <trkpt lat="46.30891" lon="5.87631">
        <ele>1198</ele>
        <time>2012-05-19T09:52:11Z</time>
      </trkpt>
      <trkpt lat="46.30867" lon="5.8764">
        <ele>1196</ele>
        <time>2012-05-19T09:52:23Z</time>
      </trkpt>
      <trkpt lat="46.30846" lon="5.87627">
        <ele>1196</ele>
        <time>2012-05-19T09:52:34Z</time>
      </trkpt>
      <trkpt lat="46.30823" lon="5.87618">
        <ele>1190</ele>
        <time>2012-05-19T09:52:43Z</time>
      </trkpt>
      <trkpt lat="46.30801" lon="5.87623">
        <ele>1189</ele>
        <time>2012-05-19T09:52:52Z</time>
      </trkpt>
      <trkpt lat="46.30779" lon="5.87612">
        <ele>1188</ele>
        <time>2012-05-19T09:53:01Z</time>
      </trkpt>
      <trkpt lat="46.30759" lon="5.87593">
        <ele>1184</ele>
        <time>2012-05-19T09:53:12Z</time>
      </trkpt>
      <trkpt lat="46.3074" lon="5.87573">
        <ele>1180</ele>
        <time>2012-05-19T09:53:22Z</time>
      </trkpt>
      <trkpt lat="46.30719" lon="5.87558">
        <ele>1179</ele>
        <time>2012-05-19T09:53:32Z</time>
      </trkpt>
      <trkpt lat="46.30698" lon="5.87541">
        <ele>1178</ele>
        <time>2012-05-19T09:53:41Z</time>
      </trkpt>
      <trkpt lat="46.30675" lon="5.87526">
        <ele>1176</ele>
        <time>2012-05-19T09:53:51Z</time>
      </trkpt>
      <trkpt lat="46.30656" lon="5.87505">
        <ele>1172</ele>
        <time>2012-05-19T09:54:01Z</time>
      </trkpt>
      <trkpt lat="46.30638" lon="5.87483">
        <ele>1169</ele>
        <time>2012-05-19T09:54:11Z</time>
      </trkpt>
      <trkpt lat="46.30616" lon="5.87468">
        <ele>1168</ele>
        <time>2012-05-19T09:54:21Z</time>
      </trkpt>
      <trkpt lat="46.30594" lon="5.87457">
        <ele>1167</ele>
        <time>2012-05-19T09:54:30Z</time>
      </trkpt>
      <trkpt lat="46.30573" lon="5.87438">
        <ele>1165</ele>
        <time>2012-05-19T09:54:39Z</time>
      </trkpt>
      <trkpt lat="46.30555" lon="5.87417">
        <ele>1161</ele>
        <time>2012-05-19T09:54:48Z</time>
      </trkpt>
      <trkpt lat="46.30535" lon="5.87397">
        <ele>1159</ele>
        <time>2012-05-19T09:54:58Z</time>
      </trkpt>
      <trkpt lat="46.30513" lon="5.87385">
        <ele>1159</ele>
        <time>2012-05-19T09:55:07Z</time>
      </trkpt>
      <trkpt lat="46.30492" lon="5.87369">
        <ele>1156</ele>
        <time>2012-05-19T09:55:17Z</time>
      </trkpt>
      <trkpt lat="46.30469" lon="5.87357">
        <ele>1155</ele>
        <time>2012-05-19T09:55:27Z</time>
      </trkpt>
      <trkpt lat="46.30447" lon="5.8735">
        <ele>1154</ele>
        <time>2012-05-19T09:55:36Z</time>
      </trkpt>
      <trkpt lat="46.30424" lon="5.8735">
        <ele>1153</ele>
        <time>2012-05-19T09:55:45Z</time>
      </trkpt>
      <trkpt lat="46.304" lon="5.87359">
        <ele>1156</ele>
        <time>2012-05-19T09:55:55Z</time>
      </trkpt>
      <trkpt lat="46.30378" lon="5.87367">
        <ele>1158</ele>
        <time>2012-05-19T09:56:09Z</time>
      </trkpt>
      <trkpt lat="46.30355" lon="5.87365">
        <ele>1158</ele>
        <time>2012-05-19T09:56:20Z</time>
      </trkpt>
      <trkpt lat="46.30333" lon="5.87359">
        <ele>1167</ele>
        <time>2012-05-19T09:56:33Z</time>
      </trkpt>
      <trkpt lat="46.30315" lon="5.87337">
        <ele>1164</ele>
        <time>2012-05-19T09:56:48Z</time>
      </trkpt>
      <trkpt lat="46.30301" lon="5.87312">
        <ele>1155</ele>
        <time>2012-05-19T09:57:02Z</time>
      </trkpt>
      <trkpt lat="46.30285" lon="5.87288">
        <ele>1154</ele>
        <time>2012-05-19T09:57:18Z</time>
      </trkpt>
      <trkpt lat="46.30267" lon="5.87266">
        <ele>1151</ele>
        <time>2012-05-19T09:57:29Z</time>
      </trkpt>
      <trkpt lat="46.3025" lon="5.87243">
        <ele>1144</ele>
        <time>2012-05-19T09:57:39Z</time>
      </trkpt>
      <trkpt lat="46.30233" lon="5.87217">
        <ele>1142</ele>
        <time>2012-05-19T09:57:49Z</time>
      </trkpt>
      <trkpt lat="46.30213" lon="5.872">
        <ele>1141</ele>
        <time>2012-05-19T09:57:59Z</time>
      </trkpt>
      <trkpt lat="46.30217" lon="5.87168">
        <ele>1140</ele>
        <time>2012-05-19T09:58:23Z</time>
      </trkpt>
      <trkpt lat="46.30236" lon="5.87151">
        <ele>1136</ele>
        <time>2012-05-19T09:58:39Z</time>
      </trkpt>
      <trkpt lat="46.30246" lon="5.87121">
        <ele>1136</ele>
        <time>2012-05-19T09:58:55Z</time>
      </trkpt>
      <trkpt lat="46.30256" lon="5.87091">
        <ele>1138</ele>
        <time>2012-05-19T09:59:06Z</time>
      </trkpt>
      <trkpt lat="46.30269" lon="5.87061">
        <ele>1136</ele>
        <time>2012-05-19T09:59:14Z</time>
      </trkpt>
      <trkpt lat="46.30285" lon="5.87035">
        <ele>1135</ele>
        <time>2012-05-19T09:59:21Z</time>
      </trkpt>
      <trkpt lat="46.30293" lon="5.87003">
        <ele>1135</ele>
        <time>2012-05-19T09:59:29Z</time>
      </trkpt>
      <trkpt lat="46.30299" lon="5.8697">
        <ele>1132</ele>
        <time>2012-05-19T09:59:38Z</time>
      </trkpt>
      <trkpt lat="46.30307" lon="5.8694">
        <ele>1132</ele>
        <time>2012-05-19T09:59:47Z</time>
      </trkpt>
      <trkpt lat="46.30319" lon="5.8691">
        <ele>1132</ele>
        <time>2012-05-19T09:59:57Z</time>
      </trkpt>
      <trkpt lat="46.30329" lon="5.8688">
        <ele>1131</ele>
        <time>2012-05-19T10:00:07Z</time>
      </trkpt>
      <trkpt lat="46.30341" lon="5.86852">
        <ele>1135</ele>
        <time>2012-05-19T10:00:17Z</time>
      </trkpt>
      <trkpt lat="46.30356" lon="5.86827">
        <ele>1132</ele>
        <time>2012-05-19T10:00:26Z</time>
      </trkpt>
      <trkpt lat="46.30375" lon="5.86803">
        <ele>1131</ele>
        <time>2012-05-19T10:00:35Z</time>
      </trkpt>
      <trkpt lat="46.30392" lon="5.86779">
        <ele>1130</ele>
        <time>2012-05-19T10:00:44Z</time>
      </trkpt>
      <trkpt lat="46.30408" lon="5.86756">
        <ele>1129</ele>
        <time>2012-05-19T10:00:53Z</time>
      </trkpt>
      <trkpt lat="46.30422" lon="5.86728">
        <ele>1131</ele>
        <time>2012-05-19T10:01:03Z</time>
      </trkpt>
      <trkpt lat="46.30428" lon="5.86696">
        <ele>1131</ele>
        <time>2012-05-19T10:01:12Z</time>
      </trkpt>
      <trkpt lat="46.30425" lon="5.86664">
        <ele>1130</ele>
        <time>2012-05-19T10:01:25Z</time>
      </trkpt>
      <trkpt lat="46.30418" lon="5.86631">
        <ele>1133</ele>
        <time>2012-05-19T10:01:41Z</time>
      </trkpt>
      <trkpt lat="46.30417" lon="5.86597">
        <ele>1128</ele>
        <time>2012-05-19T10:01:57Z</time>
      </trkpt>
      <trkpt lat="46.30414" lon="5.86563">
        <ele>1129</ele>
        <time>2012-05-19T10:02:12Z</time>
      </trkpt>
      <trkpt lat="46.30409" lon="5.8653">
        <ele>1129</ele>
        <time>2012-05-19T10:02:22Z</time>
      </trkpt>
      <trkpt lat="46.30411" lon="5.86496">
        <ele>1132</ele>
        <time>2012-05-19T10:02:31Z</time>
      </trkpt>
      <trkpt lat="46.30412" lon="5.8646">
        <ele>1130</ele>
        <time>2012-05-19T10:02:40Z</time>
      </trkpt>
      <trkpt lat="46.3041" lon="5.86425">
        <ele>1132</ele>
        <time>2012-05-19T10:02:49Z</time>
      </trkpt>
      <trkpt lat="46.30413" lon="5.86391">
        <ele>1129</ele>
        <time>2012-05-19T10:02:58Z</time>
      </trkpt>
      <trkpt lat="46.30418" lon="5.86359">
        <ele>1136</ele>
        <time>2012-05-19T10:03:07Z</time>
      </trkpt>
      <trkpt lat="46.30421" lon="5.86325">
        <ele>1129</ele>
        <time>2012-05-19T10:03:16Z</time>
      </trkpt>
      <trkpt lat="46.30425" lon="5.86292">
        <ele>1131</ele>
        <time>2012-05-19T10:03:25Z</time>
      </trkpt>
      <trkpt lat="46.30428" lon="5.8626">
        <ele>1127</ele>
        <time>2012-05-19T10:03:34Z</time>
      </trkpt>
      <trkpt lat="46.30422" lon="5.86228">
        <ele>1128</ele>
        <time>2012-05-19T10:03:43Z</time>
      </trkpt>
      <trkpt lat="46.30402" lon="5.86209">
        <ele>1126</ele>
        <time>2012-05-19T10:03:54Z</time>
      </trkpt>
      <trkpt lat="46.30379" lon="5.86219">
        <ele>1126</ele>
        <time>2012-05-19T10:04:16Z</time>
      </trkpt>
      <trkpt lat="46.30358" lon="5.86232">
        <ele>1126</ele>
        <time>2012-05-19T10:04:32Z</time>
      </trkpt>
      <trkpt lat="46.30335" lon="5.86228">
        <ele>1127</ele>
        <time>2012-05-19T10:05:18Z</time>
      </trkpt>
      <trkpt lat="46.30315" lon="5.86211">
        <ele>1132</ele>
        <time>2012-05-19T10:05:34Z</time>
      </trkpt>
      <trkpt lat="46.30296" lon="5.86191">
        <ele>1134</ele>
        <time>2012-05-19T10:05:49Z</time>
      </trkpt>
      <trkpt lat="46.30277" lon="5.86174">
        <ele>1135</ele>
        <time>2012-05-19T10:06:05Z</time>
      </trkpt>
      <trkpt lat="46.30258" lon="5.86194">
        <ele>1136</ele>
        <time>2012-05-19T10:06:25Z</time>
      </trkpt>
      <trkpt lat="46.30241" lon="5.86217">
        <ele>1141</ele>
        <time>2012-05-19T10:06:43Z</time>
      </trkpt>
      <trkpt lat="46.30218" lon="5.86213">
        <ele>1142</ele>
        <time>2012-05-19T10:07:05Z</time>
      </trkpt>
      <trkpt lat="46.30198" lon="5.86198">
        <ele>1144</ele>
        <time>2012-05-19T10:07:21Z</time>
      </trkpt>
      <trkpt lat="46.30184" lon="5.86172">
        <ele>1147</ele>
        <time>2012-05-19T10:07:37Z</time>
      </trkpt>
      <trkpt lat="46.3017" lon="5.86144">
        <ele>1151</ele>
        <time>2012-05-19T10:07:55Z</time>
      </trkpt>
      <trkpt lat="46.30156" lon="5.86116">
        <ele>1157</ele>
        <time>2012-05-19T10:08:12Z</time>
      </trkpt>
      <trkpt lat="46.30133" lon="5.86127">
        <ele>1159</ele>
        <time>2012-05-19T10:08:33Z</time>
      </trkpt>
      <trkpt lat="46.30117" lon="5.86153">
        <ele>1160</ele>
        <time>2012-05-19T10:08:53Z</time>
      </trkpt>
      <trkpt lat="46.30101" lon="5.86179">
        <ele>1159</ele>
        <time>2012-05-19T10:09:10Z</time>
      </trkpt>
      <trkpt lat="46.30083" lon="5.86198">
        <ele>1166</ele>
        <time>2012-05-19T10:09:25Z</time>
      </trkpt>
      <trkpt lat="46.30063" lon="5.86215">
        <ele>1166</ele>
        <time>2012-05-19T10:09:40Z</time>
      </trkpt>
      <trkpt lat="46.30042" lon="5.86232">
        <ele>1166</ele>
        <time>2012-05-19T10:09:55Z</time>
      </trkpt>
      <trkpt lat="46.30022" lon="5.86247">
        <ele>1168</ele>
        <time>2012-05-19T10:10:11Z</time>
      </trkpt>
      <trkpt lat="46.30001" lon="5.86264">
        <ele>1167</ele>
        <time>2012-05-19T10:10:27Z</time>
      </trkpt>
      <trkpt lat="46.29981" lon="5.86279">
        <ele>1173</ele>
        <time>2012-05-19T10:10:43Z</time>
      </trkpt>
      <trkpt lat="46.29962" lon="5.86297">
        <ele>1173</ele>
        <time>2012-05-19T10:10:58Z</time>
      </trkpt>
      <trkpt lat="46.29941" lon="5.86314">
        <ele>1175</ele>
        <time>2012-05-19T10:11:14Z</time>
      </trkpt>
      <trkpt lat="46.29922" lon="5.86331">
        <ele>1176</ele>
        <time>2012-05-19T10:11:29Z</time>
      </trkpt>
      <trkpt lat="46.29903" lon="5.86348">
        <ele>1178</ele>
        <time>2012-05-19T10:11:44Z</time>
      </trkpt>
      <trkpt lat="46.29882" lon="5.86365">
        <ele>1178</ele>
        <time>2012-05-19T10:12:00Z</time>
      </trkpt>
      <trkpt lat="46.2986" lon="5.86374">
        <ele>1178</ele>
        <time>2012-05-19T10:12:17Z</time>
      </trkpt>
      <trkpt lat="46.29837" lon="5.8637">
        <ele>1179</ele>
        <time>2012-05-19T10:12:32Z</time>
      </trkpt>
      <trkpt lat="46.29815" lon="5.86363">
        <ele>1183</ele>
        <time>2012-05-19T10:12:47Z</time>
      </trkpt>
      <trkpt lat="46.29792" lon="5.86357">
        <ele>1183</ele>
        <time>2012-05-19T10:13:01Z</time>
      </trkpt>
      <trkpt lat="46.29772" lon="5.8634">
        <ele>1184</ele>
        <time>2012-05-19T10:13:20Z</time>
      </trkpt>
      <trkpt lat="46.29752" lon="5.86322">
        <ele>1186</ele>
        <time>2012-05-19T10:13:36Z</time>
      </trkpt>
      <trkpt lat="46.29735" lon="5.86299">
        <ele>1188</ele>
        <time>2012-05-19T10:13:52Z</time>
      </trkpt>
      <trkpt lat="46.29728" lon="5.86267">
        <ele>1188</ele>
        <time>2012-05-19T10:14:08Z</time>
      </trkpt>
      <trkpt lat="46.29731" lon="5.86234">
        <ele>1187</ele>
        <time>2012-05-19T10:14:22Z</time>
      </trkpt>
      <trkpt lat="46.29732" lon="5.862">
        <ele>1186</ele>
        <time>2012-05-19T10:14:36Z</time>
      </trkpt>
      <trkpt lat="46.2973" lon="5.86164">
        <ele>1182</ele>
        <time>2012-05-19T10:14:47Z</time>
      </trkpt>
      <trkpt lat="46.29728" lon="5.86129">
        <ele>1182</ele>
        <time>2012-05-19T10:14:56Z</time>
      </trkpt>
      <trkpt lat="46.29729" lon="5.86093">
        <ele>1181</ele>
        <time>2012-05-19T10:15:05Z</time>
      </trkpt>
      <trkpt lat="46.29733" lon="5.86061">
        <ele>1177</ele>
        <time>2012-05-19T10:15:13Z</time>
      </trkpt>
      <trkpt lat="46.29742" lon="5.86031">
        <ele>1176</ele>
        <time>2012-05-19T10:15:21Z</time>
      </trkpt>
      <trkpt lat="46.29754" lon="5.86003">
        <ele>1176</ele>
        <time>2012-05-19T10:15:31Z</time>
      </trkpt>
      <trkpt lat="46.29762" lon="5.85973">
        <ele>1175</ele>
        <time>2012-05-19T10:15:43Z</time>
      </trkpt>
      <trkpt lat="46.29771" lon="5.8594">
        <ele>1174</ele>
        <time>2012-05-19T10:15:52Z</time>
      </trkpt>
      <trkpt lat="46.2978" lon="5.8591">
        <ele>1172</ele>
        <time>2012-05-19T10:16:00Z</time>
      </trkpt>
      <trkpt lat="46.29789" lon="5.8588">
        <ele>1172</ele>
        <time>2012-05-19T10:16:08Z</time>
      </trkpt>
      <trkpt lat="46.298" lon="5.85848">
        <ele>1172</ele>
        <time>2012-05-19T10:16:16Z</time>
      </trkpt>
      <trkpt lat="46.2981" lon="5.85818">
        <ele>1169</ele>
        <time>2012-05-19T10:16:23Z</time>
      </trkpt>
      <trkpt lat="46.29819" lon="5.85788">
        <ele>1168</ele>
        <time>2012-05-19T10:16:30Z</time>
      </trkpt>
      <trkpt lat="46.29825" lon="5.85754">
        <ele>1167</ele>
        <time>2012-05-19T10:16:39Z</time>
      </trkpt>
      <trkpt lat="46.29828" lon="5.85719">
        <ele>1165</ele>
        <time>2012-05-19T10:16:49Z</time>
      </trkpt>
      <trkpt lat="46.29821" lon="5.85687">
        <ele>1164</ele>
        <time>2012-05-19T10:17:00Z</time>
      </trkpt>
      <trkpt lat="46.29806" lon="5.85661">
        <ele>1164</ele>
        <time>2012-05-19T10:17:10Z</time>
      </trkpt>
      <trkpt lat="46.29787" lon="5.85642">
        <ele>1164</ele>
        <time>2012-05-19T10:17:21Z</time>
      </trkpt>
      <trkpt lat="46.29766" lon="5.85627">
        <ele>1165</ele>
        <time>2012-05-19T10:17:33Z</time>
      </trkpt>
      <trkpt lat="46.29745" lon="5.85614">
        <ele>1167</ele>
        <time>2012-05-19T10:17:46Z</time>
      </trkpt>
      <trkpt lat="46.29722" lon="5.85606">
        <ele>1167</ele>
        <time>2012-05-19T10:18:01Z</time>
      </trkpt>
      <trkpt lat="46.297" lon="5.85595">
        <ele>1168</ele>
        <time>2012-05-19T10:18:14Z</time>
      </trkpt>
      <trkpt lat="46.29677" lon="5.85584">
        <ele>1168</ele>
        <time>2012-05-19T10:18:29Z</time>
      </trkpt>
      <trkpt lat="46.29655" lon="5.8558">
        <ele>1170</ele>
        <time>2012-05-19T10:18:45Z</time>
      </trkpt>
      <trkpt lat="46.29637" lon="5.85601">
        <ele>1171</ele>
        <time>2012-05-19T10:19:02Z</time>
      </trkpt>
      <trkpt lat="46.29623" lon="5.85627">
        <ele>1172</ele>
        <time>2012-05-19T10:19:19Z</time>
      </trkpt>
      <trkpt lat="46.29611" lon="5.85655">
        <ele>1173</ele>
        <time>2012-05-19T10:19:37Z</time>
      </trkpt>
      <trkpt lat="46.29601" lon="5.85685">
        <ele>1176</ele>
        <time>2012-05-19T10:19:57Z</time>
      </trkpt>
      <trkpt lat="46.29585" lon="5.85711">
        <ele>1178</ele>
        <time>2012-05-19T10:20:17Z</time>
      </trkpt>
      <trkpt lat="46.29566" lon="5.85728">
        <ele>1182</ele>
        <time>2012-05-19T10:20:34Z</time>
      </trkpt>
      <trkpt lat="46.29545" lon="5.85743">
        <ele>1183</ele>
        <time>2012-05-19T10:20:49Z</time>
      </trkpt>
      <trkpt lat="46.29524" lon="5.85756">
        <ele>1185</ele>
        <time>2012-05-19T10:21:05Z</time>
      </trkpt>
      <trkpt lat="46.29501" lon="5.8576">
        <ele>1186</ele>
        <time>2012-05-19T10:21:20Z</time>
      </trkpt>
      <trkpt lat="46.29479" lon="5.85758">
        <ele>1187</ele>
        <time>2012-05-19T10:21:35Z</time>
      </trkpt>
      <trkpt lat="46.29455" lon="5.85754">
        <ele>1188</ele>
        <time>2012-05-19T10:21:51Z</time>
      </trkpt>
      <trkpt lat="46.29433" lon="5.85754">
        <ele>1188</ele>
        <time>2012-05-19T10:22:06Z</time>
      </trkpt>
      <trkpt lat="46.2941" lon="5.85754">
        <ele>1189</ele>
        <time>2012-05-19T10:22:19Z</time>
      </trkpt>
      <trkpt lat="46.29387" lon="5.85756">
        <ele>1189</ele>
        <time>2012-05-19T10:22:30Z</time>
      </trkpt>
      <trkpt lat="46.29364" lon="5.85758">
        <ele>1189</ele>
        <time>2012-05-19T10:22:40Z</time>
      </trkpt>
      <trkpt lat="46.29342" lon="5.8576">
        <ele>1188</ele>
        <time>2012-05-19T10:22:50Z</time>
      </trkpt>
      <trkpt lat="46.29318" lon="5.8576">
        <ele>1189</ele>
        <time>2012-05-19T10:23:00Z</time>
      </trkpt>
      <trkpt lat="46.29293" lon="5.85764">
        <ele>1190</ele>
        <time>2012-05-19T10:23:10Z</time>
      </trkpt>
      <trkpt lat="46.29269" lon="5.85771">
        <ele>1190</ele>
        <time>2012-05-19T10:23:19Z</time>
      </trkpt>
      <trkpt lat="46.29246" lon="5.85779">
        <ele>1193</ele>
        <time>2012-05-19T10:23:39Z</time>
      </trkpt>
      <trkpt lat="46.29225" lon="5.85792">
        <ele>1194</ele>
        <time>2012-05-19T10:24:01Z</time>
      </trkpt>
      <trkpt lat="46.29208" lon="5.85816">
        <ele>1195</ele>
        <time>2012-05-19T10:24:30Z</time>
      </trkpt>
      <trkpt lat="46.29186" lon="5.85825">
        <ele>1197</ele>
        <time>2012-05-19T10:24:50Z</time>
      </trkpt>
      <trkpt lat="46.29163" lon="5.8582">
        <ele>1201</ele>
        <time>2012-05-19T10:25:09Z</time>
      </trkpt>
      <trkpt lat="46.29141" lon="5.85818">
        <ele>1203</ele>
        <time>2012-05-19T10:25:25Z</time>
      </trkpt>
      <trkpt lat="46.29118" lon="5.85818">
        <ele>1204</ele>
        <time>2012-05-19T10:25:41Z</time>
      </trkpt>
      <trkpt lat="46.29096" lon="5.85822">
        <ele>1207</ele>
        <time>2012-05-19T10:25:58Z</time>
      </trkpt>
      <trkpt lat="46.29074" lon="5.85833">
        <ele>1210</ele>
        <time>2012-05-19T10:26:17Z</time>
      </trkpt>
      <trkpt lat="46.29051" lon="5.85842">
        <ele>1212</ele>
        <time>2012-05-19T10:26:34Z</time>
      </trkpt>
      <trkpt lat="46.29027" lon="5.8585">
        <ele>1213</ele>
        <time>2012-05-19T10:26:51Z</time>
      </trkpt>
      <trkpt lat="46.29004" lon="5.85859">
        <ele>1213</ele>
        <time>2012-05-19T10:27:09Z</time>
      </trkpt>
      <trkpt lat="46.2898" lon="5.85867">
        <ele>1216</ele>
        <time>2012-05-19T10:27:27Z</time>
      </trkpt>
      <trkpt lat="46.28957" lon="5.85872">
        <ele>1216</ele>
        <time>2012-05-19T10:27:43Z</time>
      </trkpt>
      <trkpt lat="46.28935" lon="5.85878">
        <ele>1217</ele>
        <time>2012-05-19T10:27:58Z</time>
      </trkpt>
      <trkpt lat="46.28911" lon="5.85889">
        <ele>1218</ele>
        <time>2012-05-19T10:28:14Z</time>
      </trkpt>
      <trkpt lat="46.2889" lon="5.859">
        <ele>1218</ele>
        <time>2012-05-19T10:28:29Z</time>
      </trkpt>
      <trkpt lat="46.28866" lon="5.8591">
        <ele>1218</ele>
        <time>2012-05-19T10:28:43Z</time>
      </trkpt>
      <trkpt lat="46.28844" lon="5.85923">
        <ele>1219</ele>
        <time>2012-05-19T10:28:54Z</time>
      </trkpt>
      <trkpt lat="46.28821" lon="5.8593">
        <ele>1220</ele>
        <time>2012-05-19T10:29:05Z</time>
      </trkpt>
      <trkpt lat="46.28799" lon="5.85932">
        <ele>1221</ele>
        <time>2012-05-19T10:30:08Z</time>
      </trkpt>
      <trkpt lat="46.28776" lon="5.85934">
        <ele>1222</ele>
        <time>2012-05-19T10:30:18Z</time>
      </trkpt>
      <trkpt lat="46.28751" lon="5.85934">
        <ele>1221</ele>
        <time>2012-05-19T10:30:28Z</time>
      </trkpt>
      <trkpt lat="46.28727" lon="5.85934">
        <ele>1225</ele>
        <time>2012-05-19T10:30:38Z</time>
      </trkpt>
      <trkpt lat="46.28703" lon="5.85934">
        <ele>1226</ele>
        <time>2012-05-19T10:30:48Z</time>
      </trkpt>
      <trkpt lat="46.2868" lon="5.85932">
        <ele>1225</ele>
        <time>2012-05-19T10:30:58Z</time>
      </trkpt>
      <trkpt lat="46.28657" lon="5.85921">
        <ele>1226</ele>
        <time>2012-05-19T10:31:07Z</time>
      </trkpt>
      <trkpt lat="46.28632" lon="5.8591">
        <ele>1223</ele>
        <time>2012-05-19T10:31:16Z</time>
      </trkpt>
      <trkpt lat="46.2861" lon="5.85897">
        <ele>1225</ele>
        <time>2012-05-19T10:31:25Z</time>
      </trkpt>
      <trkpt lat="46.28591" lon="5.8588">
        <ele>1224</ele>
        <time>2012-05-19T10:31:34Z</time>
      </trkpt>
      <trkpt lat="46.28569" lon="5.85863">
        <ele>1227</ele>
        <time>2012-05-19T10:31:43Z</time>
      </trkpt>
      <trkpt lat="46.28549" lon="5.85846">
        <ele>1227</ele>
        <time>2012-05-19T10:31:52Z</time>
      </trkpt>
      <trkpt lat="46.28545" lon="5.85814">
        <ele>1221</ele>
        <time>2012-05-19T10:32:02Z</time>
      </trkpt>
      <trkpt lat="46.2855" lon="5.85782">
        <ele>1220</ele>
        <time>2012-05-19T10:32:10Z</time>
      </trkpt>
      <trkpt lat="46.28554" lon="5.85749">
        <ele>1217</ele>
        <time>2012-05-19T10:32:18Z</time>
      </trkpt>
      <trkpt lat="46.28557" lon="5.85715">
        <ele>1216</ele>
        <time>2012-05-19T10:32:27Z</time>
      </trkpt>
      <trkpt lat="46.28554" lon="5.85681">
        <ele>1216</ele>
        <time>2012-05-19T10:32:36Z</time>
      </trkpt>
      <trkpt lat="46.28544" lon="5.85649">
        <ele>1214</ele>
        <time>2012-05-19T10:32:45Z</time>
      </trkpt>
      <trkpt lat="46.2853" lon="5.85621">
        <ele>1214</ele>
        <time>2012-05-19T10:32:54Z</time>
      </trkpt>
      <trkpt lat="46.28514" lon="5.85597">
        <ele>1213</ele>
        <time>2012-05-19T10:33:03Z</time>
      </trkpt>
      <trkpt lat="46.28496" lon="5.85578">
        <ele>1212</ele>
        <time>2012-05-19T10:33:12Z</time>
      </trkpt>
      <trkpt lat="46.28478" lon="5.85558">
        <ele>1213</ele>
        <time>2012-05-19T10:33:22Z</time>
      </trkpt>
      <trkpt lat="46.28456" lon="5.85541">
        <ele>1213</ele>
        <time>2012-05-19T10:33:32Z</time>
      </trkpt>
      <trkpt lat="46.28436" lon="5.85524">
        <ele>1212</ele>
        <time>2012-05-19T10:33:41Z</time>
      </trkpt>
      <trkpt lat="46.28416" lon="5.85505">
        <ele>1209</ele>
        <time>2012-05-19T10:33:50Z</time>
      </trkpt>
      <trkpt lat="46.28394" lon="5.8549">
        <ele>1209</ele>
        <time>2012-05-19T10:33:59Z</time>
      </trkpt>
      <trkpt lat="46.28372" lon="5.85488">
        <ele>1209</ele>
        <time>2012-05-19T10:34:12Z</time>
      </trkpt>
      <trkpt lat="46.2836" lon="5.85518">
        <ele>1211</ele>
        <time>2012-05-19T10:34:28Z</time>
      </trkpt>
      <trkpt lat="46.28348" lon="5.85546">
        <ele>1212</ele>
        <time>2012-05-19T10:34:43Z</time>
      </trkpt>
      <trkpt lat="46.28341" lon="5.85578">
        <ele>1214</ele>
        <time>2012-05-19T10:34:59Z</time>
      </trkpt>
      <trkpt lat="46.28341" lon="5.85612">
        <ele>1216</ele>
        <time>2012-05-19T10:35:16Z</time>
      </trkpt>
      <trkpt lat="46.28344" lon="5.85644">
        <ele>1218</ele>
        <time>2012-05-19T10:35:32Z</time>
      </trkpt>
      <trkpt lat="46.28341" lon="5.85676">
        <ele>1223</ele>
        <time>2012-05-19T10:35:49Z</time>
      </trkpt>
      <trkpt lat="46.28323" lon="5.85698">
        <ele>1231</ele>
        <time>2012-05-19T10:36:06Z</time>
      </trkpt>
      <trkpt lat="46.28302" lon="5.85709">
        <ele>1233</ele>
        <time>2012-05-19T10:36:22Z</time>
      </trkpt>
      <trkpt lat="46.28284" lon="5.85728">
        <ele>1235</ele>
        <time>2012-05-19T10:36:45Z</time>
      </trkpt>
      <trkpt lat="46.28287" lon="5.8576">
        <ele>1246</ele>
        <time>2012-05-19T10:37:13Z</time>
      </trkpt>
      <trkpt lat="46.28279" lon="5.85792">
        <ele>1248</ele>
        <time>2012-05-19T10:37:38Z</time>
      </trkpt>
      <trkpt lat="46.28285" lon="5.85825">
        <ele>1250</ele>
        <time>2012-05-19T10:38:13Z</time>
      </trkpt>
      <trkpt lat="46.28297" lon="5.85852">
        <ele>1258</ele>
        <time>2012-05-19T10:38:40Z</time>
      </trkpt>
      <trkpt lat="46.28279" lon="5.85831">
        <ele>1251</ele>
        <time>2012-05-19T10:39:25Z</time>
      </trkpt>
      <trkpt lat="46.28262" lon="5.85852">
        <ele>1260</ele>
        <time>2012-05-19T10:40:00Z</time>
      </trkpt>
      <trkpt lat="46.28248" lon="5.85878">
        <ele>1266</ele>
        <time>2012-05-19T10:40:26Z</time>
      </trkpt>
      <trkpt lat="46.28227" lon="5.85893">
        <ele>1267</ele>
        <time>2012-05-19T10:40:50Z</time>
      </trkpt>
      <trkpt lat="46.28204" lon="5.859">
        <ele>1267</ele>
        <time>2012-05-19T10:41:12Z</time>
      </trkpt>
      <trkpt lat="46.28184" lon="5.85915">
        <ele>1269</ele>
        <time>2012-05-19T10:41:31Z</time>
      </trkpt>
      <trkpt lat="46.28165" lon="5.85934">
        <ele>1271</ele>
        <time>2012-05-19T10:41:49Z</time>
      </trkpt>
      <trkpt lat="46.28154" lon="5.85964">
        <ele>1271</ele>
        <time>2012-05-19T10:42:06Z</time>
      </trkpt>
      <trkpt lat="46.28135" lon="5.85985">
        <ele>1271</ele>
        <time>2012-05-19T10:42:20Z</time>
      </trkpt>
      <trkpt lat="46.28116" lon="5.86005">
        <ele>1272</ele>
        <time>2012-05-19T10:42:31Z</time>
      </trkpt>
      <trkpt lat="46.28096" lon="5.86022">
        <ele>1272</ele>
        <time>2012-05-19T10:42:42Z</time>
      </trkpt>
      <trkpt lat="46.28078" lon="5.86043">
        <ele>1268</ele>
        <time>2012-05-19T10:42:53Z</time>
      </trkpt>
      <trkpt lat="46.28058" lon="5.86063">
        <ele>1268</ele>
        <time>2012-05-19T10:43:05Z</time>
      </trkpt>
      <trkpt lat="46.28038" lon="5.86082">
        <ele>1267</ele>
        <time>2012-05-19T10:43:17Z</time>
      </trkpt>
      <trkpt lat="46.2803" lon="5.86114">
        <ele>1263</ele>
        <time>2012-05-19T10:43:37Z</time>
      </trkpt>
      <trkpt lat="46.28007" lon="5.86123">
        <ele>1261</ele>
        <time>2012-05-19T10:43:58Z</time>
      </trkpt>
      <trkpt lat="46.27983" lon="5.86121">
        <ele>1253</ele>
        <time>2012-05-19T10:44:23Z</time>
      </trkpt>
      <trkpt lat="46.2796" lon="5.86119">
        <ele>1251</ele>
        <time>2012-05-19T10:44:29Z</time>
      </trkpt>
      <trkpt lat="46.27936" lon="5.86112">
        <ele>1250</ele>
        <time>2012-05-19T10:44:37Z</time>
      </trkpt>
      <trkpt lat="46.27912" lon="5.86106">
        <ele>1245</ele>
        <time>2012-05-19T10:44:47Z</time>
      </trkpt>
      <trkpt lat="46.27891" lon="5.86095">
        <ele>1245</ele>
        <time>2012-05-19T10:44:56Z</time>
      </trkpt>
      <trkpt lat="46.27871" lon="5.8608">
        <ele>1248</ele>
        <time>2012-05-19T10:45:08Z</time>
      </trkpt>
      <trkpt lat="46.27851" lon="5.86063">
        <ele>1247</ele>
        <time>2012-05-19T10:45:24Z</time>
      </trkpt>
      <trkpt lat="46.27832" lon="5.86046">
        <ele>1244</ele>
        <time>2012-05-19T10:45:41Z</time>
      </trkpt>
      <trkpt lat="46.27813" lon="5.86028">
        <ele>1245</ele>
        <time>2012-05-19T10:45:58Z</time>
      </trkpt>
      <trkpt lat="46.27791" lon="5.86016">
        <ele>1244</ele>
        <time>2012-05-19T10:46:15Z</time>
      </trkpt>
      <trkpt lat="46.27769" lon="5.86007">
        <ele>1243</ele>
        <time>2012-05-19T10:46:28Z</time>
      </trkpt>
      <trkpt lat="46.27748" lon="5.85992">
        <ele>1244</ele>
        <time>2012-05-19T10:46:40Z</time>
      </trkpt>
      <trkpt lat="46.27728" lon="5.85977">
        <ele>1247</ele>
        <time>2012-05-19T10:46:50Z</time>
      </trkpt>
      <trkpt lat="46.2771" lon="5.85958">
        <ele>1248</ele>
        <time>2012-05-19T10:47:05Z</time>
      </trkpt>
      <trkpt lat="46.2769" lon="5.8594">
        <ele>1249</ele>
        <time>2012-05-19T10:47:26Z</time>
      </trkpt>
      <trkpt lat="46.27668" lon="5.85932">
        <ele>1251</ele>
        <time>2012-05-19T10:47:47Z</time>
      </trkpt>
      <trkpt lat="46.27645" lon="5.85923">
        <ele>1257</ele>
        <time>2012-05-19T10:48:05Z</time>
      </trkpt>
      <trkpt lat="46.27623" lon="5.85913">
        <ele>1260</ele>
        <time>2012-05-19T10:48:16Z</time>
      </trkpt>
      <trkpt lat="46.27606" lon="5.85891">
        <ele>1261</ele>
        <time>2012-05-19T10:48:33Z</time>
      </trkpt>
      <trkpt lat="46.27602" lon="5.85859">
        <ele>1261</ele>
        <time>2012-05-19T10:48:55Z</time>
      </trkpt>
      <trkpt lat="46.27582" lon="5.85842">
        <ele>1264</ele>
        <time>2012-05-19T10:49:35Z</time>
      </trkpt>
      <trkpt lat="46.27559" lon="5.85846">
        <ele>1266</ele>
        <time>2012-05-19T10:50:48Z</time>
      </trkpt>
      <trkpt lat="46.27538" lon="5.85859">
        <ele>1268</ele>
        <time>2012-05-19T10:51:18Z</time>
      </trkpt>
      <trkpt lat="46.27533" lon="5.85891">
        <ele>1269</ele>
        <time>2012-05-19T10:51:50Z</time>
      </trkpt>
      <trkpt lat="46.27534" lon="5.85925">
        <ele>1272</ele>
        <time>2012-05-19T10:52:10Z</time>
      </trkpt>
      <trkpt lat="46.27523" lon="5.85955">
        <ele>1272</ele>
        <time>2012-05-19T10:52:40Z</time>
      </trkpt>
      <trkpt lat="46.27521" lon="5.8599">
        <ele>1273</ele>
        <time>2012-05-19T10:52:58Z</time>
      </trkpt>
      <trkpt lat="46.27512" lon="5.8602">
        <ele>1275</ele>
        <time>2012-05-19T10:53:13Z</time>
      </trkpt>
      <trkpt lat="46.27497" lon="5.86046">
        <ele>1279</ele>
        <time>2012-05-19T10:53:32Z</time>
      </trkpt>
      <trkpt lat="46.27479" lon="5.86065">
        <ele>1281</ele>
        <time>2012-05-19T10:53:59Z</time>
      </trkpt>
      <trkpt lat="46.27458" lon="5.86076">
        <ele>1281</ele>
        <time>2012-05-19T10:54:22Z</time>
      </trkpt>
      <trkpt lat="46.27437" lon="5.86093">
        <ele>1291</ele>
        <time>2012-05-19T10:54:38Z</time>
      </trkpt>
      <trkpt lat="46.27415" lon="5.86101">
        <ele>1291</ele>
        <time>2012-05-19T10:54:49Z</time>
      </trkpt>
      <trkpt lat="46.27395" lon="5.86119">
        <ele>1294</ele>
        <time>2012-05-19T10:55:09Z</time>
      </trkpt>
      <trkpt lat="46.27373" lon="5.86123">
        <ele>1295</ele>
        <time>2012-05-19T10:55:33Z</time>
      </trkpt>
      <trkpt lat="46.27356" lon="5.86146">
        <ele>1297</ele>
        <time>2012-05-19T10:55:51Z</time>
      </trkpt>
      <trkpt lat="46.27336" lon="5.86168">
        <ele>1301</ele>
        <time>2012-05-19T10:56:05Z</time>
      </trkpt>
      <trkpt lat="46.27317" lon="5.86185">
        <ele>1303</ele>
        <time>2012-05-19T10:56:17Z</time>
      </trkpt>
      <trkpt lat="46.27297" lon="5.86202">
        <ele>1305</ele>
        <time>2012-05-19T10:56:31Z</time>
      </trkpt>
      <trkpt lat="46.27278" lon="5.86222">
        <ele>1306</ele>
        <time>2012-05-19T10:56:50Z</time>
      </trkpt>
      <trkpt lat="46.27261" lon="5.86245">
        <ele>1309</ele>
        <time>2012-05-19T10:57:11Z</time>
      </trkpt>
      <trkpt lat="46.27246" lon="5.86271">
        <ele>1311</ele>
        <time>2012-05-19T10:57:30Z</time>
      </trkpt>
      <trkpt lat="46.27234" lon="5.86299">
        <ele>1311</ele>
        <time>2012-05-19T10:57:51Z</time>
      </trkpt>
      <trkpt lat="46.27241" lon="5.86331">
        <ele>1313</ele>
        <time>2012-05-19T10:58:59Z</time>
      </trkpt>
      <trkpt lat="46.27255" lon="5.86359">
        <ele>1312</ele>
        <time>2012-05-19T10:59:20Z</time>
      </trkpt>
      <trkpt lat="46.27267" lon="5.86387">
        <ele>1310</ele>
        <time>2012-05-19T10:59:29Z</time>
      </trkpt>
      <trkpt lat="46.27276" lon="5.86419">
        <ele>1304</ele>
        <time>2012-05-19T10:59:38Z</time>
      </trkpt>
      <trkpt lat="46.27294" lon="5.86438">
        <ele>1305</ele>
        <time>2012-05-19T10:59:48Z</time>
      </trkpt>
      <trkpt lat="46.27316" lon="5.86449">
        <ele>1305</ele>
        <time>2012-05-19T10:59:59Z</time>
      </trkpt>
      <trkpt lat="46.27333" lon="5.86473">
        <ele>1304</ele>
        <time>2012-05-19T11:00:12Z</time>
      </trkpt>
      <trkpt lat="46.27317" lon="5.86498">
        <ele>1303</ele>
        <time>2012-05-19T11:00:24Z</time>
      </trkpt>
      <trkpt lat="46.27305" lon="5.86526">
        <ele>1297</ele>
        <time>2012-05-19T11:00:34Z</time>
      </trkpt>
      <trkpt lat="46.27286" lon="5.86546">
        <ele>1295</ele>
        <time>2012-05-19T11:00:43Z</time>
      </trkpt>
      <trkpt lat="46.27262" lon="5.86552">
        <ele>1293</ele>
        <time>2012-05-19T11:00:56Z</time>
      </trkpt>
      <trkpt lat="46.27242" lon="5.86569">
        <ele>1288</ele>
        <time>2012-05-19T11:01:05Z</time>
      </trkpt>
      <trkpt lat="46.27224" lon="5.86588">
        <ele>1294</ele>
        <time>2012-05-19T11:01:14Z</time>
      </trkpt>
      <trkpt lat="46.27204" lon="5.86606">
        <ele>1297</ele>
        <time>2012-05-19T11:01:26Z</time>
      </trkpt>
      <trkpt lat="46.27188" lon="5.86629">
        <ele>1300</ele>
        <time>2012-05-19T11:01:48Z</time>
      </trkpt>
      <trkpt lat="46.27169" lon="5.86646">
        <ele>1304</ele>
        <time>2012-05-19T11:02:21Z</time>
      </trkpt>
      <trkpt lat="46.27149" lon="5.86661">
        <ele>1308</ele>
        <time>2012-05-19T11:03:04Z</time>
      </trkpt>
      <trkpt lat="46.27126" lon="5.86655">
        <ele>1307</ele>
        <time>2012-05-19T11:03:29Z</time>
      </trkpt>
      <trkpt lat="46.27103" lon="5.86649">
        <ele>1309</ele>
        <time>2012-05-19T11:03:43Z</time>
      </trkpt>
      <trkpt lat="46.2708" lon="5.86649">
        <ele>1311</ele>
        <time>2012-05-19T11:03:56Z</time>
      </trkpt>
      <trkpt lat="46.27058" lon="5.86659">
        <ele>1310</ele>
        <time>2012-05-19T11:04:08Z</time>
      </trkpt>
      <trkpt lat="46.27037" lon="5.86674">
        <ele>1313</ele>
        <time>2012-05-19T11:04:22Z</time>
      </trkpt>
      <trkpt lat="46.27016" lon="5.86685">
        <ele>1312</ele>
        <time>2012-05-19T11:04:31Z</time>
      </trkpt>
      <trkpt lat="46.26992" lon="5.86687">
        <ele>1304</ele>
        <time>2012-05-19T11:04:44Z</time>
      </trkpt>
      <trkpt lat="46.26969" lon="5.86698">
        <ele>1301</ele>
        <time>2012-05-19T11:04:55Z</time>
      </trkpt>
      <trkpt lat="46.2696" lon="5.8673">
        <ele>1299</ele>
        <time>2012-05-19T11:05:05Z</time>
      </trkpt>
      <trkpt lat="46.26965" lon="5.86764">
        <ele>1294</ele>
        <time>2012-05-19T11:05:13Z</time>
      </trkpt>
      <trkpt lat="46.26974" lon="5.86799">
        <ele>1294</ele>
        <time>2012-05-19T11:05:21Z</time>
      </trkpt>
      <trkpt lat="46.2698" lon="5.86831">
        <ele>1295</ele>
        <time>2012-05-19T11:05:29Z</time>
      </trkpt>
      <trkpt lat="46.2698" lon="5.86865">
        <ele>1291</ele>
        <time>2012-05-19T11:05:38Z</time>
      </trkpt>
      <trkpt lat="46.26979" lon="5.86902">
        <ele>1291</ele>
        <time>2012-05-19T11:05:48Z</time>
      </trkpt>
      <trkpt lat="46.2698" lon="5.86936">
        <ele>1290</ele>
        <time>2012-05-19T11:05:58Z</time>
      </trkpt>
      <trkpt lat="46.26958" lon="5.86934">
        <ele>1286</ele>
        <time>2012-05-19T11:06:11Z</time>
      </trkpt>
      <trkpt lat="46.26937" lon="5.86919">
        <ele>1283</ele>
        <time>2012-05-19T11:06:23Z</time>
      </trkpt>
      <trkpt lat="46.26915" lon="5.8693">
        <ele>1277</ele>
        <time>2012-05-19T11:06:32Z</time>
      </trkpt>
      <trkpt lat="46.26896" lon="5.86953">
        <ele>1278</ele>
        <time>2012-05-19T11:06:41Z</time>
      </trkpt>
      <trkpt lat="46.26877" lon="5.8697">
        <ele>1278</ele>
        <time>2012-05-19T11:06:51Z</time>
      </trkpt>
      <trkpt lat="46.26855" lon="5.86979">
        <ele>1279</ele>
        <time>2012-05-19T11:07:02Z</time>
      </trkpt>
      <trkpt lat="46.26832" lon="5.86979">
        <ele>1282</ele>
        <time>2012-05-19T11:07:16Z</time>
      </trkpt>
      <trkpt lat="46.2681" lon="5.86977">
        <ele>1282</ele>
        <time>2012-05-19T11:07:33Z</time>
      </trkpt>
      <trkpt lat="46.26788" lon="5.86964">
        <ele>1283</ele>
        <time>2012-05-19T11:07:50Z</time>
      </trkpt>
      <trkpt lat="46.2677" lon="5.86942">
        <ele>1284</ele>
        <time>2012-05-19T11:08:05Z</time>
      </trkpt>
      <trkpt lat="46.26749" lon="5.86925">
        <ele>1289</ele>
        <time>2012-05-19T11:08:23Z</time>
      </trkpt>
      <trkpt lat="46.26727" lon="5.86923">
        <ele>1291</ele>
        <time>2012-05-19T11:08:40Z</time>
      </trkpt>
      <trkpt lat="46.26704" lon="5.86919">
        <ele>1292</ele>
        <time>2012-05-19T11:09:00Z</time>
      </trkpt>
      <trkpt lat="46.26682" lon="5.86915">
        <ele>1293</ele>
        <time>2012-05-19T11:09:18Z</time>
      </trkpt>
      <trkpt lat="46.26658" lon="5.86912">
        <ele>1295</ele>
        <time>2012-05-19T11:09:36Z</time>
      </trkpt>
      <trkpt lat="46.26636" lon="5.86912">
        <ele>1296</ele>
        <time>2012-05-19T11:09:53Z</time>
      </trkpt>
      <trkpt lat="46.26612" lon="5.86906">
        <ele>1296</ele>
        <time>2012-05-19T11:10:07Z</time>
      </trkpt>
      <trkpt lat="46.26589" lon="5.86906">
        <ele>1297</ele>
        <time>2012-05-19T11:10:20Z</time>
      </trkpt>
      <trkpt lat="46.26566" lon="5.86897">
        <ele>1296</ele>
        <time>2012-05-19T11:10:33Z</time>
      </trkpt>
      <trkpt lat="46.26545" lon="5.86887">
        <ele>1295</ele>
        <time>2012-05-19T11:11:01Z</time>
      </trkpt>
      <trkpt lat="46.26564" lon="5.86904">
        <ele>1296</ele>
        <time>2012-05-19T11:13:01Z</time>
      </trkpt>
      <trkpt lat="46.26541" lon="5.86906">
        <ele>1294</ele>
        <time>2012-05-19T11:22:19Z</time>
      </trkpt>
      <trkpt lat="46.26521" lon="5.86891">
        <ele>1293</ele>
        <time>2012-05-19T11:22:30Z</time>
      </trkpt>
      <trkpt lat="46.26498" lon="5.86887">
        <ele>1290</ele>
        <time>2012-05-19T11:23:52Z</time>
      </trkpt>
      <trkpt lat="46.26477" lon="5.86872">
        <ele>1290</ele>
        <time>2012-05-19T11:24:03Z</time>
      </trkpt>
      <trkpt lat="46.26457" lon="5.86857">
        <ele>1290</ele>
        <time>2012-05-19T11:24:11Z</time>
      </trkpt>
      <trkpt lat="46.26434" lon="5.86844">
        <ele>1291</ele>
        <time>2012-05-19T11:24:20Z</time>
      </trkpt>
      <trkpt lat="46.26414" lon="5.86859">
        <ele>1287</ele>
        <time>2012-05-19T11:24:29Z</time>
      </trkpt>
      <trkpt lat="46.26391" lon="5.86861">
        <ele>1286</ele>
        <time>2012-05-19T11:24:39Z</time>
      </trkpt>
      <trkpt lat="46.26367" lon="5.86857">
        <ele>1285</ele>
        <time>2012-05-19T11:24:50Z</time>
      </trkpt>
      <trkpt lat="46.26344" lon="5.86848">
        <ele>1287</ele>
        <time>2012-05-19T11:25:01Z</time>
      </trkpt>
      <trkpt lat="46.26322" lon="5.86833">
        <ele>1293</ele>
        <time>2012-05-19T11:25:11Z</time>
      </trkpt>
      <trkpt lat="46.26299" lon="5.86827">
        <ele>1294</ele>
        <time>2012-05-19T11:25:22Z</time>
      </trkpt>
      <trkpt lat="46.26275" lon="5.86818">
        <ele>1294</ele>
        <time>2012-05-19T11:25:36Z</time>
      </trkpt>
      <trkpt lat="46.26253" lon="5.86809">
        <ele>1293</ele>
        <time>2012-05-19T11:25:53Z</time>
      </trkpt>
      <trkpt lat="46.26231" lon="5.86797">
        <ele>1292</ele>
        <time>2012-05-19T11:26:10Z</time>
      </trkpt>
      <trkpt lat="46.26209" lon="5.86786">
        <ele>1293</ele>
        <time>2012-05-19T11:26:26Z</time>
      </trkpt>
      <trkpt lat="46.26186" lon="5.86782">
        <ele>1292</ele>
        <time>2012-05-19T11:26:42Z</time>
      </trkpt>
      <trkpt lat="46.26163" lon="5.86782">
        <ele>1285</ele>
        <time>2012-05-19T11:26:58Z</time>
      </trkpt>
      <trkpt lat="46.26141" lon="5.86767">
        <ele>1285</ele>
        <time>2012-05-19T11:27:09Z</time>
      </trkpt>
      <trkpt lat="46.26119" lon="5.86754">
        <ele>1282</ele>
        <time>2012-05-19T11:27:19Z</time>
      </trkpt>
      <trkpt lat="46.26097" lon="5.86736">
        <ele>1290</ele>
        <time>2012-05-19T11:27:29Z</time>
      </trkpt>
      <trkpt lat="46.26077" lon="5.86717">
        <ele>1286</ele>
        <time>2012-05-19T11:27:41Z</time>
      </trkpt>
      <trkpt lat="46.26056" lon="5.867">
        <ele>1288</ele>
        <time>2012-05-19T11:27:55Z</time>
      </trkpt>
      <trkpt lat="46.26034" lon="5.86696">
        <ele>1286</ele>
        <time>2012-05-19T11:28:08Z</time>
      </trkpt>
      <trkpt lat="46.26015" lon="5.86715">
        <ele>1283</ele>
        <time>2012-05-19T11:28:22Z</time>
      </trkpt>
      <trkpt lat="46.25995" lon="5.86732">
        <ele>1279</ele>
        <time>2012-05-19T11:28:34Z</time>
      </trkpt>
      <trkpt lat="46.25973" lon="5.86732">
        <ele>1281</ele>
        <time>2012-05-19T11:28:47Z</time>
      </trkpt>
      <trkpt lat="46.2595" lon="5.86734">
        <ele>1282</ele>
        <time>2012-05-19T11:29:26Z</time>
      </trkpt>
      <trkpt lat="46.2593" lon="5.86749">
        <ele>1284</ele>
        <time>2012-05-19T11:30:01Z</time>
      </trkpt>
      <trkpt lat="46.25908" lon="5.8676">
        <ele>1292</ele>
        <time>2012-05-19T11:30:33Z</time>
      </trkpt>
      <trkpt lat="46.25886" lon="5.86762">
        <ele>1299</ele>
        <time>2012-05-19T11:31:01Z</time>
      </trkpt>
      <trkpt lat="46.2587" lon="5.86739">
        <ele>1300</ele>
        <time>2012-05-19T11:31:46Z</time>
      </trkpt>
      <trkpt lat="46.25853" lon="5.86717">
        <ele>1302</ele>
        <time>2012-05-19T11:32:11Z</time>
      </trkpt>
      <trkpt lat="46.25832" lon="5.867">
        <ele>1318</ele>
        <time>2012-05-19T11:32:39Z</time>
      </trkpt>
      <trkpt lat="46.25814" lon="5.86681">
        <ele>1318</ele>
        <time>2012-05-19T11:32:59Z</time>
      </trkpt>
      <trkpt lat="46.25792" lon="5.8667">
        <ele>1322</ele>
        <time>2012-05-19T11:33:22Z</time>
      </trkpt>
      <trkpt lat="46.25771" lon="5.86653">
        <ele>1322</ele>
        <time>2012-05-19T11:33:40Z</time>
      </trkpt>
      <trkpt lat="46.2575" lon="5.8664">
        <ele>1337</ele>
        <time>2012-05-19T11:33:58Z</time>
      </trkpt>
      <trkpt lat="46.25731" lon="5.86618">
        <ele>1338</ele>
        <time>2012-05-19T11:34:19Z</time>
      </trkpt>
      <trkpt lat="46.2571" lon="5.86606">
        <ele>1340</ele>
        <time>2012-05-19T11:34:36Z</time>
      </trkpt>
      <trkpt lat="46.25688" lon="5.86595">
        <ele>1344</ele>
        <time>2012-05-19T11:34:52Z</time>
      </trkpt>
      <trkpt lat="46.25667" lon="5.8658">
        <ele>1347</ele>
        <time>2012-05-19T11:35:18Z</time>
      </trkpt>
      <trkpt lat="46.25645" lon="5.86567">
        <ele>1357</ele>
        <time>2012-05-19T11:35:37Z</time>
      </trkpt>
      <trkpt lat="46.25624" lon="5.86556">
        <ele>1361</ele>
        <time>2012-05-19T11:36:03Z</time>
      </trkpt>
      <trkpt lat="46.25603" lon="5.86543">
        <ele>1364</ele>
        <time>2012-05-19T11:36:37Z</time>
      </trkpt>
      <trkpt lat="46.2558" lon="5.86537">
        <ele>1382</ele>
        <time>2012-05-19T11:37:03Z</time>
      </trkpt>
      <trkpt lat="46.25559" lon="5.86548">
        <ele>1384</ele>
        <time>2012-05-19T11:37:42Z</time>
      </trkpt>
      <trkpt lat="46.25551" lon="5.8658">
        <ele>1383</ele>
        <time>2012-05-19T11:38:22Z</time>
      </trkpt>
      <trkpt lat="46.25555" lon="5.86612">
        <ele>1379</ele>
        <time>2012-05-19T11:38:47Z</time>
      </trkpt>
      <trkpt lat="46.25533" lon="5.86616">
        <ele>1380</ele>
        <time>2012-05-19T11:39:18Z</time>
      </trkpt>
      <trkpt lat="46.25509" lon="5.86608">
        <ele>1382</ele>
        <time>2012-05-19T11:39:40Z</time>
      </trkpt>
      <trkpt lat="46.25488" lon="5.86593">
        <ele>1385</ele>
        <time>2012-05-19T11:39:55Z</time>
      </trkpt>
      <trkpt lat="46.25466" lon="5.86582">
        <ele>1398</ele>
        <time>2012-05-19T11:40:17Z</time>
      </trkpt>
      <trkpt lat="46.25445" lon="5.86571">
        <ele>1399</ele>
        <time>2012-05-19T11:40:37Z</time>
      </trkpt>
      <trkpt lat="46.25422" lon="5.86565">
        <ele>1398</ele>
        <time>2012-05-19T11:40:51Z</time>
      </trkpt>
      <trkpt lat="46.254" lon="5.86558">
        <ele>1399</ele>
        <time>2012-05-19T11:41:14Z</time>
      </trkpt>
      <trkpt lat="46.25377" lon="5.86552">
        <ele>1400</ele>
        <time>2012-05-19T11:41:27Z</time>
      </trkpt>
      <trkpt lat="46.25358" lon="5.86533">
        <ele>1403</ele>
        <time>2012-05-19T11:41:44Z</time>
      </trkpt>
      <trkpt lat="46.2534" lon="5.86513">
        <ele>1409</ele>
        <time>2012-05-19T11:42:04Z</time>
      </trkpt>
      <trkpt lat="46.2532" lon="5.86496">
        <ele>1415</ele>
        <time>2012-05-19T11:42:27Z</time>
      </trkpt>
      <trkpt lat="46.253" lon="5.86479">
        <ele>1414</ele>
        <time>2012-05-19T11:42:45Z</time>
      </trkpt>
      <trkpt lat="46.25282" lon="5.86458">
        <ele>1414</ele>
        <time>2012-05-19T11:43:07Z</time>
      </trkpt>
      <trkpt lat="46.25267" lon="5.86432">
        <ele>1418</ele>
        <time>2012-05-19T11:43:47Z</time>
      </trkpt>
      <trkpt lat="46.2525" lon="5.8641">
        <ele>1421</ele>
        <time>2012-05-19T11:44:21Z</time>
      </trkpt>
      <trkpt lat="46.25238" lon="5.86382">
        <ele>1424</ele>
        <time>2012-05-19T11:44:44Z</time>
      </trkpt>
      <trkpt lat="46.25228" lon="5.86352">
        <ele>1427</ele>
        <time>2012-05-19T11:45:21Z</time>
      </trkpt>
      <trkpt lat="46.25243" lon="5.86327">
        <ele>1438</ele>
        <time>2012-05-19T11:45:56Z</time>
      </trkpt>
      <trkpt lat="46.25261" lon="5.86307">
        <ele>1439</ele>
        <time>2012-05-19T11:46:24Z</time>
      </trkpt>
      <trkpt lat="46.25254" lon="5.86275">
        <ele>1442</ele>
        <time>2012-05-19T11:47:08Z</time>
      </trkpt>
      <trkpt lat="46.25231" lon="5.86273">
        <ele>1447</ele>
        <time>2012-05-19T11:49:02Z</time>
      </trkpt>
      <trkpt lat="46.25217" lon="5.86247">
        <ele>1462</ele>
        <time>2012-05-19T11:50:37Z</time>
      </trkpt>
      <trkpt lat="46.252" lon="5.86226">
        <ele>1466</ele>
        <time>2012-05-19T11:51:44Z</time>
      </trkpt>
      <trkpt lat="46.25179" lon="5.86213">
        <ele>1470</ele>
        <time>2012-05-19T11:52:29Z</time>
      </trkpt>
      <trkpt lat="46.25157" lon="5.862">
        <ele>1487</ele>
        <time>2012-05-19T11:52:58Z</time>
      </trkpt>
      <trkpt lat="46.25137" lon="5.86185">
        <ele>1490</ele>
        <time>2012-05-19T11:53:36Z</time>
      </trkpt>
      <trkpt lat="46.25114" lon="5.86181">
        <ele>1494</ele>
        <time>2012-05-19T11:54:15Z</time>
      </trkpt>
      <trkpt lat="46.25093" lon="5.86168">
        <ele>1505</ele>
        <time>2012-05-19T11:54:52Z</time>
      </trkpt>
      <trkpt lat="46.25071" lon="5.86157">
        <ele>1512</ele>
        <time>2012-05-19T11:55:27Z</time>
      </trkpt>
      <trkpt lat="46.25049" lon="5.86149">
        <ele>1511</ele>
        <time>2012-05-19T11:56:10Z</time>
      </trkpt>
      <trkpt lat="46.25026" lon="5.86153">
        <ele>1510</ele>
        <time>2012-05-19T11:59:25Z</time>
      </trkpt>
      <trkpt lat="46.25004" lon="5.86151">
        <ele>1510</ele>
        <time>2012-05-19T12:00:07Z</time>
      </trkpt>
      <trkpt lat="46.2498" lon="5.86149">
        <ele>1499</ele>
        <time>2012-05-19T12:00:28Z</time>
      </trkpt>
      <trkpt lat="46.24966" lon="5.86123">
        <ele>1496</ele>
        <time>2012-05-19T12:00:43Z</time>
      </trkpt>
      <trkpt lat="46.24952" lon="5.86097">
        <ele>1494</ele>
        <time>2012-05-19T12:01:01Z</time>
      </trkpt>
      <trkpt lat="46.24934" lon="5.86076">
        <ele>1486</ele>
        <time>2012-05-19T12:01:11Z</time>
      </trkpt>
      <trkpt lat="46.24929" lon="5.86043">
        <ele>1483</ele>
        <time>2012-05-19T12:01:29Z</time>
      </trkpt>
      <trkpt lat="46.24941" lon="5.86016">
        <ele>1480</ele>
        <time>2012-05-19T12:02:08Z</time>
      </trkpt>
      <trkpt lat="46.24962" lon="5.86">
        <ele>1481</ele>
        <time>2012-05-19T12:02:53Z</time>
      </trkpt>
      <trkpt lat="46.24983" lon="5.85983">
        <ele>1465</ele>
        <time>2012-05-19T12:03:06Z</time>
      </trkpt>
      <trkpt lat="46.25006" lon="5.85973">
        <ele>1467</ele>
        <time>2012-05-19T12:03:18Z</time>
      </trkpt>
      <trkpt lat="46.2503" lon="5.85962">
        <ele>1465</ele>
        <time>2012-05-19T12:03:31Z</time>
      </trkpt>
      <trkpt lat="46.25051" lon="5.85951">
        <ele>1464</ele>
        <time>2012-05-19T12:03:42Z</time>
      </trkpt>
      <trkpt lat="46.25075" lon="5.8594">
        <ele>1463</ele>
        <time>2012-05-19T12:03:55Z</time>
      </trkpt>
      <trkpt lat="46.25093" lon="5.85921">
        <ele>1461</ele>
        <time>2012-05-19T12:04:07Z</time>
      </trkpt>
      <trkpt lat="46.2511" lon="5.85897">
        <ele>1453</ele>
        <time>2012-05-19T12:04:20Z</time>
      </trkpt>
      <trkpt lat="46.25125" lon="5.85872">
        <ele>1451</ele>
        <time>2012-05-19T12:04:54Z</time>
      </trkpt>
      <trkpt lat="46.25139" lon="5.85846">
        <ele>1450</ele>
        <time>2012-05-19T12:05:13Z</time>
      </trkpt>
      <trkpt lat="46.25148" lon="5.85814">
        <ele>1443</ele>
        <time>2012-05-19T12:05:25Z</time>
      </trkpt>
      <trkpt lat="46.2515" lon="5.85779">
        <ele>1442</ele>
        <time>2012-05-19T12:05:40Z</time>
      </trkpt>
      <trkpt lat="46.25145" lon="5.85747">
        <ele>1440</ele>
        <time>2012-05-19T12:05:51Z</time>
      </trkpt>
      <trkpt lat="46.25163" lon="5.85724">
        <ele>1440</ele>
        <time>2012-05-19T12:06:02Z</time>
      </trkpt>
      <trkpt lat="46.2518" lon="5.85702">
        <ele>1441</ele>
        <time>2012-05-19T12:06:18Z</time>
      </trkpt>
      <trkpt lat="46.25194" lon="5.85676">
        <ele>1439</ele>
        <time>2012-05-19T12:06:44Z</time>
      </trkpt>
      <trkpt lat="46.25218" lon="5.85668">
        <ele>1438</ele>
        <time>2012-05-19T12:06:58Z</time>
      </trkpt>
      <trkpt lat="46.25242" lon="5.85672">
        <ele>1435</ele>
        <time>2012-05-19T12:07:09Z</time>
      </trkpt>
      <trkpt lat="46.25266" lon="5.85676">
        <ele>1430</ele>
        <time>2012-05-19T12:07:22Z</time>
      </trkpt>
      <trkpt lat="46.25287" lon="5.85687">
        <ele>1428</ele>
        <time>2012-05-19T12:07:36Z</time>
      </trkpt>
      <trkpt lat="46.25307" lon="5.85704">
        <ele>1427</ele>
        <time>2012-05-19T12:07:57Z</time>
      </trkpt>
      <trkpt lat="46.25328" lon="5.85719">
        <ele>1425</ele>
        <time>2012-05-19T12:08:13Z</time>
      </trkpt>
      <trkpt lat="46.25348" lon="5.85734">
        <ele>1417</ele>
        <time>2012-05-19T12:08:30Z</time>
      </trkpt>
      <trkpt lat="46.25372" lon="5.85737">
        <ele>1414</ele>
        <time>2012-05-19T12:08:50Z</time>
      </trkpt>
      <trkpt lat="46.25394" lon="5.85749">
        <ele>1411</ele>
        <time>2012-05-19T12:09:03Z</time>
      </trkpt>
      <trkpt lat="46.25416" lon="5.85764">
        <ele>1411</ele>
        <time>2012-05-19T12:09:13Z</time>
      </trkpt>
      <trkpt lat="46.25436" lon="5.85782">
        <ele>1404</ele>
        <time>2012-05-19T12:09:24Z</time>
      </trkpt>
      <trkpt lat="46.25457" lon="5.85799">
        <ele>1403</ele>
        <time>2012-05-19T12:09:34Z</time>
      </trkpt>
      <trkpt lat="46.25474" lon="5.8582">
        <ele>1402</ele>
        <time>2012-05-19T12:09:46Z</time>
      </trkpt>
      <trkpt lat="46.25494" lon="5.85837">
        <ele>1400</ele>
        <time>2012-05-19T12:09:56Z</time>
      </trkpt>
      <trkpt lat="46.25516" lon="5.8585">
        <ele>1396</ele>
        <time>2012-05-19T12:10:07Z</time>
      </trkpt>
      <trkpt lat="46.25536" lon="5.85865">
        <ele>1394</ele>
        <time>2012-05-19T12:10:19Z</time>
      </trkpt>
      <trkpt lat="46.25557" lon="5.8588">
        <ele>1393</ele>
        <time>2012-05-19T12:10:28Z</time>
      </trkpt>
      <trkpt lat="46.25576" lon="5.859">
        <ele>1391</ele>
        <time>2012-05-19T12:10:37Z</time>
      </trkpt>
      <trkpt lat="46.25597" lon="5.8591">
        <ele>1385</ele>
        <time>2012-05-19T12:10:52Z</time>
      </trkpt>
      <trkpt lat="46.25615" lon="5.8593">
        <ele>1384</ele>
        <time>2012-05-19T12:11:07Z</time>
      </trkpt>
      <trkpt lat="46.25634" lon="5.85949">
        <ele>1383</ele>
        <time>2012-05-19T12:11:20Z</time>
      </trkpt>
      <trkpt lat="46.25653" lon="5.85966">
        <ele>1381</ele>
        <time>2012-05-19T12:11:36Z</time>
      </trkpt>
      <trkpt lat="46.25671" lon="5.85985">
        <ele>1374</ele>
        <time>2012-05-19T12:11:49Z</time>
      </trkpt>
      <trkpt lat="46.25688" lon="5.86007">
        <ele>1374</ele>
        <time>2012-05-19T12:12:02Z</time>
      </trkpt>
      <trkpt lat="46.25708" lon="5.86028">
        <ele>1373</ele>
        <time>2012-05-19T12:12:15Z</time>
      </trkpt>
      <trkpt lat="46.25727" lon="5.86046">
        <ele>1371</ele>
        <time>2012-05-19T12:12:28Z</time>
      </trkpt>
      <trkpt lat="46.25746" lon="5.86063">
        <ele>1370</ele>
        <time>2012-05-19T12:12:41Z</time>
      </trkpt>
      <trkpt lat="46.25766" lon="5.8608">
        <ele>1364</ele>
        <time>2012-05-19T12:12:53Z</time>
      </trkpt>
      <trkpt lat="46.25786" lon="5.86097">
        <ele>1365</ele>
        <time>2012-05-19T12:13:10Z</time>
      </trkpt>
      <trkpt lat="46.25805" lon="5.86114">
        <ele>1364</ele>
        <time>2012-05-19T12:13:22Z</time>
      </trkpt>
      <trkpt lat="46.25825" lon="5.86134">
        <ele>1364</ele>
        <time>2012-05-19T12:13:38Z</time>
      </trkpt>
      <trkpt lat="46.25841" lon="5.86157">
        <ele>1360</ele>
        <time>2012-05-19T12:13:47Z</time>
      </trkpt>
      <trkpt lat="46.25858" lon="5.86179">
        <ele>1360</ele>
        <time>2012-05-19T12:13:56Z</time>
      </trkpt>
      <trkpt lat="46.25878" lon="5.86196">
        <ele>1360</ele>
        <time>2012-05-19T12:14:08Z</time>
      </trkpt>
      <trkpt lat="46.25899" lon="5.86215">
        <ele>1359</ele>
        <time>2012-05-19T12:14:21Z</time>
      </trkpt>
      <trkpt lat="46.25916" lon="5.86237">
        <ele>1357</ele>
        <time>2012-05-19T12:14:35Z</time>
      </trkpt>
      <trkpt lat="46.25934" lon="5.86256">
        <ele>1353</ele>
        <time>2012-05-19T12:14:49Z</time>
      </trkpt>
      <trkpt lat="46.25952" lon="5.86275">
        <ele>1351</ele>
        <time>2012-05-19T12:14:59Z</time>
      </trkpt>
      <trkpt lat="46.25969" lon="5.86297">
        <ele>1349</ele>
        <time>2012-05-19T12:15:09Z</time>
      </trkpt>
      <trkpt lat="46.25984" lon="5.86322">
        <ele>1346</ele>
        <time>2012-05-19T12:15:20Z</time>
      </trkpt>
      <trkpt lat="46.26002" lon="5.86346">
        <ele>1339</ele>
        <time>2012-05-19T12:15:31Z</time>
      </trkpt>
      <trkpt lat="46.26021" lon="5.86363">
        <ele>1338</ele>
        <time>2012-05-19T12:15:41Z</time>
      </trkpt>
      <trkpt lat="46.26038" lon="5.86387">
        <ele>1337</ele>
        <time>2012-05-19T12:15:52Z</time>
      </trkpt>
      <trkpt lat="46.26057" lon="5.86404">
        <ele>1335</ele>
        <time>2012-05-19T12:16:05Z</time>
      </trkpt>
      <trkpt lat="46.26075" lon="5.86425">
        <ele>1333</ele>
        <time>2012-05-19T12:16:15Z</time>
      </trkpt>
      <trkpt lat="46.26095" lon="5.86443">
        <ele>1329</ele>
        <time>2012-05-19T12:16:28Z</time>
      </trkpt>
      <trkpt lat="46.26114" lon="5.86462">
        <ele>1328</ele>
        <time>2012-05-19T12:16:39Z</time>
      </trkpt>
      <trkpt lat="46.26134" lon="5.86481">
        <ele>1326</ele>
        <time>2012-05-19T12:16:49Z</time>
      </trkpt>
      <trkpt lat="46.26152" lon="5.865">
        <ele>1324</ele>
        <time>2012-05-19T12:16:58Z</time>
      </trkpt>
      <trkpt lat="46.2617" lon="5.8652">
        <ele>1321</ele>
        <time>2012-05-19T12:17:08Z</time>
      </trkpt>
      <trkpt lat="46.2619" lon="5.86535">
        <ele>1321</ele>
        <time>2012-05-19T12:17:19Z</time>
      </trkpt>
      <trkpt lat="46.26208" lon="5.86558">
        <ele>1321</ele>
        <time>2012-05-19T12:17:30Z</time>
      </trkpt>
      <trkpt lat="46.26226" lon="5.86578">
        <ele>1320</ele>
        <time>2012-05-19T12:17:40Z</time>
      </trkpt>
      <trkpt lat="46.26244" lon="5.86597">
        <ele>1320</ele>
        <time>2012-05-19T12:17:49Z</time>
      </trkpt>
      <trkpt lat="46.26262" lon="5.86616">
        <ele>1315</ele>
        <time>2012-05-19T12:17:59Z</time>
      </trkpt>
      <trkpt lat="46.26282" lon="5.86633">
        <ele>1314</ele>
        <time>2012-05-19T12:18:12Z</time>
      </trkpt>
      <trkpt lat="46.26302" lon="5.86649">
        <ele>1313</ele>
        <time>2012-05-19T12:18:25Z</time>
      </trkpt>
      <trkpt lat="46.26324" lon="5.86659">
        <ele>1310</ele>
        <time>2012-05-19T12:18:35Z</time>
      </trkpt>
      <trkpt lat="46.26346" lon="5.86672">
        <ele>1306</ele>
        <time>2012-05-19T12:18:43Z</time>
      </trkpt>
      <trkpt lat="46.26369" lon="5.86687">
        <ele>1304</ele>
        <time>2012-05-19T12:18:54Z</time>
      </trkpt>
      <trkpt lat="46.26387" lon="5.86709">
        <ele>1303</ele>
        <time>2012-05-19T12:19:13Z</time>
      </trkpt>
      <trkpt lat="46.26396" lon="5.86739">
        <ele>1301</ele>
        <time>2012-05-19T12:19:25Z</time>
      </trkpt>
      <trkpt lat="46.26409" lon="5.86771">
        <ele>1297</ele>
        <time>2012-05-19T12:19:35Z</time>
      </trkpt>
      <trkpt lat="46.26425" lon="5.86799">
        <ele>1295</ele>
        <time>2012-05-19T12:19:46Z</time>
      </trkpt>
      <trkpt lat="46.26446" lon="5.86814">
        <ele>1295</ele>
        <time>2012-05-19T12:19:55Z</time>
      </trkpt>
      <trkpt lat="46.26466" lon="5.86831">
        <ele>1295</ele>
        <time>2012-05-19T12:20:06Z</time>
      </trkpt>
      <trkpt lat="46.26482" lon="5.86855">
        <ele>1291</ele>
        <time>2012-05-19T12:20:21Z</time>
      </trkpt>
      <trkpt lat="46.26501" lon="5.86874">
        <ele>1294</ele>
        <time>2012-05-19T12:20:37Z</time>
      </trkpt>
      <trkpt lat="46.26522" lon="5.86887">
        <ele>1294</ele>
        <time>2012-05-19T12:20:53Z</time>
      </trkpt>
      <trkpt lat="46.2651" lon="5.86915">
        <ele>1292</ele>
        <time>2012-05-19T12:24:34Z</time>
      </trkpt>
      <trkpt lat="46.26488" lon="5.86921">
        <ele>1287</ele>
        <time>2012-05-19T12:24:52Z</time>
      </trkpt>
      <trkpt lat="46.26465" lon="5.86917">
        <ele>1284</ele>
        <time>2012-05-19T12:25:30Z</time>
      </trkpt>
      <trkpt lat="46.26458" lon="5.86949">
        <ele>1282</ele>
        <time>2012-05-19T12:25:40Z</time>
      </trkpt>
      <trkpt lat="46.26446" lon="5.86979">
        <ele>1280</ele>
        <time>2012-05-19T12:25:50Z</time>
      </trkpt>
      <trkpt lat="46.26422" lon="5.86988">
        <ele>1274</ele>
        <time>2012-05-19T12:26:01Z</time>
      </trkpt>
      <trkpt lat="46.26415" lon="5.8702">
        <ele>1263</ele>
        <time>2012-05-19T12:26:14Z</time>
      </trkpt>
      <trkpt lat="46.26413" lon="5.87054">
        <ele>1260</ele>
        <time>2012-05-19T12:26:24Z</time>
      </trkpt>
      <trkpt lat="46.26403" lon="5.87084">
        <ele>1258</ele>
        <time>2012-05-19T12:26:34Z</time>
      </trkpt>
      <trkpt lat="46.26379" lon="5.87095">
        <ele>1253</ele>
        <time>2012-05-19T12:26:45Z</time>
      </trkpt>
      <trkpt lat="46.26355" lon="5.87106">
        <ele>1249</ele>
        <time>2012-05-19T12:26:55Z</time>
      </trkpt>
      <trkpt lat="46.26331" lon="5.87099">
        <ele>1239</ele>
        <time>2012-05-19T12:27:06Z</time>
      </trkpt>
      <trkpt lat="46.26308" lon="5.87103">
        <ele>1237</ele>
        <time>2012-05-19T12:27:18Z</time>
      </trkpt>
      <trkpt lat="46.26293" lon="5.87129">
        <ele>1235</ele>
        <time>2012-05-19T12:27:46Z</time>
      </trkpt>
      <trkpt lat="46.263" lon="5.87161">
        <ele>1234</ele>
        <time>2012-05-19T12:28:00Z</time>
      </trkpt>
      <trkpt lat="46.26312" lon="5.87191">
        <ele>1230</ele>
        <time>2012-05-19T12:28:10Z</time>
      </trkpt>
      <trkpt lat="46.26289" lon="5.87202">
        <ele>1227</ele>
        <time>2012-05-19T12:28:24Z</time>
      </trkpt>
      <trkpt lat="46.2627" lon="5.87221">
        <ele>1224</ele>
        <time>2012-05-19T12:28:35Z</time>
      </trkpt>
      <trkpt lat="46.26265" lon="5.87254">
        <ele>1220</ele>
        <time>2012-05-19T12:29:21Z</time>
      </trkpt>
      <trkpt lat="46.26246" lon="5.87275">
        <ele>1216</ele>
        <time>2012-05-19T12:29:41Z</time>
      </trkpt>
      <trkpt lat="46.26229" lon="5.87299">
        <ele>1216</ele>
        <time>2012-05-19T12:29:57Z</time>
      </trkpt>
      <trkpt lat="46.26215" lon="5.87324">
        <ele>1216</ele>
        <time>2012-05-19T12:30:14Z</time>
      </trkpt>
      <trkpt lat="46.26196" lon="5.87342">
        <ele>1213</ele>
        <time>2012-05-19T12:30:29Z</time>
      </trkpt>
      <trkpt lat="46.26173" lon="5.8735">
        <ele>1211</ele>
        <time>2012-05-19T12:30:40Z</time>
      </trkpt>
      <trkpt lat="46.26156" lon="5.87372">
        <ele>1204</ele>
        <time>2012-05-19T12:30:53Z</time>
      </trkpt>
      <trkpt lat="46.26141" lon="5.87397">
        <ele>1201</ele>
        <time>2012-05-19T12:31:05Z</time>
      </trkpt>
      <trkpt lat="46.26124" lon="5.87423">
        <ele>1193</ele>
        <time>2012-05-19T12:31:19Z</time>
      </trkpt>
      <trkpt lat="46.26105" lon="5.87442">
        <ele>1191</ele>
        <time>2012-05-19T12:31:33Z</time>
      </trkpt>
      <trkpt lat="46.26085" lon="5.87464">
        <ele>1188</ele>
        <time>2012-05-19T12:31:44Z</time>
      </trkpt>
      <trkpt lat="46.26065" lon="5.87479">
        <ele>1180</ele>
        <time>2012-05-19T12:31:57Z</time>
      </trkpt>
      <trkpt lat="46.26045" lon="5.87494">
        <ele>1178</ele>
        <time>2012-05-19T12:32:12Z</time>
      </trkpt>
      <trkpt lat="46.26026" lon="5.87513">
        <ele>1158</ele>
        <time>2012-05-19T12:32:26Z</time>
      </trkpt>
      <trkpt lat="46.26006" lon="5.87528">
        <ele>1155</ele>
        <time>2012-05-19T12:32:38Z</time>
      </trkpt>
      <trkpt lat="46.25988" lon="5.87548">
        <ele>1135</ele>
        <time>2012-05-19T12:32:57Z</time>
      </trkpt>
      <trkpt lat="46.25965" lon="5.87554">
        <ele>1132</ele>
        <time>2012-05-19T12:33:14Z</time>
      </trkpt>
      <trkpt lat="46.25949" lon="5.87578">
        <ele>1125</ele>
        <time>2012-05-19T12:33:35Z</time>
      </trkpt>
      <trkpt lat="46.25949" lon="5.87612">
        <ele>1100</ele>
        <time>2012-05-19T12:34:02Z</time>
      </trkpt>
      <trkpt lat="46.25932" lon="5.87636">
        <ele>1093</ele>
        <time>2012-05-19T12:34:18Z</time>
      </trkpt>
      <trkpt lat="46.25912" lon="5.87653">
        <ele>1084</ele>
        <time>2012-05-19T12:34:37Z</time>
      </trkpt>
      <trkpt lat="46.25899" lon="5.87681">
        <ele>1072</ele>
        <time>2012-05-19T12:35:20Z</time>
      </trkpt>
      <trkpt lat="46.25889" lon="5.87711">
        <ele>1068</ele>
        <time>2012-05-19T12:35:32Z</time>
      </trkpt>
      <trkpt lat="46.25872" lon="5.87732">
        <ele>1066</ele>
        <time>2012-05-19T12:35:44Z</time>
      </trkpt>
      <trkpt lat="46.25853" lon="5.87749">
        <ele>1062</ele>
        <time>2012-05-19T12:35:55Z</time>
      </trkpt>
      <trkpt lat="46.25831" lon="5.87762">
        <ele>1052</ele>
        <time>2012-05-19T12:36:08Z</time>
      </trkpt>
      <trkpt lat="46.25813" lon="5.87781">
        <ele>1050</ele>
        <time>2012-05-19T12:36:23Z</time>
      </trkpt>
      <trkpt lat="46.25798" lon="5.87809">
        <ele>1048</ele>
        <time>2012-05-19T12:36:41Z</time>
      </trkpt>
      <trkpt lat="46.25786" lon="5.87839">
        <ele>1034</ele>
        <time>2012-05-19T12:36:51Z</time>
      </trkpt>
      <trkpt lat="46.25775" lon="5.87869">
        <ele>1033</ele>
        <time>2012-05-19T12:37:06Z</time>
      </trkpt>
      <trkpt lat="46.25767" lon="5.87902">
        <ele>1031</ele>
        <time>2012-05-19T12:37:19Z</time>
      </trkpt>
      <trkpt lat="46.25753" lon="5.87927">
        <ele>1027</ele>
        <time>2012-05-19T12:37:30Z</time>
      </trkpt>
      <trkpt lat="46.25738" lon="5.87953">
        <ele>1050</ele>
        <time>2012-05-19T12:37:44Z</time>
      </trkpt>
      <trkpt lat="46.25737" lon="5.87987">
        <ele>1039</ele>
        <time>2012-05-19T12:37:58Z</time>
      </trkpt>
      <trkpt lat="46.25736" lon="5.88022">
        <ele>1029</ele>
        <time>2012-05-19T12:38:18Z</time>
      </trkpt>
      <trkpt lat="46.25729" lon="5.88054">
        <ele>1028</ele>
        <time>2012-05-19T12:38:41Z</time>
      </trkpt>
      <trkpt lat="46.25719" lon="5.88084">
        <ele>1015</ele>
        <time>2012-05-19T12:38:57Z</time>
      </trkpt>
      <trkpt lat="46.25701" lon="5.88105">
        <ele>1020</ele>
        <time>2012-05-19T12:39:13Z</time>
      </trkpt>
      <trkpt lat="46.25682" lon="5.88125">
        <ele>1022</ele>
        <time>2012-05-19T12:39:26Z</time>
      </trkpt>
      <trkpt lat="46.25666" lon="5.88148">
        <ele>1043</ele>
        <time>2012-05-19T12:39:38Z</time>
      </trkpt>
      <trkpt lat="46.2565" lon="5.88172">
        <ele>1027</ele>
        <time>2012-05-19T12:39:52Z</time>
      </trkpt>
      <trkpt lat="46.25637" lon="5.882">
        <ele>1028</ele>
        <time>2012-05-19T12:40:06Z</time>
      </trkpt>
      <trkpt lat="46.2562" lon="5.88221">
        <ele>1028</ele>
        <time>2012-05-19T12:40:15Z</time>
      </trkpt>
      <trkpt lat="46.25599" lon="5.88241">
        <ele>1030</ele>
        <time>2012-05-19T12:40:26Z</time>
      </trkpt>
      <trkpt lat="46.25586" lon="5.88269">
        <ele>1015</ele>
        <time>2012-05-19T12:40:35Z</time>
      </trkpt>
      <trkpt lat="46.25572" lon="5.88296">
        <ele>1038</ele>
        <time>2012-05-19T12:40:44Z</time>
      </trkpt>
      <trkpt lat="46.25554" lon="5.88322">
        <ele>1036</ele>
        <time>2012-05-19T12:40:52Z</time>
      </trkpt>
      <trkpt lat="46.25536" lon="5.88342">
        <ele>1020</ele>
        <time>2012-05-19T12:41:00Z</time>
      </trkpt>
      <trkpt lat="46.25517" lon="5.88363">
        <ele>1022</ele>
        <time>2012-05-19T12:41:09Z</time>
      </trkpt>
      <trkpt lat="46.255" lon="5.88384">
        <ele>1050</ele>
        <time>2012-05-19T12:41:19Z</time>
      </trkpt>
      <trkpt lat="46.25482" lon="5.88408">
        <ele>1043</ele>
        <time>2012-05-19T12:41:28Z</time>
      </trkpt>
      <trkpt lat="46.25469" lon="5.88438">
        <ele>1027</ele>
        <time>2012-05-19T12:41:36Z</time>
      </trkpt>
      <trkpt lat="46.25453" lon="5.88466">
        <ele>1027</ele>
        <time>2012-05-19T12:41:47Z</time>
      </trkpt>
      <trkpt lat="46.25442" lon="5.88496">
        <ele>1028</ele>
        <time>2012-05-19T12:41:57Z</time>
      </trkpt>
      <trkpt lat="46.25444" lon="5.8853">
        <ele>1002</ele>
        <time>2012-05-19T12:42:10Z</time>
      </trkpt>
      <trkpt lat="46.25441" lon="5.88563">
        <ele>998</ele>
        <time>2012-05-19T12:42:21Z</time>
      </trkpt>
      <trkpt lat="46.25419" lon="5.88573">
        <ele>1004</ele>
        <time>2012-05-19T12:42:35Z</time>
      </trkpt>
      <trkpt lat="46.25397" lon="5.88578">
        <ele>1015</ele>
        <time>2012-05-19T12:42:46Z</time>
      </trkpt>
      <trkpt lat="46.25374" lon="5.88584">
        <ele>990</ele>
        <time>2012-05-19T12:42:55Z</time>
      </trkpt>
      <trkpt lat="46.2535" lon="5.8859">
        <ele>990</ele>
        <time>2012-05-19T12:43:05Z</time>
      </trkpt>
      <trkpt lat="46.25326" lon="5.88586">
        <ele>988</ele>
        <time>2012-05-19T12:43:13Z</time>
      </trkpt>
      <trkpt lat="46.25302" lon="5.88578">
        <ele>1002</ele>
        <time>2012-05-19T12:43:22Z</time>
      </trkpt>
      <trkpt lat="46.25277" lon="5.88567">
        <ele>998</ele>
        <time>2012-05-19T12:43:35Z</time>
      </trkpt>
      <trkpt lat="46.25254" lon="5.88554">
        <ele>997</ele>
        <time>2012-05-19T12:43:41Z</time>
      </trkpt>
      <trkpt lat="46.25229" lon="5.88545">
        <ele>981</ele>
        <time>2012-05-19T12:43:48Z</time>
      </trkpt>
      <trkpt lat="46.25206" lon="5.88543">
        <ele>977</ele>
        <time>2012-05-19T12:43:57Z</time>
      </trkpt>
      <trkpt lat="46.25181" lon="5.8855">
        <ele>970</ele>
        <time>2012-05-19T12:44:06Z</time>
      </trkpt>
      <trkpt lat="46.25158" lon="5.88539">
        <ele>954</ele>
        <time>2012-05-19T12:44:18Z</time>
      </trkpt>
      <trkpt lat="46.25137" lon="5.88526">
        <ele>954</ele>
        <time>2012-05-19T12:44:30Z</time>
      </trkpt>
      <trkpt lat="46.25113" lon="5.88517">
        <ele>950</ele>
        <time>2012-05-19T12:44:39Z</time>
      </trkpt>
      <trkpt lat="46.2509" lon="5.88511">
        <ele>948</ele>
        <time>2012-05-19T12:44:48Z</time>
      </trkpt>
      <trkpt lat="46.25068" lon="5.88494">
        <ele>955</ele>
        <time>2012-05-19T12:44:57Z</time>
      </trkpt>
      <trkpt lat="46.25049" lon="5.88475">
        <ele>959</ele>
        <time>2012-05-19T12:45:04Z</time>
      </trkpt>
      <trkpt lat="46.25027" lon="5.88464">
        <ele>959</ele>
        <time>2012-05-19T12:45:11Z</time>
      </trkpt>
      <trkpt lat="46.25005" lon="5.88462">
        <ele>957</ele>
        <time>2012-05-19T12:45:20Z</time>
      </trkpt>
      <trkpt lat="46.24982" lon="5.88464">
        <ele>941</ele>
        <time>2012-05-19T12:45:31Z</time>
      </trkpt>
      <trkpt lat="46.24959" lon="5.88464">
        <ele>938</ele>
        <time>2012-05-19T12:45:40Z</time>
      </trkpt>
      <trkpt lat="46.24935" lon="5.8846">
        <ele>936</ele>
        <time>2012-05-19T12:45:49Z</time>
      </trkpt>
      <trkpt lat="46.24913" lon="5.88453">
        <ele>925</ele>
        <time>2012-05-19T12:45:58Z</time>
      </trkpt>
      <trkpt lat="46.2489" lon="5.88445">
        <ele>925</ele>
        <time>2012-05-19T12:46:05Z</time>
      </trkpt>
      <trkpt lat="46.24867" lon="5.8844">
        <ele>923</ele>
        <time>2012-05-19T12:46:13Z</time>
      </trkpt>
      <trkpt lat="46.24844" lon="5.88434">
        <ele>924</ele>
        <time>2012-05-19T12:46:22Z</time>
      </trkpt>
      <trkpt lat="46.24821" lon="5.88425">
        <ele>916</ele>
        <time>2012-05-19T12:46:32Z</time>
      </trkpt>
      <trkpt lat="46.24799" lon="5.88419">
        <ele>908</ele>
        <time>2012-05-19T12:46:43Z</time>
      </trkpt>
      <trkpt lat="46.24774" lon="5.88408">
        <ele>926</ele>
        <time>2012-05-19T12:46:55Z</time>
      </trkpt>
      <trkpt lat="46.2475" lon="5.88399">
        <ele>910</ele>
        <time>2012-05-19T12:47:04Z</time>
      </trkpt>
      <trkpt lat="46.24725" lon="5.88399">
        <ele>911</ele>
        <time>2012-05-19T12:47:14Z</time>
      </trkpt>
      <trkpt lat="46.24701" lon="5.88397">
        <ele>909</ele>
        <time>2012-05-19T12:47:23Z</time>
      </trkpt>
      <trkpt lat="46.24678" lon="5.88389">
        <ele>907</ele>
        <time>2012-05-19T12:47:33Z</time>
      </trkpt>
      <trkpt lat="46.24655" lon="5.88384">
        <ele>898</ele>
        <time>2012-05-19T12:47:41Z</time>
      </trkpt>
      <trkpt lat="46.24633" lon="5.88382">
        <ele>897</ele>
        <time>2012-05-19T12:47:49Z</time>
      </trkpt>
      <trkpt lat="46.2461" lon="5.88378">
        <ele>896</ele>
        <time>2012-05-19T12:48:00Z</time>
      </trkpt>
      <trkpt lat="46.24587" lon="5.88372">
        <ele>896</ele>
        <time>2012-05-19T12:48:09Z</time>
      </trkpt>
      <trkpt lat="46.24562" lon="5.88363">
        <ele>888</ele>
        <time>2012-05-19T12:48:15Z</time>
      </trkpt>
      <trkpt lat="46.24539" lon="5.88354">
        <ele>887</ele>
        <time>2012-05-19T12:48:22Z</time>
      </trkpt>
      <trkpt lat="46.24517" lon="5.88339">
        <ele>888</ele>
        <time>2012-05-19T12:48:32Z</time>
      </trkpt>
      <trkpt lat="46.24495" lon="5.88327">
        <ele>891</ele>
        <time>2012-05-19T12:48:40Z</time>
      </trkpt>
      <trkpt lat="46.24473" lon="5.88316">
        <ele>891</ele>
        <time>2012-05-19T12:48:47Z</time>
      </trkpt>
      <trkpt lat="46.24449" lon="5.88305">
        <ele>889</ele>
        <time>2012-05-19T12:48:54Z</time>
      </trkpt>
      <trkpt lat="46.24427" lon="5.88296">
        <ele>888</ele>
        <time>2012-05-19T12:49:04Z</time>
      </trkpt>
      <trkpt lat="46.24403" lon="5.88286">
        <ele>878</ele>
        <time>2012-05-19T12:49:15Z</time>
      </trkpt>
      <trkpt lat="46.24379" lon="5.88279">
        <ele>877</ele>
        <time>2012-05-19T12:49:23Z</time>
      </trkpt>
      <trkpt lat="46.24356" lon="5.88273">
        <ele>875</ele>
        <time>2012-05-19T12:49:31Z</time>
      </trkpt>
      <trkpt lat="46.24332" lon="5.88269">
        <ele>868</ele>
        <time>2012-05-19T12:49:40Z</time>
      </trkpt>
      <trkpt lat="46.24308" lon="5.88258">
        <ele>865</ele>
        <time>2012-05-19T12:49:51Z</time>
      </trkpt>
      <trkpt lat="46.24284" lon="5.88247">
        <ele>871</ele>
        <time>2012-05-19T12:49:59Z</time>
      </trkpt>
      <trkpt lat="46.2426" lon="5.88239">
        <ele>867</ele>
        <time>2012-05-19T12:50:07Z</time>
      </trkpt>
      <trkpt lat="46.24237" lon="5.88228">
        <ele>859</ele>
        <time>2012-05-19T12:50:17Z</time>
      </trkpt>
      <trkpt lat="46.24213" lon="5.88217">
        <ele>857</ele>
        <time>2012-05-19T12:50:24Z</time>
      </trkpt>
      <trkpt lat="46.24187" lon="5.88208">
        <ele>855</ele>
        <time>2012-05-19T12:50:32Z</time>
      </trkpt>
      <trkpt lat="46.24165" lon="5.88208">
        <ele>843</ele>
        <time>2012-05-19T12:50:38Z</time>
      </trkpt>
      <trkpt lat="46.24142" lon="5.88219">
        <ele>841</ele>
        <time>2012-05-19T12:50:47Z</time>
      </trkpt>
      <trkpt lat="46.24121" lon="5.8823">
        <ele>838</ele>
        <time>2012-05-19T12:50:57Z</time>
      </trkpt>
      <trkpt lat="46.24097" lon="5.88236">
        <ele>833</ele>
        <time>2012-05-19T12:51:05Z</time>
      </trkpt>
      <trkpt lat="46.24073" lon="5.88241">
        <ele>825</ele>
        <time>2012-05-19T12:51:13Z</time>
      </trkpt>
      <trkpt lat="46.24075" lon="5.88275">
        <ele>822</ele>
        <time>2012-05-19T12:51:42Z</time>
      </trkpt>
      <trkpt lat="46.24093" lon="5.88294">
        <ele>828</ele>
        <time>2012-05-19T12:52:00Z</time>
      </trkpt>
      <trkpt lat="46.24114" lon="5.88316">
        <ele>828</ele>
        <time>2012-05-19T12:52:14Z</time>
      </trkpt>
      <trkpt lat="46.24131" lon="5.88342">
        <ele>827</ele>
        <time>2012-05-19T12:52:30Z</time>
      </trkpt>
      <trkpt lat="46.2414" lon="5.88372">
        <ele>827</ele>
        <time>2012-05-19T12:52:49Z</time>
      </trkpt>
      <trkpt lat="46.24151" lon="5.88402">
        <ele>826</ele>
        <time>2012-05-19T12:53:08Z</time>
      </trkpt>
      <trkpt lat="46.24165" lon="5.8843">
        <ele>827</ele>
        <time>2012-05-19T12:53:24Z</time>
      </trkpt>
      <trkpt lat="46.24184" lon="5.88447">
        <ele>827</ele>
        <time>2012-05-19T12:53:42Z</time>
      </trkpt>
      <trkpt lat="46.24206" lon="5.88457">
        <ele>827</ele>
        <time>2012-05-19T12:53:59Z</time>
      </trkpt>
      <trkpt lat="46.24228" lon="5.88466">
        <ele>826</ele>
        <time>2012-05-19T12:54:15Z</time>
      </trkpt>
      <trkpt lat="46.24251" lon="5.8847">
        <ele>823</ele>
        <time>2012-05-19T12:54:30Z</time>
      </trkpt>
      <trkpt lat="46.24274" lon="5.88477">
        <ele>823</ele>
        <time>2012-05-19T12:54:43Z</time>
      </trkpt>
      <trkpt lat="46.24294" lon="5.88496">
        <ele>822</ele>
        <time>2012-05-19T12:54:54Z</time>
      </trkpt>
      <trkpt lat="46.24318" lon="5.88502">
        <ele>812</ele>
        <time>2012-05-19T12:55:04Z</time>
      </trkpt>
      <trkpt lat="46.24309" lon="5.88532">
        <ele>809</ele>
        <time>2012-05-19T12:55:18Z</time>
      </trkpt>
      <trkpt lat="46.24285" lon="5.88535">
        <ele>809</ele>
        <time>2012-05-19T12:55:27Z</time>
      </trkpt>
      <trkpt lat="46.24304" lon="5.88552">
        <ele>807</ele>
        <time>2012-05-19T12:55:39Z</time>
      </trkpt>
      <trkpt lat="46.24328" lon="5.8855">
        <ele>806</ele>
        <time>2012-05-19T12:55:47Z</time>
      </trkpt>
      <trkpt lat="46.2435" lon="5.88556">
        <ele>802</ele>
        <time>2012-05-19T12:55:59Z</time>
      </trkpt>
      <trkpt lat="46.24372" lon="5.88567">
        <ele>801</ele>
        <time>2012-05-19T12:56:09Z</time>
      </trkpt>
      <trkpt lat="46.24396" lon="5.88569">
        <ele>799</ele>
        <time>2012-05-19T12:56:18Z</time>
      </trkpt>
      <trkpt lat="46.24419" lon="5.88575">
        <ele>797</ele>
        <time>2012-05-19T12:56:26Z</time>
      </trkpt>
      <trkpt lat="46.24443" lon="5.88582">
        <ele>801</ele>
        <time>2012-05-19T12:56:36Z</time>
      </trkpt>
      <trkpt lat="46.24466" lon="5.88593">
        <ele>789</ele>
        <time>2012-05-19T12:56:46Z</time>
      </trkpt>
      <trkpt lat="46.2449" lon="5.88608">
        <ele>789</ele>
        <time>2012-05-19T12:56:55Z</time>
      </trkpt>
      <trkpt lat="46.2451" lon="5.88623">
        <ele>791</ele>
        <time>2012-05-19T12:57:03Z</time>
      </trkpt>
      <trkpt lat="46.24535" lon="5.88631">
        <ele>791</ele>
        <time>2012-05-19T12:57:12Z</time>
      </trkpt>
      <trkpt lat="46.24558" lon="5.88646">
        <ele>790</ele>
        <time>2012-05-19T12:57:21Z</time>
      </trkpt>
      <trkpt lat="46.24579" lon="5.88663">
        <ele>785</ele>
        <time>2012-05-19T12:57:29Z</time>
      </trkpt>
      <trkpt lat="46.246" lon="5.88674">
        <ele>780</ele>
        <time>2012-05-19T12:57:38Z</time>
      </trkpt>
      <trkpt lat="46.24614" lon="5.887">
        <ele>778</ele>
        <time>2012-05-19T12:58:00Z</time>
      </trkpt>
      <trkpt lat="46.24621" lon="5.88732">
        <ele>774</ele>
        <time>2012-05-19T12:58:46Z</time>
      </trkpt>
      <trkpt lat="46.24637" lon="5.88756">
        <ele>760</ele>
        <time>2012-05-19T12:59:00Z</time>
      </trkpt>
      <trkpt lat="46.24659" lon="5.88762">
        <ele>762</ele>
        <time>2012-05-19T12:59:10Z</time>
      </trkpt>
      <trkpt lat="46.24679" lon="5.88781">
        <ele>761</ele>
        <time>2012-05-19T12:59:22Z</time>
      </trkpt>
      <trkpt lat="46.24696" lon="5.88805">
        <ele>758</ele>
        <time>2012-05-19T12:59:37Z</time>
      </trkpt>
      <trkpt lat="46.24715" lon="5.88824">
        <ele>757</ele>
        <time>2012-05-19T12:59:53Z</time>
      </trkpt>
      <trkpt lat="46.24737" lon="5.88839">
        <ele>744</ele>
        <time>2012-05-19T13:00:05Z</time>
      </trkpt>
      <trkpt lat="46.24756" lon="5.88857">
        <ele>744</ele>
        <time>2012-05-19T13:00:20Z</time>
      </trkpt>
      <trkpt lat="46.2478" lon="5.88865">
        <ele>742</ele>
        <time>2012-05-19T13:00:34Z</time>
      </trkpt>
      <trkpt lat="46.24802" lon="5.88876">
        <ele>741</ele>
        <time>2012-05-19T13:00:46Z</time>
      </trkpt>
      <trkpt lat="46.24825" lon="5.88887">
        <ele>738</ele>
        <time>2012-05-19T13:01:00Z</time>
      </trkpt>
      <trkpt lat="46.24847" lon="5.88902">
        <ele>740</ele>
        <time>2012-05-19T13:01:13Z</time>
      </trkpt>
      <trkpt lat="46.24867" lon="5.88919">
        <ele>723</ele>
        <time>2012-05-19T13:01:27Z</time>
      </trkpt>
      <trkpt lat="46.24887" lon="5.88936">
        <ele>723</ele>
        <time>2012-05-19T13:01:41Z</time>
      </trkpt>
      <trkpt lat="46.24903" lon="5.88962">
        <ele>719</ele>
        <time>2012-05-19T13:01:54Z</time>
      </trkpt>
      <trkpt lat="46.24916" lon="5.8899">
        <ele>713</ele>
        <time>2012-05-19T13:02:13Z</time>
      </trkpt>
      <trkpt lat="46.24932" lon="5.89013">
        <ele>709</ele>
        <time>2012-05-19T13:02:25Z</time>
      </trkpt>
      <trkpt lat="46.24948" lon="5.89037">
        <ele>707</ele>
        <time>2012-05-19T13:02:41Z</time>
      </trkpt>
      <trkpt lat="46.24967" lon="5.89056">
        <ele>706</ele>
        <time>2012-05-19T13:02:57Z</time>
      </trkpt>
      <trkpt lat="46.24985" lon="5.89078">
        <ele>704</ele>
        <time>2012-05-19T13:03:10Z</time>
      </trkpt>
      <trkpt lat="46.25005" lon="5.89093">
        <ele>702</ele>
        <time>2012-05-19T13:03:22Z</time>
      </trkpt>
      <trkpt lat="46.25022" lon="5.89114">
        <ele>702</ele>
        <time>2012-05-19T13:03:35Z</time>
      </trkpt>
      <trkpt lat="46.25044" lon="5.89127">
        <ele>703</ele>
        <time>2012-05-19T13:03:50Z</time>
      </trkpt>
      <trkpt lat="46.25065" lon="5.89138">
        <ele>703</ele>
        <time>2012-05-19T13:04:03Z</time>
      </trkpt>
      <trkpt lat="46.25088" lon="5.89138">
        <ele>708</ele>
        <time>2012-05-19T13:04:20Z</time>
      </trkpt>
      <trkpt lat="46.25108" lon="5.89153">
        <ele>708</ele>
        <time>2012-05-19T13:04:47Z</time>
      </trkpt>
      <trkpt lat="46.2513" lon="5.89163">
        <ele>709</ele>
        <time>2012-05-19T13:05:19Z</time>
      </trkpt>
      <trkpt lat="46.2515" lon="5.89181">
        <ele>705</ele>
        <time>2012-05-19T13:05:48Z</time>
      </trkpt>
      <trkpt lat="46.25157" lon="5.89213">
        <ele>706</ele>
        <time>2012-05-19T13:06:50Z</time>
      </trkpt>
      <trkpt lat="46.2518" lon="5.89202">
        <ele>706</ele>
        <time>2012-05-19T13:07:57Z</time>
      </trkpt>
      <trkpt lat="46.252" lon="5.89187">
        <ele>706</ele>
        <time>2012-05-19T13:08:11Z</time>
      </trkpt>
      <trkpt lat="46.25222" lon="5.89172">
        <ele>706</ele>
        <time>2012-05-19T13:08:28Z</time>
      </trkpt>
      <trkpt lat="46.25243" lon="5.89157">
        <ele>710</ele>
        <time>2012-05-19T13:08:42Z</time>
      </trkpt>
      <trkpt lat="46.25268" lon="5.89148">
        <ele>713</ele>
        <time>2012-05-19T13:08:52Z</time>
      </trkpt>
      <trkpt lat="46.2529" lon="5.8915">
        <ele>714</ele>
        <time>2012-05-19T13:09:07Z</time>
      </trkpt>
      <trkpt lat="46.25314" lon="5.89155">
        <ele>712</ele>
        <time>2012-05-19T13:09:26Z</time>
      </trkpt>
      <trkpt lat="46.25332" lon="5.89174">
        <ele>704</ele>
        <time>2012-05-19T13:09:51Z</time>
      </trkpt>
      <trkpt lat="46.25355" lon="5.89187">
        <ele>705</ele>
        <time>2012-05-19T13:10:08Z</time>
      </trkpt>
      <trkpt lat="46.25377" lon="5.89185">
        <ele>706</ele>
        <time>2012-05-19T13:10:23Z</time>
      </trkpt>
      <trkpt lat="46.25398" lon="5.8917">
        <ele>708</ele>
        <time>2012-05-19T13:10:42Z</time>
      </trkpt>
      <trkpt lat="46.25419" lon="5.89157">
        <ele>717</ele>
        <time>2012-05-19T13:11:17Z</time>
      </trkpt>
      <trkpt lat="46.25442" lon="5.89155">
        <ele>724</ele>
        <time>2012-05-19T13:11:48Z</time>
      </trkpt>
      <trkpt lat="46.25453" lon="5.89183">
        <ele>714</ele>
        <time>2012-05-19T13:12:07Z</time>
      </trkpt>
      <trkpt lat="46.25471" lon="5.89206">
        <ele>714</ele>
        <time>2012-05-19T13:12:32Z</time>
      </trkpt>
      <trkpt lat="46.25491" lon="5.89223">
        <ele>713</ele>
        <time>2012-05-19T13:12:45Z</time>
      </trkpt>
      <trkpt lat="46.25508" lon="5.89247">
        <ele>718</ele>
        <time>2012-05-19T13:13:05Z</time>
      </trkpt>
      <trkpt lat="46.25523" lon="5.89273">
        <ele>719</ele>
        <time>2012-05-19T13:13:20Z</time>
      </trkpt>
      <trkpt lat="46.25532" lon="5.89303">
        <ele>719</ele>
        <time>2012-05-19T13:13:32Z</time>
      </trkpt>
      <trkpt lat="46.25538" lon="5.89335">
        <ele>714</ele>
        <time>2012-05-19T13:13:43Z</time>
      </trkpt>
      <trkpt lat="46.25547" lon="5.89365">
        <ele>715</ele>
        <time>2012-05-19T13:13:57Z</time>
      </trkpt>
      <trkpt lat="46.25556" lon="5.89395">
        <ele>714</ele>
        <time>2012-05-19T13:14:09Z</time>
      </trkpt>
      <trkpt lat="46.2557" lon="5.89421">
        <ele>715</ele>
        <time>2012-05-19T13:14:19Z</time>
      </trkpt>
      <trkpt lat="46.2559" lon="5.89442">
        <ele>716</ele>
        <time>2012-05-19T13:14:30Z</time>
      </trkpt>
      <trkpt lat="46.25606" lon="5.89466">
        <ele>719</ele>
        <time>2012-05-19T13:14:54Z</time>
      </trkpt>
      <trkpt lat="46.25624" lon="5.89487">
        <ele>720</ele>
        <time>2012-05-19T13:15:22Z</time>
      </trkpt>
      <trkpt lat="46.25641" lon="5.89509">
        <ele>721</ele>
        <time>2012-05-19T13:15:32Z</time>
      </trkpt>
      <trkpt lat="46.25658" lon="5.89532">
        <ele>720</ele>
        <time>2012-05-19T13:15:42Z</time>
      </trkpt>
      <trkpt lat="46.2568" lon="5.89552">
        <ele>723</ele>
        <time>2012-05-19T13:15:52Z</time>
      </trkpt>
      <trkpt lat="46.25702" lon="5.89565">
        <ele>725</ele>
        <time>2012-05-19T13:16:03Z</time>
      </trkpt>
      <trkpt lat="46.25719" lon="5.8959">
        <ele>724</ele>
        <time>2012-05-19T13:16:15Z</time>
      </trkpt>
      <trkpt lat="46.25736" lon="5.89614">
        <ele>724</ele>
        <time>2012-05-19T13:16:28Z</time>
      </trkpt>
      <trkpt lat="46.25754" lon="5.89635">
        <ele>729</ele>
        <time>2012-05-19T13:16:40Z</time>
      </trkpt>
      <trkpt lat="46.25773" lon="5.89653">
        <ele>729</ele>
        <time>2012-05-19T13:16:55Z</time>
      </trkpt>
      <trkpt lat="46.25792" lon="5.8967">
        <ele>726</ele>
        <time>2012-05-19T13:17:09Z</time>
      </trkpt>
      <trkpt lat="46.25816" lon="5.89678">
        <ele>728</ele>
        <time>2012-05-19T13:17:22Z</time>
      </trkpt>
      <trkpt lat="46.25837" lon="5.89691">
        <ele>732</ele>
        <time>2012-05-19T13:17:40Z</time>
      </trkpt>
      <trkpt lat="46.25859" lon="5.89704">
        <ele>732</ele>
        <time>2012-05-19T13:17:54Z</time>
      </trkpt>
      <trkpt lat="46.25881" lon="5.89715">
        <ele>733</ele>
        <time>2012-05-19T13:18:18Z</time>
      </trkpt>
      <trkpt lat="46.25903" lon="5.89726">
        <ele>732</ele>
        <time>2012-05-19T13:18:41Z</time>
      </trkpt>
      <trkpt lat="46.25925" lon="5.89736">
        <ele>744</ele>
        <time>2012-05-19T13:19:09Z</time>
      </trkpt>
      <trkpt lat="46.25948" lon="5.89743">
        <ele>753</ele>
        <time>2012-05-19T13:19:37Z</time>
      </trkpt>
      <trkpt lat="46.25971" lon="5.89751">
        <ele>744</ele>
        <time>2012-05-19T13:20:00Z</time>
      </trkpt>
      <trkpt lat="46.25992" lon="5.89762">
        <ele>752</ele>
        <time>2012-05-19T13:20:25Z</time>
      </trkpt>
      <trkpt lat="46.26013" lon="5.89775">
        <ele>768</ele>
        <time>2012-05-19T13:20:50Z</time>
      </trkpt>
      <trkpt lat="46.26032" lon="5.89796">
        <ele>768</ele>
        <time>2012-05-19T13:21:08Z</time>
      </trkpt>
      <trkpt lat="46.26051" lon="5.89814">
        <ele>770</ele>
        <time>2012-05-19T13:21:24Z</time>
      </trkpt>
      <trkpt lat="46.26072" lon="5.89826">
        <ele>775</ele>
        <time>2012-05-19T13:22:03Z</time>
      </trkpt>
      <trkpt lat="46.26093" lon="5.89841">
        <ele>780</ele>
        <time>2012-05-19T13:22:30Z</time>
      </trkpt>
      <trkpt lat="46.26114" lon="5.89854">
        <ele>784</ele>
        <time>2012-05-19T13:22:56Z</time>
      </trkpt>
      <trkpt lat="46.26136" lon="5.89865">
        <ele>789</ele>
        <time>2012-05-19T13:23:27Z</time>
      </trkpt>
      <trkpt lat="46.26156" lon="5.89882">
        <ele>790</ele>
        <time>2012-05-19T13:24:07Z</time>
      </trkpt>
      <trkpt lat="46.26178" lon="5.89895">
        <ele>814</ele>
        <time>2012-05-19T13:24:44Z</time>
      </trkpt>
      <trkpt lat="46.262" lon="5.89904">
        <ele>820</ele>
        <time>2012-05-19T13:25:29Z</time>
      </trkpt>
      <trkpt lat="46.26221" lon="5.89919">
        <ele>816</ele>
        <time>2012-05-19T13:25:58Z</time>
      </trkpt>
      <trkpt lat="46.26237" lon="5.89942">
        <ele>818</ele>
        <time>2012-05-19T13:26:44Z</time>
      </trkpt>
      <trkpt lat="46.26244" lon="5.89974">
        <ele>816</ele>
        <time>2012-05-19T13:27:34Z</time>
      </trkpt>
      <trkpt lat="46.26248" lon="5.90007">
        <ele>816</ele>
        <time>2012-05-19T13:27:53Z</time>
      </trkpt>
      <trkpt lat="46.26266" lon="5.90028">
        <ele>824</ele>
        <time>2012-05-19T13:28:04Z</time>
      </trkpt>
      <trkpt lat="46.26283" lon="5.9005">
        <ele>823</ele>
        <time>2012-05-19T13:28:13Z</time>
      </trkpt>
      <trkpt lat="46.26302" lon="5.90067">
        <ele>826</ele>
        <time>2012-05-19T13:28:24Z</time>
      </trkpt>
      <trkpt lat="46.26319" lon="5.9009">
        <ele>816</ele>
        <time>2012-05-19T13:28:34Z</time>
      </trkpt>
      <trkpt lat="46.26335" lon="5.90116">
        <ele>825</ele>
        <time>2012-05-19T13:28:52Z</time>
      </trkpt>
      <trkpt lat="46.26356" lon="5.90133">
        <ele>821</ele>
        <time>2012-05-19T13:29:05Z</time>
      </trkpt>
      <trkpt lat="46.26379" lon="5.90144">
        <ele>824</ele>
        <time>2012-05-19T13:29:17Z</time>
      </trkpt>
      <trkpt lat="46.26398" lon="5.90165">
        <ele>824</ele>
        <time>2012-05-19T13:29:32Z</time>
      </trkpt>
      <trkpt lat="46.26414" lon="5.90191">
        <ele>804</ele>
        <time>2012-05-19T13:29:46Z</time>
      </trkpt>
      <trkpt lat="46.26433" lon="5.9021">
        <ele>812</ele>
        <time>2012-05-19T13:29:55Z</time>
      </trkpt>
      <trkpt lat="46.26454" lon="5.90226">
        <ele>812</ele>
        <time>2012-05-19T13:30:06Z</time>
      </trkpt>
      <trkpt lat="46.26476" lon="5.90241">
        <ele>814</ele>
        <time>2012-05-19T13:30:17Z</time>
      </trkpt>
      <trkpt lat="46.26491" lon="5.90266">
        <ele>800</ele>
        <time>2012-05-19T13:30:27Z</time>
      </trkpt>
      <trkpt lat="46.26503" lon="5.90296">
        <ele>807</ele>
        <time>2012-05-19T13:30:44Z</time>
      </trkpt>
      <trkpt lat="46.2652" lon="5.9032">
        <ele>803</ele>
        <time>2012-05-19T13:30:55Z</time>
      </trkpt>
      <trkpt lat="46.26537" lon="5.90341">
        <ele>790</ele>
        <time>2012-05-19T13:31:08Z</time>
      </trkpt>
      <trkpt lat="46.26554" lon="5.90367">
        <ele>790</ele>
        <time>2012-05-19T13:31:17Z</time>
      </trkpt>
      <trkpt lat="46.26572" lon="5.90391">
        <ele>788</ele>
        <time>2012-05-19T13:31:24Z</time>
      </trkpt>
      <trkpt lat="46.26591" lon="5.90412">
        <ele>792</ele>
        <time>2012-05-19T13:31:35Z</time>
      </trkpt>
      <trkpt lat="46.266" lon="5.90442">
        <ele>788</ele>
        <time>2012-05-19T13:31:54Z</time>
      </trkpt>
      <trkpt lat="46.26612" lon="5.90472">
        <ele>786</ele>
        <time>2012-05-19T13:32:10Z</time>
      </trkpt>
      <trkpt lat="46.26628" lon="5.90496">
        <ele>786</ele>
        <time>2012-05-19T13:32:20Z</time>
      </trkpt>
      <trkpt lat="46.26645" lon="5.90517">
        <ele>782</ele>
        <time>2012-05-19T13:32:26Z</time>
      </trkpt>
      <trkpt lat="46.2666" lon="5.90543">
        <ele>782</ele>
        <time>2012-05-19T13:32:34Z</time>
      </trkpt>
      <trkpt lat="46.26674" lon="5.90569">
        <ele>784</ele>
        <time>2012-05-19T13:32:49Z</time>
      </trkpt>
      <trkpt lat="46.26692" lon="5.9059">
        <ele>781</ele>
        <time>2012-05-19T13:33:11Z</time>
      </trkpt>
      <trkpt lat="46.26709" lon="5.90612">
        <ele>783</ele>
        <time>2012-05-19T13:33:25Z</time>
      </trkpt>
      <trkpt lat="46.26728" lon="5.90631">
        <ele>784</ele>
        <time>2012-05-19T13:33:36Z</time>
      </trkpt>
      <trkpt lat="46.26751" lon="5.90642">
        <ele>791</ele>
        <time>2012-05-19T13:34:06Z</time>
      </trkpt>
      <trkpt lat="46.26773" lon="5.9065">
        <ele>793</ele>
        <time>2012-05-19T13:34:40Z</time>
      </trkpt>
      <trkpt lat="46.26789" lon="5.90674">
        <ele>788</ele>
        <time>2012-05-19T13:35:13Z</time>
      </trkpt>
      <trkpt lat="46.26803" lon="5.907">
        <ele>789</ele>
        <time>2012-05-19T13:35:26Z</time>
      </trkpt>
      <trkpt lat="46.26818" lon="5.90725">
        <ele>788</ele>
        <time>2012-05-19T13:35:38Z</time>
      </trkpt>
      <trkpt lat="46.26837" lon="5.90747">
        <ele>791</ele>
        <time>2012-05-19T13:35:52Z</time>
      </trkpt>
      <trkpt lat="46.26859" lon="5.9076">
        <ele>794</ele>
        <time>2012-05-19T13:36:07Z</time>
      </trkpt>
      <trkpt lat="46.26877" lon="5.90781">
        <ele>796</ele>
        <time>2012-05-19T13:36:22Z</time>
      </trkpt>
      <trkpt lat="46.26893" lon="5.90805">
        <ele>796</ele>
        <time>2012-05-19T13:36:46Z</time>
      </trkpt>
      <trkpt lat="46.26908" lon="5.90831">
        <ele>797</ele>
        <time>2012-05-19T13:37:00Z</time>
      </trkpt>
      <trkpt lat="46.26929" lon="5.90852">
        <ele>802</ele>
        <time>2012-05-19T13:37:10Z</time>
      </trkpt>
      <trkpt lat="46.26946" lon="5.90874">
        <ele>803</ele>
        <time>2012-05-19T13:37:23Z</time>
      </trkpt>
      <trkpt lat="46.26962" lon="5.90899">
        <ele>803</ele>
        <time>2012-05-19T13:37:46Z</time>
      </trkpt>
      <trkpt lat="46.2698" lon="5.90921">
        <ele>798</ele>
        <time>2012-05-19T13:38:00Z</time>
      </trkpt>
      <trkpt lat="46.27001" lon="5.90936">
        <ele>812</ele>
        <time>2012-05-19T13:38:13Z</time>
      </trkpt>
      <trkpt lat="46.27019" lon="5.90955">
        <ele>815</ele>
        <time>2012-05-19T13:38:38Z</time>
      </trkpt>
      <trkpt lat="46.27028" lon="5.90985">
        <ele>813</ele>
        <time>2012-05-19T13:39:02Z</time>
      </trkpt>
      <trkpt lat="46.27035" lon="5.91019">
        <ele>812</ele>
        <time>2012-05-19T13:39:19Z</time>
      </trkpt>
      <trkpt lat="46.2704" lon="5.91052">
        <ele>814</ele>
        <time>2012-05-19T13:39:30Z</time>
      </trkpt>
      <trkpt lat="46.27039" lon="5.91086">
        <ele>819</ele>
        <time>2012-05-19T13:39:44Z</time>
      </trkpt>
      <trkpt lat="46.27035" lon="5.91118">
        <ele>821</ele>
        <time>2012-05-19T13:39:58Z</time>
      </trkpt>
      <trkpt lat="46.27027" lon="5.9115">
        <ele>820</ele>
        <time>2012-05-19T13:40:13Z</time>
      </trkpt>
      <trkpt lat="46.27021" lon="5.91183">
        <ele>823</ele>
        <time>2012-05-19T13:40:31Z</time>
      </trkpt>
      <trkpt lat="46.27025" lon="5.91215">
        <ele>827</ele>
        <time>2012-05-19T13:40:46Z</time>
      </trkpt>
      <trkpt lat="46.27022" lon="5.91247">
        <ele>824</ele>
        <time>2012-05-19T13:41:00Z</time>
      </trkpt>
      <trkpt lat="46.27008" lon="5.91275">
        <ele>819</ele>
        <time>2012-05-19T13:41:18Z</time>
      </trkpt>
      <trkpt lat="46.27017" lon="5.91305">
        <ele>819</ele>
        <time>2012-05-19T13:41:41Z</time>
      </trkpt>
      <trkpt lat="46.27027" lon="5.91335">
        <ele>813</ele>
        <time>2012-05-19T13:42:00Z</time>
      </trkpt>
      <trkpt lat="46.27048" lon="5.91352">
        <ele>815</ele>
        <time>2012-05-19T13:42:14Z</time>
      </trkpt>
      <trkpt lat="46.27067" lon="5.91369">
        <ele>816</ele>
        <time>2012-05-19T13:42:24Z</time>
      </trkpt>
      <trkpt lat="46.27091" lon="5.91384">
        <ele>822</ele>
        <time>2012-05-19T13:42:34Z</time>
      </trkpt>
      <trkpt lat="46.27113" lon="5.91386">
        <ele>824</ele>
        <time>2012-05-19T13:42:57Z</time>
      </trkpt>
      <trkpt lat="46.27132" lon="5.91408">
        <ele>823</ele>
        <time>2012-05-19T13:43:14Z</time>
      </trkpt>
      <trkpt lat="46.2715" lon="5.91431">
        <ele>813</ele>
        <time>2012-05-19T13:43:25Z</time>
      </trkpt>
      <trkpt lat="46.27166" lon="5.91455">
        <ele>811</ele>
        <time>2012-05-19T13:43:36Z</time>
      </trkpt>
      <trkpt lat="46.27184" lon="5.91474">
        <ele>814</ele>
        <time>2012-05-19T13:43:48Z</time>
      </trkpt>
      <trkpt lat="46.27206" lon="5.91492">
        <ele>814</ele>
        <time>2012-05-19T13:43:57Z</time>
      </trkpt>
      <trkpt lat="46.27228" lon="5.91504">
        <ele>808</ele>
        <time>2012-05-19T13:44:13Z</time>
      </trkpt>
      <trkpt lat="46.2725" lon="5.91517">
        <ele>811</ele>
        <time>2012-05-19T13:44:25Z</time>
      </trkpt>
      <trkpt lat="46.27273" lon="5.91528">
        <ele>813</ele>
        <time>2012-05-19T13:44:36Z</time>
      </trkpt>
      <trkpt lat="46.27294" lon="5.91539">
        <ele>814</ele>
        <time>2012-05-19T13:44:45Z</time>
      </trkpt>
      <trkpt lat="46.27314" lon="5.91556">
        <ele>815</ele>
        <time>2012-05-19T13:44:55Z</time>
      </trkpt>
      <trkpt lat="46.27336" lon="5.91567">
        <ele>822</ele>
        <time>2012-05-19T13:45:09Z</time>
      </trkpt>
      <trkpt lat="46.27359" lon="5.91571">
        <ele>826</ele>
        <time>2012-05-19T13:45:20Z</time>
      </trkpt>
      <trkpt lat="46.27381" lon="5.91579">
        <ele>828</ele>
        <time>2012-05-19T13:45:37Z</time>
      </trkpt>
      <trkpt lat="46.274" lon="5.91603">
        <ele>820</ele>
        <time>2012-05-19T13:45:50Z</time>
      </trkpt>
      <trkpt lat="46.27417" lon="5.91629">
        <ele>825</ele>
        <time>2012-05-19T13:46:08Z</time>
      </trkpt>
      <trkpt lat="46.27436" lon="5.91648">
        <ele>823</ele>
        <time>2012-05-19T13:46:17Z</time>
      </trkpt>
      <trkpt lat="46.27458" lon="5.91659">
        <ele>826</ele>
        <time>2012-05-19T13:46:31Z</time>
      </trkpt>
      <trkpt lat="46.27479" lon="5.91674">
        <ele>821</ele>
        <time>2012-05-19T13:46:55Z</time>
      </trkpt>
      <trkpt lat="46.275" lon="5.91685">
        <ele>829</ele>
        <time>2012-05-19T13:47:11Z</time>
      </trkpt>
      <trkpt lat="46.27522" lon="5.91695">
        <ele>832</ele>
        <time>2012-05-19T13:47:30Z</time>
      </trkpt>
      <trkpt lat="46.27544" lon="5.91695">
        <ele>836</ele>
        <time>2012-05-19T13:48:18Z</time>
      </trkpt>
      <trkpt lat="46.27566" lon="5.91685">
        <ele>843</ele>
        <time>2012-05-19T13:49:20Z</time>
      </trkpt>
      <trkpt lat="46.27586" lon="5.91702">
        <ele>858</ele>
        <time>2012-05-19T13:50:09Z</time>
      </trkpt>
      <trkpt lat="46.27595" lon="5.91732">
        <ele>853</ele>
        <time>2012-05-19T13:50:34Z</time>
      </trkpt>
      <trkpt lat="46.27614" lon="5.91749">
        <ele>855</ele>
        <time>2012-05-19T13:50:59Z</time>
      </trkpt>
      <trkpt lat="46.27637" lon="5.91755">
        <ele>853</ele>
        <time>2012-05-19T13:51:41Z</time>
      </trkpt>
      <trkpt lat="46.27659" lon="5.91755">
        <ele>860</ele>
        <time>2012-05-19T13:51:57Z</time>
      </trkpt>
      <trkpt lat="46.27682" lon="5.91758">
        <ele>862</ele>
        <time>2012-05-19T13:52:14Z</time>
      </trkpt>
      <trkpt lat="46.27698" lon="5.91783">
        <ele>860</ele>
        <time>2012-05-19T13:52:29Z</time>
      </trkpt>
      <trkpt lat="46.27713" lon="5.91809">
        <ele>860</ele>
        <time>2012-05-19T13:52:48Z</time>
      </trkpt>
      <trkpt lat="46.27727" lon="5.91835">
        <ele>860</ele>
        <time>2012-05-19T13:53:18Z</time>
      </trkpt>
      <trkpt lat="46.27747" lon="5.91852">
        <ele>861</ele>
        <time>2012-05-19T13:53:40Z</time>
      </trkpt>
      <trkpt lat="46.27765" lon="5.91871">
        <ele>862</ele>
        <time>2012-05-19T13:54:04Z</time>
      </trkpt>
      <trkpt lat="46.27746" lon="5.91852">
        <ele>861</ele>
        <time>2012-05-19T13:54:38Z</time>
      </trkpt>
      <trkpt lat="46.27728" lon="5.91831">
        <ele>860</ele>
        <time>2012-05-19T13:54:54Z</time>
      </trkpt>
      <trkpt lat="46.27723" lon="5.91796">
        <ele>860</ele>
        <time>2012-05-19T13:55:18Z</time>
      </trkpt>
      <trkpt lat="46.27726" lon="5.91831">
        <ele>860</ele>
        <time>2012-05-19T13:56:33Z</time>
      </trkpt>
      <trkpt lat="46.27745" lon="5.91848">
        <ele>861</ele>
        <time>2012-05-19T13:56:50Z</time>
      </trkpt>
      <trkpt lat="46.27759" lon="5.91873">
        <ele>862</ele>
        <time>2012-05-19T13:57:09Z</time>
      </trkpt>
      <trkpt lat="46.27773" lon="5.91901">
        <ele>864</ele>
        <time>2012-05-19T13:57:29Z</time>
      </trkpt>
      <trkpt lat="46.27789" lon="5.91925">
        <ele>867</ele>
        <time>2012-05-19T13:57:43Z</time>
      </trkpt>
      <trkpt lat="46.27801" lon="5.91955">
        <ele>867</ele>
        <time>2012-05-19T13:58:05Z</time>
      </trkpt>
      <trkpt lat="46.27815" lon="5.91981">
        <ele>868</ele>
        <time>2012-05-19T13:58:25Z</time>
      </trkpt>
      <trkpt lat="46.27828" lon="5.92009">
        <ele>869</ele>
        <time>2012-05-19T14:00:24Z</time>
      </trkpt>
      <trkpt lat="46.27812" lon="5.92032">
        <ele>868</ele>
        <time>2012-05-19T14:01:05Z</time>
      </trkpt>
      <trkpt lat="46.27798" lon="5.92058">
        <ele>866</ele>
        <time>2012-05-19T14:01:35Z</time>
      </trkpt>
      <trkpt lat="46.27799" lon="5.92092">
        <ele>864</ele>
        <time>2012-05-19T14:01:59Z</time>
      </trkpt>
      <trkpt lat="46.27802" lon="5.92125">
        <ele>863</ele>
        <time>2012-05-19T14:02:24Z</time>
      </trkpt>
      <trkpt lat="46.27819" lon="5.92148">
        <ele>868</ele>
        <time>2012-05-19T14:02:45Z</time>
      </trkpt>
      <trkpt lat="46.27839" lon="5.92167">
        <ele>879</ele>
        <time>2012-05-19T14:03:00Z</time>
      </trkpt>
      <trkpt lat="46.27859" lon="5.92185">
        <ele>883</ele>
        <time>2012-05-19T14:03:18Z</time>
      </trkpt>
      <trkpt lat="46.27882" lon="5.92189">
        <ele>886</ele>
        <time>2012-05-19T14:03:48Z</time>
      </trkpt>
      <trkpt lat="46.27905" lon="5.92187">
        <ele>889</ele>
        <time>2012-05-19T14:04:05Z</time>
      </trkpt>
      <trkpt lat="46.27927" lon="5.92189">
        <ele>897</ele>
        <time>2012-05-19T14:04:22Z</time>
      </trkpt>
      <trkpt lat="46.27944" lon="5.92212">
        <ele>898</ele>
        <time>2012-05-19T14:04:42Z</time>
      </trkpt>
      <trkpt lat="46.27952" lon="5.92243">
        <ele>897</ele>
        <time>2012-05-19T14:04:58Z</time>
      </trkpt>
      <trkpt lat="46.27973" lon="5.92258">
        <ele>885</ele>
        <time>2012-05-19T14:05:08Z</time>
      </trkpt>
      <trkpt lat="46.27995" lon="5.92258">
        <ele>886</ele>
        <time>2012-05-19T14:05:21Z</time>
      </trkpt>
      <trkpt lat="46.28018" lon="5.92253">
        <ele>880</ele>
        <time>2012-05-19T14:05:33Z</time>
      </trkpt>
      <trkpt lat="46.2804" lon="5.92255">
        <ele>875</ele>
        <time>2012-05-19T14:05:45Z</time>
      </trkpt>
      <trkpt lat="46.28065" lon="5.92266">
        <ele>872</ele>
        <time>2012-05-19T14:05:56Z</time>
      </trkpt>
      <trkpt lat="46.28088" lon="5.92273">
        <ele>867</ele>
        <time>2012-05-19T14:06:04Z</time>
      </trkpt>
      <trkpt lat="46.28112" lon="5.92279">
        <ele>867</ele>
        <time>2012-05-19T14:06:14Z</time>
      </trkpt>
      <trkpt lat="46.28135" lon="5.92283">
        <ele>866</ele>
        <time>2012-05-19T14:06:24Z</time>
      </trkpt>
      <trkpt lat="46.28159" lon="5.92279">
        <ele>865</ele>
        <time>2012-05-19T14:06:34Z</time>
      </trkpt>
      <trkpt lat="46.28182" lon="5.92279">
        <ele>860</ele>
        <time>2012-05-19T14:06:41Z</time>
      </trkpt>
      <trkpt lat="46.28198" lon="5.92253">
        <ele>859</ele>
        <time>2012-05-19T14:06:57Z</time>
      </trkpt>
      <trkpt lat="46.28206" lon="5.92219">
        <ele>858</ele>
        <time>2012-05-19T14:07:08Z</time>
      </trkpt>
      <trkpt lat="46.2822" lon="5.92191">
        <ele>857</ele>
        <time>2012-05-19T14:07:17Z</time>
      </trkpt>
      <trkpt lat="46.28238" lon="5.9217">
        <ele>854</ele>
        <time>2012-05-19T14:07:30Z</time>
      </trkpt>
      <trkpt lat="46.28255" lon="5.92146">
        <ele>851</ele>
        <time>2012-05-19T14:07:46Z</time>
      </trkpt>
      <trkpt lat="46.2827" lon="5.9212">
        <ele>850</ele>
        <time>2012-05-19T14:08:00Z</time>
      </trkpt>
      <trkpt lat="46.28279" lon="5.9209">
        <ele>849</ele>
        <time>2012-05-19T14:08:14Z</time>
      </trkpt>
      <trkpt lat="46.28288" lon="5.92058">
        <ele>849</ele>
        <time>2012-05-19T14:08:28Z</time>
      </trkpt>
      <trkpt lat="46.28297" lon="5.92028">
        <ele>850</ele>
        <time>2012-05-19T14:08:43Z</time>
      </trkpt>
      <trkpt lat="46.28305" lon="5.91996">
        <ele>859</ele>
        <time>2012-05-19T14:09:00Z</time>
      </trkpt>
      <trkpt lat="46.28319" lon="5.91968">
        <ele>861</ele>
        <time>2012-05-19T14:09:19Z</time>
      </trkpt>
      <trkpt lat="46.28339" lon="5.91953">
        <ele>868</ele>
        <time>2012-05-19T14:09:36Z</time>
      </trkpt>
      <trkpt lat="46.28362" lon="5.91953">
        <ele>869</ele>
        <time>2012-05-19T14:09:54Z</time>
      </trkpt>
      <trkpt lat="46.28383" lon="5.91966">
        <ele>868</ele>
        <time>2012-05-19T14:10:09Z</time>
      </trkpt>
      <trkpt lat="46.28405" lon="5.91979">
        <ele>866</ele>
        <time>2012-05-19T14:10:24Z</time>
      </trkpt>
      <trkpt lat="46.28426" lon="5.91989">
        <ele>871</ele>
        <time>2012-05-19T14:10:39Z</time>
      </trkpt>
      <trkpt lat="46.2845" lon="5.91998">
        <ele>880</ele>
        <time>2012-05-19T14:10:55Z</time>
      </trkpt>
      <trkpt lat="46.28471" lon="5.92013">
        <ele>867</ele>
        <time>2012-05-19T14:11:10Z</time>
      </trkpt>
      <trkpt lat="46.28492" lon="5.92028">
        <ele>867</ele>
        <time>2012-05-19T14:11:25Z</time>
      </trkpt>
      <trkpt lat="46.28513" lon="5.92041">
        <ele>874</ele>
        <time>2012-05-19T14:11:40Z</time>
      </trkpt>
      <trkpt lat="46.28536" lon="5.92047">
        <ele>874</ele>
        <time>2012-05-19T14:11:54Z</time>
      </trkpt>
      <trkpt lat="46.28557" lon="5.9206">
        <ele>872</ele>
        <time>2012-05-19T14:12:10Z</time>
      </trkpt>
      <trkpt lat="46.2858" lon="5.92067">
        <ele>869</ele>
        <time>2012-05-19T14:12:27Z</time>
      </trkpt>
      <trkpt lat="46.28602" lon="5.92067">
        <ele>877</ele>
        <time>2012-05-19T14:12:43Z</time>
      </trkpt>
      <trkpt lat="46.28626" lon="5.92069">
        <ele>880</ele>
        <time>2012-05-19T14:13:00Z</time>
      </trkpt>
      <trkpt lat="46.28647" lon="5.92079">
        <ele>877</ele>
        <time>2012-05-19T14:13:22Z</time>
      </trkpt>
      <trkpt lat="46.2867" lon="5.92088">
        <ele>868</ele>
        <time>2012-05-19T14:13:40Z</time>
      </trkpt>
      <trkpt lat="46.28692" lon="5.92092">
        <ele>868</ele>
        <time>2012-05-19T14:13:56Z</time>
      </trkpt>
      <trkpt lat="46.28715" lon="5.92101">
        <ele>869</ele>
        <time>2012-05-19T14:14:11Z</time>
      </trkpt>
      <trkpt lat="46.28737" lon="5.92112">
        <ele>870</ele>
        <time>2012-05-19T14:14:25Z</time>
      </trkpt>
      <trkpt lat="46.2876" lon="5.9212">
        <ele>876</ele>
        <time>2012-05-19T14:14:42Z</time>
      </trkpt>
      <trkpt lat="46.28775" lon="5.92146">
        <ele>872</ele>
        <time>2012-05-19T14:14:55Z</time>
      </trkpt>
      <trkpt lat="46.28793" lon="5.92167">
        <ele>865</ele>
        <time>2012-05-19T14:15:10Z</time>
      </trkpt>
      <trkpt lat="46.28816" lon="5.92178">
        <ele>868</ele>
        <time>2012-05-19T14:15:26Z</time>
      </trkpt>
      <trkpt lat="46.28836" lon="5.92193">
        <ele>873</ele>
        <time>2012-05-19T14:15:45Z</time>
      </trkpt>
      <trkpt lat="46.28857" lon="5.92208">
        <ele>873</ele>
        <time>2012-05-19T14:16:01Z</time>
      </trkpt>
      <trkpt lat="46.28875" lon="5.92228">
        <ele>872</ele>
        <time>2012-05-19T14:16:14Z</time>
      </trkpt>
      <trkpt lat="46.28896" lon="5.9224">
        <ele>872</ele>
        <time>2012-05-19T14:16:28Z</time>
      </trkpt>
      <trkpt lat="46.28918" lon="5.92251">
        <ele>870</ele>
        <time>2012-05-19T14:16:42Z</time>
      </trkpt>
      <trkpt lat="46.2894" lon="5.92264">
        <ele>872</ele>
        <time>2012-05-19T14:16:55Z</time>
      </trkpt>
      <trkpt lat="46.28963" lon="5.92273">
        <ele>873</ele>
        <time>2012-05-19T14:17:08Z</time>
      </trkpt>
      <trkpt lat="46.28984" lon="5.92283">
        <ele>873</ele>
        <time>2012-05-19T14:17:18Z</time>
      </trkpt>
      <trkpt lat="46.29003" lon="5.92303">
        <ele>877</ele>
        <time>2012-05-19T14:17:27Z</time>
      </trkpt>
      <trkpt lat="46.29023" lon="5.9232">
        <ele>877</ele>
        <time>2012-05-19T14:17:37Z</time>
      </trkpt>
      <trkpt lat="46.29044" lon="5.92331">
        <ele>878</ele>
        <time>2012-05-19T14:17:46Z</time>
      </trkpt>
      <trkpt lat="46.29068" lon="5.92341">
        <ele>872</ele>
        <time>2012-05-19T14:17:56Z</time>
      </trkpt>
      <trkpt lat="46.2909" lon="5.92354">
        <ele>874</ele>
        <time>2012-05-19T14:18:06Z</time>
      </trkpt>
      <trkpt lat="46.29109" lon="5.92373">
        <ele>873</ele>
        <time>2012-05-19T14:18:16Z</time>
      </trkpt>
      <trkpt lat="46.29126" lon="5.92395">
        <ele>871</ele>
        <time>2012-05-19T14:18:25Z</time>
      </trkpt>
      <trkpt lat="46.29146" lon="5.92412">
        <ele>870</ele>
        <time>2012-05-19T14:18:35Z</time>
      </trkpt>
      <trkpt lat="46.29163" lon="5.92436">
        <ele>861</ele>
        <time>2012-05-19T14:18:45Z</time>
      </trkpt>
      <trkpt lat="46.2918" lon="5.92459">
        <ele>865</ele>
        <time>2012-05-19T14:18:57Z</time>
      </trkpt>
      <trkpt lat="46.29196" lon="5.92485">
        <ele>864</ele>
        <time>2012-05-19T14:19:15Z</time>
      </trkpt>
      <trkpt lat="46.29213" lon="5.92509">
        <ele>858</ele>
        <time>2012-05-19T14:19:31Z</time>
      </trkpt>
      <trkpt lat="46.29232" lon="5.9253">
        <ele>858</ele>
        <time>2012-05-19T14:19:46Z</time>
      </trkpt>
      <trkpt lat="46.29251" lon="5.92547">
        <ele>863</ele>
        <time>2012-05-19T14:20:00Z</time>
      </trkpt>
      <trkpt lat="46.29274" lon="5.92562">
        <ele>863</ele>
        <time>2012-05-19T14:20:14Z</time>
      </trkpt>
      <trkpt lat="46.29292" lon="5.92582">
        <ele>863</ele>
        <time>2012-05-19T14:20:29Z</time>
      </trkpt>
      <trkpt lat="46.29306" lon="5.92607">
        <ele>857</ele>
        <time>2012-05-19T14:20:44Z</time>
      </trkpt>
      <trkpt lat="46.29327" lon="5.92624">
        <ele>856</ele>
        <time>2012-05-19T14:20:59Z</time>
      </trkpt>
      <trkpt lat="46.29348" lon="5.92635">
        <ele>858</ele>
        <time>2012-05-19T14:21:15Z</time>
      </trkpt>
      <trkpt lat="46.29371" lon="5.92633">
        <ele>859</ele>
        <time>2012-05-19T14:21:32Z</time>
      </trkpt>
      <trkpt lat="46.29393" lon="5.92648">
        <ele>858</ele>
        <time>2012-05-19T14:21:48Z</time>
      </trkpt>
      <trkpt lat="46.29413" lon="5.92663">
        <ele>855</ele>
        <time>2012-05-19T14:22:03Z</time>
      </trkpt>
      <trkpt lat="46.29435" lon="5.92678">
        <ele>854</ele>
        <time>2012-05-19T14:22:17Z</time>
      </trkpt>
      <trkpt lat="46.29456" lon="5.92693">
        <ele>854</ele>
        <time>2012-05-19T14:22:32Z</time>
      </trkpt>
      <trkpt lat="46.29478" lon="5.92708">
        <ele>854</ele>
        <time>2012-05-19T14:22:47Z</time>
      </trkpt>
      <trkpt lat="46.29499" lon="5.92719">
        <ele>853</ele>
        <time>2012-05-19T14:22:57Z</time>
      </trkpt>
      <trkpt lat="46.29521" lon="5.92732">
        <ele>856</ele>
        <time>2012-05-19T14:23:08Z</time>
      </trkpt>
      <trkpt lat="46.29541" lon="5.92747">
        <ele>856</ele>
        <time>2012-05-19T14:23:18Z</time>
      </trkpt>
      <trkpt lat="46.29563" lon="5.9276">
        <ele>853</ele>
        <time>2012-05-19T14:23:28Z</time>
      </trkpt>
      <trkpt lat="46.29584" lon="5.92773">
        <ele>858</ele>
        <time>2012-05-19T14:23:38Z</time>
      </trkpt>
      <trkpt lat="46.29605" lon="5.9279">
        <ele>860</ele>
        <time>2012-05-19T14:23:49Z</time>
      </trkpt>
      <trkpt lat="46.29625" lon="5.92809">
        <ele>861</ele>
        <time>2012-05-19T14:23:59Z</time>
      </trkpt>
      <trkpt lat="46.29642" lon="5.9283">
        <ele>863</ele>
        <time>2012-05-19T14:24:09Z</time>
      </trkpt>
      <trkpt lat="46.2966" lon="5.92854">
        <ele>859</ele>
        <time>2012-05-19T14:24:20Z</time>
      </trkpt>
      <trkpt lat="46.29677" lon="5.92876">
        <ele>864</ele>
        <time>2012-05-19T14:24:30Z</time>
      </trkpt>
      <trkpt lat="46.29691" lon="5.92903">
        <ele>862</ele>
        <time>2012-05-19T14:24:40Z</time>
      </trkpt>
      <trkpt lat="46.29703" lon="5.92931">
        <ele>857</ele>
        <time>2012-05-19T14:24:49Z</time>
      </trkpt>
      <trkpt lat="46.29718" lon="5.92959">
        <ele>856</ele>
        <time>2012-05-19T14:24:59Z</time>
      </trkpt>
      <trkpt lat="46.29737" lon="5.92976">
        <ele>856</ele>
        <time>2012-05-19T14:25:08Z</time>
      </trkpt>
      <trkpt lat="46.29759" lon="5.92994">
        <ele>857</ele>
        <time>2012-05-19T14:25:18Z</time>
      </trkpt>
      <trkpt lat="46.29776" lon="5.93017">
        <ele>855</ele>
        <time>2012-05-19T14:25:28Z</time>
      </trkpt>
      <trkpt lat="46.29793" lon="5.93041">
        <ele>855</ele>
        <time>2012-05-19T14:25:39Z</time>
      </trkpt>
      <trkpt lat="46.29809" lon="5.93064">
        <ele>855</ele>
        <time>2012-05-19T14:25:49Z</time>
      </trkpt>
      <trkpt lat="46.29831" lon="5.93082">
        <ele>856</ele>
        <time>2012-05-19T14:25:59Z</time>
      </trkpt>
      <trkpt lat="46.29853" lon="5.93097">
        <ele>856</ele>
        <time>2012-05-19T14:26:09Z</time>
      </trkpt>
      <trkpt lat="46.29875" lon="5.93107">
        <ele>856</ele>
        <time>2012-05-19T14:26:19Z</time>
      </trkpt>
      <trkpt lat="46.29897" lon="5.93114">
        <ele>857</ele>
        <time>2012-05-19T14:26:29Z</time>
      </trkpt>
      <trkpt lat="46.29919" lon="5.93127">
        <ele>859</ele>
        <time>2012-05-19T14:26:39Z</time>
      </trkpt>
      <trkpt lat="46.29937" lon="5.9315">
        <ele>858</ele>
        <time>2012-05-19T14:26:49Z</time>
      </trkpt>
      <trkpt lat="46.29954" lon="5.93172">
        <ele>856</ele>
        <time>2012-05-19T14:26:59Z</time>
      </trkpt>
      <trkpt lat="46.2997" lon="5.93197">
        <ele>856</ele>
        <time>2012-05-19T14:27:09Z</time>
      </trkpt>
      <trkpt lat="46.2998" lon="5.9323">
        <ele>856</ele>
        <time>2012-05-19T14:27:20Z</time>
      </trkpt>
      <trkpt lat="46.2999" lon="5.9326">
        <ele>856</ele>
        <time>2012-05-19T14:27:31Z</time>
      </trkpt>
      <trkpt lat="46.29999" lon="5.9329">
        <ele>856</ele>
        <time>2012-05-19T14:27:42Z</time>
      </trkpt>
      <trkpt lat="46.30008" lon="5.9332">
        <ele>857</ele>
        <time>2012-05-19T14:27:51Z</time>
      </trkpt>
      <trkpt lat="46.30017" lon="5.93352">
        <ele>857</ele>
        <time>2012-05-19T14:28:00Z</time>
      </trkpt>
      <trkpt lat="46.30028" lon="5.93382">
        <ele>858</ele>
        <time>2012-05-19T14:28:11Z</time>
      </trkpt>
      <trkpt lat="46.30037" lon="5.93412">
        <ele>858</ele>
        <time>2012-05-19T14:28:19Z</time>
      </trkpt>
      <trkpt lat="46.30045" lon="5.93444">
        <ele>859</ele>
        <time>2012-05-19T14:28:29Z</time>
      </trkpt>
      <trkpt lat="46.30051" lon="5.93478">
        <ele>859</ele>
        <time>2012-05-19T14:28:41Z</time>
      </trkpt>
      <trkpt lat="46.30056" lon="5.93511">
        <ele>860</ele>
        <time>2012-05-19T14:28:51Z</time>
      </trkpt>
      <trkpt lat="46.30061" lon="5.93543">
        <ele>861</ele>
        <time>2012-05-19T14:29:02Z</time>
      </trkpt>
      <trkpt lat="46.30068" lon="5.93575">
        <ele>862</ele>
        <time>2012-05-19T14:29:15Z</time>
      </trkpt>
      <trkpt lat="46.30072" lon="5.93607">
        <ele>865</ele>
        <time>2012-05-19T14:29:31Z</time>
      </trkpt>
      <trkpt lat="46.30079" lon="5.93639">
        <ele>866</ele>
        <time>2012-05-19T14:29:46Z</time>
      </trkpt>
      <trkpt lat="46.30084" lon="5.93672">
        <ele>868</ele>
        <time>2012-05-19T14:30:03Z</time>
      </trkpt>
      <trkpt lat="46.30093" lon="5.93702">
        <ele>870</ele>
        <time>2012-05-19T14:30:16Z</time>
      </trkpt>
      <trkpt lat="46.30101" lon="5.93732">
        <ele>871</ele>
        <time>2012-05-19T14:30:32Z</time>
      </trkpt>
      <trkpt lat="46.30108" lon="5.93764">
        <ele>875</ele>
        <time>2012-05-19T14:30:51Z</time>
      </trkpt>
      <trkpt lat="46.30112" lon="5.93796">
        <ele>876</ele>
        <time>2012-05-19T14:31:10Z</time>
      </trkpt>
      <trkpt lat="46.3012" lon="5.93828">
        <ele>876</ele>
        <time>2012-05-19T14:31:28Z</time>
      </trkpt>
      <trkpt lat="46.30129" lon="5.93858">
        <ele>880</ele>
        <time>2012-05-19T14:31:45Z</time>
      </trkpt>
      <trkpt lat="46.30138" lon="5.93888">
        <ele>881</ele>
        <time>2012-05-19T14:32:00Z</time>
      </trkpt>
      <trkpt lat="46.30146" lon="5.93918">
        <ele>885</ele>
        <time>2012-05-19T14:32:18Z</time>
      </trkpt>
      <trkpt lat="46.3015" lon="5.93951">
        <ele>887</ele>
        <time>2012-05-19T14:32:36Z</time>
      </trkpt>
      <trkpt lat="46.30157" lon="5.93983">
        <ele>888</ele>
        <time>2012-05-19T14:32:58Z</time>
      </trkpt>
      <trkpt lat="46.30175" lon="5.94004">
        <ele>890</ele>
        <time>2012-05-19T14:33:16Z</time>
      </trkpt>
      <trkpt lat="46.30197" lon="5.94017">
        <ele>891</ele>
        <time>2012-05-19T14:33:34Z</time>
      </trkpt>
      <trkpt lat="46.30216" lon="5.94034">
        <ele>891</ele>
        <time>2012-05-19T14:33:51Z</time>
      </trkpt>
      <trkpt lat="46.30232" lon="5.94058">
        <ele>892</ele>
        <time>2012-05-19T14:34:05Z</time>
      </trkpt>
      <trkpt lat="46.30241" lon="5.94088">
        <ele>896</ele>
        <time>2012-05-19T14:34:26Z</time>
      </trkpt>
      <trkpt lat="46.30217" lon="5.94094">
        <ele>899</ele>
        <time>2012-05-19T14:34:46Z</time>
      </trkpt>
      <trkpt lat="46.30193" lon="5.94099">
        <ele>900</ele>
        <time>2012-05-19T14:35:04Z</time>
      </trkpt>
      <trkpt lat="46.3017" lon="5.94107">
        <ele>900</ele>
        <time>2012-05-19T14:35:22Z</time>
      </trkpt>
      <trkpt lat="46.30147" lon="5.94114">
        <ele>908</ele>
        <time>2012-05-19T14:35:40Z</time>
      </trkpt>
      <trkpt lat="46.30125" lon="5.94122">
        <ele>911</ele>
        <time>2012-05-19T14:35:57Z</time>
      </trkpt>
      <trkpt lat="46.30102" lon="5.94122">
        <ele>912</ele>
        <time>2012-05-19T14:36:16Z</time>
      </trkpt>
      <trkpt lat="46.30081" lon="5.94133">
        <ele>927</ele>
        <time>2012-05-19T14:36:37Z</time>
      </trkpt>
      <trkpt lat="46.30087" lon="5.94165">
        <ele>925</ele>
        <time>2012-05-19T14:36:57Z</time>
      </trkpt>
      <trkpt lat="46.30101" lon="5.94193">
        <ele>931</ele>
        <time>2012-05-19T14:37:19Z</time>
      </trkpt>
      <trkpt lat="46.30112" lon="5.94223">
        <ele>935</ele>
        <time>2012-05-19T14:37:39Z</time>
      </trkpt>
      <trkpt lat="46.30116" lon="5.94255">
        <ele>952</ele>
        <time>2012-05-19T14:37:57Z</time>
      </trkpt>
      <trkpt lat="46.30094" lon="5.94255">
        <ele>954</ele>
        <time>2012-05-19T14:38:17Z</time>
      </trkpt>
      <trkpt lat="46.30071" lon="5.94247">
        <ele>954</ele>
        <time>2012-05-19T14:38:36Z</time>
      </trkpt>
      <trkpt lat="46.30049" lon="5.94251">
        <ele>972</ele>
        <time>2012-05-19T14:38:55Z</time>
      </trkpt>
      <trkpt lat="46.30026" lon="5.94253">
        <ele>977</ele>
        <time>2012-05-19T14:39:17Z</time>
      </trkpt>
      <trkpt lat="46.30004" lon="5.94249">
        <ele>975</ele>
        <time>2012-05-19T14:39:40Z</time>
      </trkpt>
      <trkpt lat="46.3" lon="5.94281">
        <ele>981</ele>
        <time>2012-05-19T14:40:02Z</time>
      </trkpt>
      <trkpt lat="46.30012" lon="5.94309">
        <ele>987</ele>
        <time>2012-05-19T14:40:24Z</time>
      </trkpt>
      <trkpt lat="46.30027" lon="5.94335">
        <ele>1001</ele>
        <time>2012-05-19T14:40:47Z</time>
      </trkpt>
      <trkpt lat="46.30037" lon="5.94365">
        <ele>1003</ele>
        <time>2012-05-19T14:41:24Z</time>
      </trkpt>
      <trkpt lat="46.30014" lon="5.94369">
        <ele>1006</ele>
        <time>2012-05-19T14:41:51Z</time>
      </trkpt>
      <trkpt lat="46.29992" lon="5.94378">
        <ele>1022</ele>
        <time>2012-05-19T14:42:15Z</time>
      </trkpt>
      <trkpt lat="46.29972" lon="5.9436">
        <ele>1021</ele>
        <time>2012-05-19T14:42:37Z</time>
      </trkpt>
      <trkpt lat="46.2995" lon="5.94352">
        <ele>1023</ele>
        <time>2012-05-19T14:42:58Z</time>
      </trkpt>
      <trkpt lat="46.29927" lon="5.94345">
        <ele>1024</ele>
        <time>2012-05-19T14:43:14Z</time>
      </trkpt>
      <trkpt lat="46.29908" lon="5.94328">
        <ele>1025</ele>
        <time>2012-05-19T14:43:31Z</time>
      </trkpt>
      <trkpt lat="46.29884" lon="5.9432">
        <ele>1028</ele>
        <time>2012-05-19T14:43:55Z</time>
      </trkpt>
      <trkpt lat="46.29861" lon="5.94311">
        <ele>1033</ele>
        <time>2012-05-19T14:44:19Z</time>
      </trkpt>
      <trkpt lat="46.29837" lon="5.94305">
        <ele>1035</ele>
        <time>2012-05-19T14:44:35Z</time>
      </trkpt>
      <trkpt lat="46.29815" lon="5.94305">
        <ele>1057</ele>
        <time>2012-05-19T14:44:53Z</time>
      </trkpt>
      <trkpt lat="46.29799" lon="5.94279">
        <ele>1056</ele>
        <time>2012-05-19T14:45:19Z</time>
      </trkpt>
      <trkpt lat="46.29787" lon="5.94249">
        <ele>1040</ele>
        <time>2012-05-19T14:45:29Z</time>
      </trkpt>
      <trkpt lat="46.29773" lon="5.94223">
        <ele>1041</ele>
        <time>2012-05-19T14:45:47Z</time>
      </trkpt>
      <trkpt lat="46.2975" lon="5.94217">
        <ele>1043</ele>
        <time>2012-05-19T14:46:20Z</time>
      </trkpt>
      <trkpt lat="46.29728" lon="5.94219">
        <ele>1068</ele>
        <time>2012-05-19T14:46:47Z</time>
      </trkpt>
      <trkpt lat="46.29705" lon="5.94217">
        <ele>1072</ele>
        <time>2012-05-19T14:47:19Z</time>
      </trkpt>
      <trkpt lat="46.29683" lon="5.94212">
        <ele>1076</ele>
        <time>2012-05-19T14:47:52Z</time>
      </trkpt>
      <trkpt lat="46.2966" lon="5.94202">
        <ele>1091</ele>
        <time>2012-05-19T14:48:27Z</time>
      </trkpt>
      <trkpt lat="46.29638" lon="5.94197">
        <ele>1092</ele>
        <time>2012-05-19T14:48:59Z</time>
      </trkpt>
      <trkpt lat="46.29615" lon="5.94197">
        <ele>1095</ele>
        <time>2012-05-19T14:49:29Z</time>
      </trkpt>
      <trkpt lat="46.29593" lon="5.94204">
        <ele>1098</ele>
        <time>2012-05-19T14:49:54Z</time>
      </trkpt>
      <trkpt lat="46.29596" lon="5.94236">
        <ele>1109</ele>
        <time>2012-05-19T14:51:12Z</time>
      </trkpt>
      <trkpt lat="46.29612" lon="5.9426">
        <ele>1127</ele>
        <time>2012-05-19T14:51:41Z</time>
      </trkpt>
      <trkpt lat="46.29619" lon="5.94292">
        <ele>1132</ele>
        <time>2012-05-19T14:52:36Z</time>
      </trkpt>
      <trkpt lat="46.29609" lon="5.94322">
        <ele>1141</ele>
        <time>2012-05-19T14:53:49Z</time>
      </trkpt>
      <trkpt lat="46.2959" lon="5.94341">
        <ele>1161</ele>
        <time>2012-05-19T14:54:57Z</time>
      </trkpt>
      <trkpt lat="46.296" lon="5.94371">
        <ele>1163</ele>
        <time>2012-05-19T14:55:48Z</time>
      </trkpt>
      <trkpt lat="46.29614" lon="5.94399">
        <ele>1165</ele>
        <time>2012-05-19T14:56:27Z</time>
      </trkpt>
      <trkpt lat="46.29622" lon="5.94431">
        <ele>1180</ele>
        <time>2012-05-19T14:56:49Z</time>
      </trkpt>
      <trkpt lat="46.29627" lon="5.94463">
        <ele>1183</ele>
        <time>2012-05-19T14:57:07Z</time>
      </trkpt>
      <trkpt lat="46.29639" lon="5.94491">
        <ele>1183</ele>
        <time>2012-05-19T14:57:28Z</time>
      </trkpt>
      <trkpt lat="46.29652" lon="5.94519">
        <ele>1195</ele>
        <time>2012-05-19T14:57:52Z</time>
      </trkpt>
      <trkpt lat="46.29661" lon="5.94549">
        <ele>1201</ele>
        <time>2012-05-19T14:58:18Z</time>
      </trkpt>
      <trkpt lat="46.29672" lon="5.94579">
        <ele>1199</ele>
        <time>2012-05-19T14:58:54Z</time>
      </trkpt>
      <trkpt lat="46.29681" lon="5.94609">
        <ele>1203</ele>
        <time>2012-05-19T14:59:28Z</time>
      </trkpt>
      <trkpt lat="46.29689" lon="5.94641">
        <ele>1205</ele>
        <time>2012-05-19T14:59:55Z</time>
      </trkpt>
      <trkpt lat="46.29698" lon="5.94674">
        <ele>1214</ele>
        <time>2012-05-19T15:00:18Z</time>
      </trkpt>
      <trkpt lat="46.29704" lon="5.94706">
        <ele>1214</ele>
        <time>2012-05-19T15:00:40Z</time>
      </trkpt>
      <trkpt lat="46.29719" lon="5.94732">
        <ele>1212</ele>
        <time>2012-05-19T15:01:00Z</time>
      </trkpt>
      <trkpt lat="46.29741" lon="5.94742">
        <ele>1208</ele>
        <time>2012-05-19T15:02:25Z</time>
      </trkpt>
      <trkpt lat="46.29742" lon="5.94736">
        <ele>1208</ele>
        <time>2012-05-19T15:13:02Z</time>
      </trkpt>
    </trkseg>
  </trk>
</gpx>